[[{"header":{"parameterUnit":"m.s-1","parameterCategory":1,"la1":31.0,"la2":29.5877,"lo1":-88.7671,"lo2":-86.6584,"dy":0.0162,"dx":0.0185,"nx":115,"ny":88,"refTime":"2024-06-07T12:00:00:Z","depth":0,"parameterNumber":2,"parameterNumberName":"U-component_of_WINDS"},"data":[0.0,0.0,0.0,0.0,0.0,0.0,0.0,0.0,0.0,0.0,0.0,0.0,0.0,0.0,0.0,0.0,0.0,0.0,0.0,0.0,0.0,0.0,0.0,0.0,0.0,0.0,0.0,0.0,0.0,0.0,0.0,0.0,0.0,0.0,0.0,0.0,0.0,0.0,0.0,0.0,0.0,0.0,0.0,0.0,0.0,0.0,0.0,0.0,0.0,0.0,0.0,0.0,0.0,0.0,0.0,0.0,0.0,0.0,0.0,0.0,0.0,0.0,0.0,0.0,0.0,0.0,0.0,0.0,0.0,0.0,0.0,0.0,0.0,0.0,0.0,0.0,0.0,0.0,0.0,0.0,0.0,0.0,0.0,0.0,0.0,0.0,0.0,0.0,0.0,0.0,0.0,0.0,0.0,0.0,0.0,0.0,0.0,0.0,0.0,0.0,0.0,0.0,0.0,0.0,0.0,0.0,0.0,0.0,0.0,0.0,0.0,0.0,0.0,0.0,0.0,0.0,0.0,0.0,0.0,0.0,0.0,0.0,0.0,0.0,0.0,0.0,0.0,0.0,0.0,0.0,0.0,0.0,0.0,0.0,0.0,0.0,0.0,0.0,0.0,0.0,0.0,0.0,0.0,0.0,0.0,0.0,0.0,0.0,0.0,0.0,0.0,0.0,0.0,0.0,0.0,0.0,0.0,0.0,0.0,0.0,0.0,0.0,0.0,0.0,0.0,0.0,0.0,0.0,0.0,0.0,0.0,0.0,0.0,0.0,0.0,0.0,0.0,0.0,0.0,0.0,0.0,0.0,0.0,0.0,0.0,0.0,0.0,0.0,0.0,0.0,0.0,0.0,0.0,0.0,0.0,0.0,0.0,0.0,0.0,0.0,0.0,0.0,0.0,0.0,0.0,0.0,0.0,0.0,0.0,0.0,0.0,0.0,0.0,0.0,0.0,0.0,0.0,0.0,0.0,0.0,0.0,0.0,0.0,0.0,0.0,0.0,0.0,0.0,0.0,0.0,0.0,0.0,0.0,0.0,0.0,0.0,0.0,0.0,0.0,0.0,0.0,0.0,0.0,0.0,0.0,0.0,0.0,0.0,0.0,0.0,0.0,0.0,0.0,0.0,0.0,0.0,0.0,0.0,0.0,0.0,0.0,0.0,0.0,0.0,0.0,0.0,0.0,0.0,0.0,0.0,0.0,0.0,0.0,0.0,0.0,0.0,0.0,0.0,0.0,0.0,0.0,0.0,0.0,0.0,0.0,0.0,0.0,0.0,0.0,0.0,0.0,0.0,0.0,0.0,0.0,0.0,0.0,0.0,0.0,0.0,0.0,0.0,0.0,0.0,0.0,0.0,0.0,0.0,0.0,0.0,0.0,0.0,0.0,0.0,0.0,0.0,0.0,0.0,0.0,0.0,0.0,0.0,0.0,0.0,0.0,0.0,0.0,0.0,0.0,0.0,0.0,0.0,0.0,0.0,0.0,0.0,0.0,0.0,0.0,0.0,0.0,0.0,0.0,0.0,0.0,0.0,0.0,0.0,0.0,0.0,0.0,0.0,0.0,0.0,0.0,0.0,0.0,0.0,0.0,0.0,0.0,0.0,0.0,0.0,0.0,0.0,0.0,0.0,0.0,0.0,0.0,0.0,0.0,0.0,0.0,0.0,0.0,0.0,0.0,0.0,0.0,0.0,0.0,0.0,0.0,0.0,0.0,0.0,0.0,0.0,0.0,0.0,0.0,0.0,0.0,0.0,0.0,0.0,0.0,0.0,0.0,0.0,0.0,0.0,0.0,0.0,0.0,0.0,0.0,0.0,0.0,0.0,0.0,0.0,0.0,0.0,0.0,0.0,0.0,0.0,0.0,0.0,0.0,0.0,0.0,0.0,0.0,0.0,0.0,0.0,0.0,0.0,0.0,0.0,0.0,0.0,0.0,0.0,0.0,0.0,0.0,0.0,0.0,0.0,0.0,0.0,0.0,0.0,0.0,0.0,0.0,0.0,0.0,0.0,0.0,0.0,0.0,0.0,0.0,0.0,0.0,0.0,0.0,0.0,0.0,0.0,0.0,0.0,0.0,0.0,0.0,0.0,0.0,0.0,0.0,0.0,0.0,0.0,0.0,0.0,0.0,0.0,0.0,0.0,0.0,0.0,0.0,0.0,0.0,0.0,0.0,0.0,0.0,0.0,0.0,0.0,0.0,0.0,0.0,0.0,0.0,0.0,0.0,0.0,0.0,0.0,0.0,0.0,0.0,0.0,0.0,0.0,0.0,0.0,0.0,0.0,0.0,0.0,0.0,0.0,0.0,0.0,0.0,0.0,0.0,0.0,0.0,0.0,0.0,0.0,0.0,0.0,0.0,0.0,0.0,0.0,0.0,0.0,0.0,0.0,0.0,0.0,0.0,0.0,0.0,0.0,0.0,0.0,0.0,0.0,0.0,0.0,0.0,0.0,0.0,0.0,0.0,0.0,0.0,0.0,0.0,0.0,0.0,0.0,0.0,0.0,0.0,0.0,0.0,0.0,0.0,0.0,0.0,0.0,0.0,0.0,0.0,0.0,0.0,0.0,0.0,0.0,0.0,0.0,0.0,0.0,0.0,0.0,0.0,0.0,0.0,0.0,0.0,0.0,0.0,0.0,0.0,0.0,0.0,0.0,0.0,0.0,0.0,0.0,0.0,0.0,0.0,0.0,0.0,0.0,0.0,0.0,0.0,0.0,0.0,0.0,0.0,0.0,0.0,0.0,0.0,0.0,0.0,0.0,0.0,0.0,0.0,0.0,0.0,0.0,0.0,0.0,0.0,0.0,0.0,0.0,0.0,0.0,0.0,0.0,0.0,0.0,0.0,0.0,0.0,0.0,0.0,0.0,0.0,0.0,0.0,0.0,0.0,0.0,0.0,0.0,0.0,0.0,0.0,0.0,0.0,0.0,0.0,0.0,0.0,0.0,0.0,0.0,0.0,0.0,0.0,0.0,0.0,0.0,0.0,0.0,0.0,0.0,0.0,0.0,0.0,0.0,0.0,0.0,0.0,0.0,0.0,0.0,0.0,0.0,0.0,0.0,0.0,0.0,0.0,0.0,0.0,0.0,0.0,0.0,0.0,0.0,0.0,0.0,0.0,0.0,0.0,0.0,0.0,0.0,0.0,0.0,0.0,0.0,0.0,0.0,0.0,0.0,0.0,0.0,0.0,0.0,0.0,0.0,0.0,0.0,0.0,0.0,0.0,0.0,0.0,0.0,0.0,0.0,0.0,0.0,0.0,0.0,0.0,0.0,0.0,0.0,0.0,0.0,0.0,0.0,0.0,0.0,0.0,0.0,0.0,0.0,0.0,0.0,0.0,0.0,0.0,0.0,0.0,0.0,0.0,0.0,0.0,0.0,0.0,0.0,0.0,0.0,0.0,0.0,0.0,0.0,0.0,0.0,0.0,0.0,0.0,0.0,0.0,0.0,0.0,0.0,0.0,0.0,0.0,0.0,0.0,0.0,0.0,0.0,0.0,0.0,0.0,0.0,0.0,0.0,0.0,0.0,0.0,0.0,0.0,0.0,0.0,0.0,0.0,0.0,0.0,0.0,0.0,0.0,0.0,0.0,0.0,0.0,0.0,0.0,0.0,0.0,0.0,0.0,0.0,0.0,0.0,0.0,0.0,0.0,0.0,0.0,0.0,0.0,0.0,0.0,0.0,0.0,0.0,0.0,0.0,0.0,0.0,0.0,0.0,0.0,0.0,0.0,0.0,0.0,0.0,0.0,0.0,0.0,0.0,0.0,0.0,0.0,0.0,0.0,0.0,0.0,0.0,0.0,0.0,0.0,0.0,0.0,0.0,0.0,0.0,0.0,0.0,0.0,0.0,0.0,0.0,0.0,0.0,0.0,0.0,0.0,0.0,0.0,0.0,0.0,0.0,0.0,0.0,0.0,0.0,0.0,0.0,0.0,0.0,0.0,0.0,0.0,0.0,0.0,0.0,0.0,0.0,0.0,0.0,0.0,0.0,0.0,0.0,0.0,0.0,0.0,0.0,0.0,0.0,0.0,0.0,0.0,0.0,0.0,0.0,0.0,0.0,0.0,0.0,0.0,0.0,0.0,0.0,0.0,0.0,0.0,0.0,0.0,0.0,0.0,0.0,0.0,0.0,0.0,0.0,0.0,0.0,0.0,0.0,0.0,0.0,0.0,0.0,0.0,0.0,0.0,0.0,0.0,0.0,0.0,0.0,0.0,0.0,0.0,0.0,0.0,0.0,0.0,0.0,0.0,0.0,0.0,0.0,0.0,0.4691,0.0,0.0,0.0,0.0,0.0,0.0,0.0,0.0,0.0,0.0,0.0,0.0,0.0,0.0,0.0,0.0,0.0,0.0,0.0,0.0,0.0,0.0,0.0,0.0,0.0,0.0,0.0,0.0,0.0,0.0,0.0,0.0,0.0,0.0,0.0,0.0,0.0,0.0,0.0,0.0,0.0,0.0,0.0,0.0,0.0,0.0,0.0,0.0,0.0,0.0,0.0,0.0,0.0,0.0,0.0,0.0,0.0,0.0,0.0,0.0,0.0,0.0,0.0,0.0,0.0,0.0,0.0,0.0,0.0,0.0,0.0,0.0,0.0,0.0,0.0,0.0,0.0,0.0,0.0,0.0,0.0,0.0,0.0,0.0,0.0,0.0,0.0,0.0,0.0,0.0,0.0,0.0,0.0,0.0,0.0,0.0,0.0,0.0,0.0,0.0,0.0,0.0,0.0,0.0,0.0,0.0,0.0,0.0,0.0,0.0,0.5323,0.551,0.527,0.5168,0.5243,0.0,0.0,0.0,0.0,0.0,0.0,0.0,0.0,0.0,0.0,0.0,0.0,0.0,0.0,0.0,0.0,0.0,0.0,0.0,0.0,0.0,0.0,0.0,0.0,0.0,0.0,0.0,0.0,0.0,0.0,0.0,0.0,0.0,0.0,0.0,0.0,0.0,0.0,0.0,0.0,0.0,0.0,0.0,0.0,0.0,0.0,0.0,0.0,0.0,0.0,0.0,0.0,0.0,0.0,0.0,0.0,0.0,0.0,0.0,0.0,0.0,0.0,0.0,0.0,0.0,0.0,0.0,0.0,0.0,0.0,0.0,0.0,0.0,0.0,0.0,0.0,0.0,0.0,0.0,0.0,0.0,0.0,0.0,0.0,0.0,0.0,0.0,0.0,0.0,0.0,0.0,0.0,0.0,0.0,0.0,0.0,0.0,0.0,0.0,0.0,0.0,0.0,0.0,0.0,0.0,0.0,0.0,0.0,0.0,0.0,0.0,0.0,0.5602,0.556,0.5719,0.0,0.0,0.0,0.0,0.0,0.0,0.0,0.0,0.0,0.0,0.0,0.0,0.0,0.0,0.0,0.0,0.0,0.0,0.0,0.0,0.0,0.0,0.0,0.0,0.0,0.0,0.0,0.0,0.0,0.0,0.0,0.0,0.0,0.0,0.0,0.0,0.0,0.0,0.0,0.0,0.0,0.0,0.0,0.0,0.0,0.0,0.0,0.0,0.0,0.0,0.0,0.0,0.0,0.0,0.0,0.0,0.0,0.0,0.0,0.0,0.0,0.0,0.0,0.0,0.0,0.0,0.0,0.0,0.0,0.0,0.0,0.0,0.0,0.0,0.0,0.0,0.0,0.0,0.0,0.0,0.0,0.0,0.0,0.0,0.0,0.0,0.0,0.0,0.0,0.0,0.0,0.0,0.0,0.0,0.0,0.0,0.0,0.0,0.0,0.0,0.0,0.0,0.0,0.0,0.0,0.0,0.0,0.0,0.0,0.0,0.5806,0.6125,0.5914,0.0,0.5775,0.0,0.0,0.0,0.0,0.0,0.0,0.0,0.0,0.0,0.0,0.0,0.0,0.0,0.0,0.0,0.0,0.0,0.0,0.0,0.0,0.0,0.0,0.0,0.0,0.0,0.0,0.0,0.0,0.0,0.0,0.0,0.0,0.0,0.0,0.0,0.0,0.0,0.0,0.0,0.0,0.0,0.0,0.0,0.0,0.0,0.0,0.0,0.0,0.0,0.0,0.0,0.0,0.0,0.0,0.0,0.0,0.0,0.0,0.0,0.0,0.0,0.0,0.0,0.0,0.0,0.0,0.0,0.0,0.0,0.0,0.0,0.0,0.0,0.0,0.0,0.0,0.0,0.0,0.0,0.0,0.0,0.0,0.0,0.0,0.0,0.0,0.0,0.0,0.0,0.0,0.0,0.0,0.0,0.0,0.0,0.0,0.0,0.0,0.0,0.0,0.0,0.0,0.0,0.0,0.0,0.0,0.0,0.0,0.0,0.0,0.5811,0.6303,0.6246,0.6178,0.0,0.0,0.0,0.0,0.0,0.0,0.0,0.0,0.0,0.0,0.0,0.0,0.0,0.0,0.0,0.0,0.0,0.0,0.0,0.0,0.0,0.0,0.0,0.0,0.0,0.0,0.0,0.0,0.0,0.0,0.0,0.0,0.0,0.0,0.0,0.0,0.0,0.0,0.0,0.0,0.0,0.0,0.0,0.0,0.0,0.0,0.0,0.0,0.0,0.0,0.0,0.0,0.0,0.0,0.0,0.0,0.0,0.0,0.0,0.0,0.0,0.0,0.0,0.0,0.0,0.0,0.0,0.0,0.0,0.0,0.0,0.0,0.0,0.0,0.0,0.0,0.0,0.0,0.0,0.0,0.0,0.0,0.0,0.0,0.0,0.0,0.0,0.0,0.0,0.0,0.0,0.0,0.0,0.0,0.0,0.0,0.0,0.0,0.0,0.0,0.0,0.0,0.0,0.0,0.0,0.0,0.0,0.0,0.0,0.0,0.575,0.0,0.6412,0.644,0.6411,0.6245,0.0,0.0,0.0,0.0,0.0,0.0,0.0,0.0,0.0,0.0,0.0,0.0,0.0,0.0,0.0,0.0,0.0,0.0,0.0,0.0,0.0,0.0,0.0,0.0,0.0,0.0,0.0,0.0,0.0,0.0,0.0,0.0,0.0,0.0,0.0,0.0,0.0,0.0,0.0,0.0,0.0,0.0,0.0,0.0,0.0,0.0,0.0,0.0,0.0,0.0,0.0,0.0,0.0,0.0,0.0,0.0,0.0,0.0,0.0,0.0,0.0,0.0,0.0,0.0,0.0,0.0,0.0,0.0,0.0,0.0,0.0,0.0,0.0,0.0,0.0,0.0,0.0,0.0,0.0,0.0,0.0,0.0,0.0,0.0,0.0,0.0,0.0,0.0,0.0,0.0,0.0,0.0,0.0,0.0,0.0,0.0,0.0,0.0,0.0,0.0,0.0,0.0,0.0,0.0,0.0,0.0,0.0,0.0,0.0,0.6303,0.6458,0.6518,0.6443,0.6228,0.0,0.0,0.0,0.0,0.0,0.0,0.0,0.0,0.0,0.0,0.0,0.0,0.0,0.0,0.0,0.0,0.0,0.0,0.0,0.0,0.0,0.0,0.0,0.0,0.0,0.0,0.0,0.0,0.0,0.0,0.0,0.0,0.0,0.0,0.0,0.0,0.0,0.0,0.0,0.0,0.0,0.0,0.0,0.0,0.0,0.0,0.0,0.0,0.0,0.0,0.0,0.0,0.0,0.0,0.0,0.0,0.0,0.0,0.0,0.0,0.0,0.0,0.0,0.0,0.0,0.0,0.0,0.0,0.0,0.0,0.0,0.0,0.0,0.0,0.0,0.0,0.0,0.0,0.0,0.0,0.0,0.0,0.0,0.0,0.0,0.0,0.0,0.0,0.0,0.0,0.0,0.0,0.0,0.0,0.0,0.0,0.0,0.0,0.0,0.0,0.0,0.0,0.0,0.0,0.0,0.0,0.0,0.0,0.0,0.5916,0.6261,0.6526,0.6747,0.6489,0.6177,0.0,0.0,0.0,0.0,0.0,0.0,0.0,0.0,0.0,0.0,0.0,0.0,0.0,0.0,0.0,0.0,0.0,0.0,0.0,0.0,0.0,0.0,0.0,0.0,0.0,0.0,0.0,0.0,0.0,0.0,0.0,0.0,0.0,0.0,0.0,0.0,0.0,0.0,0.0,0.0,0.0,0.0,0.0,0.0,0.0,0.0,0.0,0.0,0.0,0.0,0.0,0.0,0.0,0.0,0.0,0.0,0.0,0.0,0.0,0.0,0.0,0.0,0.0,0.0,0.0,0.0,0.0,0.0,0.0,0.0,0.0,0.0,0.0,0.0,0.0,0.0,0.0,0.0,0.0,0.0,0.0,0.0,0.0,0.0,0.0,0.0,0.0,0.0,0.0,0.0,0.0,0.0,0.0,0.0,0.0,0.0,0.0,0.0,0.0,0.0,0.0,0.0,0.0,0.0,0.0,0.0,0.0,0.0,0.0,0.6238,0.0,0.6763,0.0,0.6602,0.618,0.0,0.0,0.0,0.0,0.0,0.0,0.0,0.0,0.0,0.0,0.0,0.0,0.0,0.0,0.0,0.0,0.0,0.0,0.0,0.0,0.0,0.0,0.0,0.0,0.0,0.0,0.0,0.0,0.0,0.0,0.0,0.0,0.0,0.0,0.0,0.0,0.0,0.0,0.0,0.0,0.0,0.0,0.0,0.0,0.0,0.0,0.0,0.0,0.0,0.0,0.0,0.0,0.0,0.0,0.0,0.0,0.0,0.0,0.0,0.0,0.0,0.0,0.0,0.0,0.0,0.0,0.0,0.0,0.0,0.0,0.0,0.0,0.0,0.0,0.0,0.0,0.0,0.0,0.0,0.0,0.0,0.0,0.0,0.0,0.0,0.0,0.0,0.0,0.0,0.0,0.0,0.0,0.0,0.0,0.0,0.0,0.0,0.0,0.0,0.0,0.0,0.0,0.0,0.0,0.0,0.0,0.0,0.0,0.6484,0.7156,0.7308,0.7236,0.6848,0.6832,0.6316,0.0,0.0,0.0,0.0,0.0,0.0,0.0,0.0,0.0,0.0,0.0,0.0,0.0,0.0,0.0,0.0,0.0,0.0,0.0,0.0,0.0,0.0,0.0,0.0,0.0,0.0,0.0,0.0,0.0,0.0,0.0,0.0,0.0,0.0,0.0,0.0,0.0,0.0,0.0,0.0,0.0,0.0,0.0,0.0,0.0,0.0,0.0,0.0,0.0,0.0,0.0,0.0,0.0,0.0,0.0,0.0,0.0,0.0,0.0,0.0,0.0,0.0,0.0,0.0,0.0,0.0,0.0,0.0,0.0,0.0,0.0,0.0,0.0,0.0,0.0,0.0,0.0,0.0,0.0,0.0,0.0,0.0,0.0,0.0,0.0,0.0,0.0,0.0,0.0,0.0,0.0,0.0,0.0,0.0,0.0,0.0,0.0,0.0,0.0,0.0,0.0,0.0,0.0,0.0,0.0,0.0,0.0,0.0,0.0,0.7792,0.773,0.7745,0.7865,0.7404,0.6776,0.0,0.0,0.0,0.0,0.0,0.0,0.0,0.0,0.0,0.0,0.0,0.0,0.0,0.0,0.0,0.0,0.0,0.0,0.0,0.0,0.0,0.0,0.0,0.0,0.0,0.0,0.0,0.0,0.0,0.0,0.0,0.0,0.0,0.0,0.0,0.0,0.0,0.0,0.0,0.0,0.0,0.0,0.0,0.0,0.0,0.0,0.0,0.0,0.0,0.0,0.0,0.0,0.0,0.0,0.0,0.0,0.0,0.0,0.0,0.0,0.0,0.0,0.0,0.0,0.0,0.0,0.0,0.0,0.0,0.0,0.0,0.0,0.0,0.0,0.0,0.0,0.0,0.0,0.0,0.0,0.0,0.0,0.0,0.0,0.0,0.0,0.0,0.0,0.0,0.0,0.0,0.0,0.0,0.0,0.0,0.0,0.0,0.0,0.0,0.0,0.0,0.0,0.0,0.0,0.0,0.0,0.0,0.0,0.0,0.8985,0.8725,0.8659,0.8797,0.8206,0.7452,0.6514,0.0,0.0,0.0,0.0,0.0,0.0,0.0,0.0,0.0,0.0,0.0,0.0,0.0,0.0,0.0,0.0,0.0,0.0,0.0,0.0,0.0,0.0,0.0,0.0,0.0,0.0,0.0,0.0,0.0,0.0,0.0,0.0,0.0,0.0,0.0,0.0,0.0,0.0,0.0,0.0,0.0,0.0,0.0,0.0,0.0,0.0,0.0,0.0,0.0,0.0,0.0,0.0,0.0,0.0,0.0,0.0,0.0,0.0,0.0,0.0,0.0,0.0,0.0,0.0,0.0,0.0,0.0,0.0,0.0,0.0,0.0,0.0,0.0,0.0,0.0,0.0,0.0,0.0,0.0,0.0,0.0,0.0,0.0,0.0,0.0,0.0,0.0,0.0,0.0,0.0,0.0,0.0,0.0,0.0,0.0,0.0,0.0,0.0,0.0,0.0,0.0,0.0,0.0,0.0,0.0,0.0,0.0,0.0,1.064,1.0274,0.9898,0.9533,0.9175,0.8325,0.0,0.0,0.0,0.0,0.0,0.0,0.0,0.0,0.0,0.0,0.0,0.0,0.0,0.0,0.0,0.0,0.0,0.0,0.0,0.0,0.0,0.0,0.0,0.0,0.0,0.0,0.0,0.0,0.0,0.0,0.0,0.0,0.0,0.0,0.0,0.0,0.0,0.0,0.0,0.0,0.0,0.0,0.0,0.0,0.0,0.0,0.0,0.0,0.0,0.0,0.0,0.0,0.0,0.0,0.0,0.0,0.0,0.0,0.0,0.0,0.0,0.0,0.0,0.0,0.0,0.0,0.0,0.0,0.0,0.0,0.0,0.0,0.0,0.0,0.0,0.0,0.0,0.0,0.0,0.0,0.0,0.0,0.0,0.0,0.0,0.0,0.0,0.0,0.0,0.0,0.0,0.0,0.0,0.0,0.0,0.0,0.0,0.0,0.0,0.0,0.0,0.0,0.0,0.0,0.0,0.0,0.0,0.0,0.0,1.1208,1.1703,1.1582,1.0955,1.0367,0.9444,0.0,0.0,0.0,0.0,0.0,0.0,0.0,0.0,0.0,0.0,0.0,0.0,0.0,0.0,0.0,0.0,0.0,0.0,0.0,0.0,0.0,0.0,0.0,0.0,0.0,0.0,0.0,0.0,0.0,0.0,0.0,0.0,0.0,0.0,0.0,0.0,0.0,0.0,0.0,0.0,0.0,0.0,0.0,0.0,0.0,0.0,0.0,0.0,0.0,0.0,0.0,0.0,0.0,0.0,0.0,0.0,0.0,0.0,0.0,0.0,0.0,0.0,0.0,0.0,0.0,0.0,0.0,0.0,0.0,0.0,0.0,0.0,0.0,0.0,0.0,0.0,0.0,0.0,0.0,0.0,0.0,0.0,0.0,0.0,0.0,0.0,0.0,0.0,0.0,0.0,0.0,0.0,0.0,0.0,0.0,0.0,0.0,0.0,0.0,0.0,0.0,0.0,0.0,0.0,0.0,0.0,0.0,0.0,1.0761,1.2131,1.2853,1.302,1.2599,1.1495,1.0256,0.0,0.0,0.0,0.0,0.0,0.0,0.0,0.0,0.0,0.0,0.0,0.0,0.0,0.0,0.0,0.0,0.0,0.0,0.0,0.0,0.0,0.0,0.0,0.0,0.0,0.0,0.0,0.0,0.0,0.0,0.0,0.0,0.0,0.0,0.0,0.0,0.0,0.0,0.0,0.0,0.0,0.0,0.0,0.0,0.0,0.0,0.0,0.0,0.0,0.0,0.0,0.0,0.0,0.0,0.0,0.0,0.0,0.0,0.0,0.0,0.0,0.0,0.0,0.0,0.0,0.0,0.0,0.0,0.0,0.0,0.0,0.0,0.0,0.0,0.0,0.0,0.0,0.0,0.0,0.0,0.0,0.0,0.0,0.0,0.0,0.0,0.0,0.0,0.0,0.0,0.0,0.0,0.0,0.0,0.0,0.0,0.0,0.0,0.0,0.0,0.0,0.0,0.0,0.0,0.0,0.0,0.0,0.0,1.1495,1.3052,1.3759,1.4109,1.4069,1.2482,1.0949,0.0,0.0,0.0,0.0,0.0,0.0,0.0,0.0,0.0,0.0,0.0,0.0,0.0,0.0,0.0,0.0,0.0,0.0,0.0,0.0,0.0,0.0,0.0,0.0,0.0,0.0,0.0,0.0,0.0,0.0,0.0,0.0,0.0,0.0,0.0,0.0,0.0,0.0,0.0,0.0,0.0,0.0,0.0,0.0,0.0,0.0,0.0,0.0,0.0,0.0,0.0,0.0,0.0,0.0,0.0,0.0,0.0,0.0,0.0,0.0,0.0,0.0,0.0,0.0,0.0,0.0,0.0,0.0,0.0,0.0,0.0,0.0,0.0,0.0,0.0,0.0,0.0,0.0,0.0,0.0,0.0,0.0,0.0,0.0,0.0,0.0,0.0,0.0,0.0,0.0,0.0,0.0,0.0,0.0,0.0,0.0,0.0,0.0,0.0,0.0,0.0,0.0,0.0,0.0,0.0,0.0,0.0,0.0,1.1993,1.3068,1.3759,1.4117,1.4109,1.3105,1.1721,0.0,0.0,0.0,0.0,0.0,0.0,0.0,0.0,0.0,0.0,0.0,0.0,0.0,0.0,0.0,0.0,0.0,0.0,0.0,0.0,0.0,0.0,0.0,0.0,0.0,0.0,0.0,0.0,0.0,0.0,0.0,0.0,0.0,0.0,0.0,0.0,0.0,0.0,0.0,0.0,0.0,0.0,0.0,0.0,0.0,0.0,0.0,0.0,0.9069,0.0,0.0,0.0,0.0,0.0,0.0,0.0,0.0,0.0,0.0,0.0,0.0,0.0,0.0,0.0,0.0,0.0,0.0,0.0,0.0,0.0,0.0,0.0,0.0,0.0,0.0,0.0,0.0,0.0,0.0,0.0,0.0,0.0,0.0,0.0,0.0,0.0,0.0,0.0,0.0,0.0,0.0,0.0,0.0,0.0,0.0,0.0,0.0,0.0,0.0,0.0,0.0,0.0,0.0,0.0,0.0,0.0,0.0,0.0,1.2274,1.3184,1.3868,1.4222,1.405,1.3217,1.2081,0.0,0.0,0.0,0.0,0.0,0.0,0.0,0.0,0.0,0.0,0.0,0.0,0.0,0.0,0.0,0.0,0.0,0.0,0.0,0.0,0.0,0.0,0.0,0.0,0.0,0.0,0.0,0.0,0.0,0.0,0.0,0.0,0.0,0.0,0.0,0.0,0.0,0.0,0.0,0.0,0.0,0.0,0.0,0.0,0.0,0.0,0.0,0.0,0.0,0.0,0.0,0.0,0.0,0.0,0.0,0.0,0.0,0.0,0.0,0.0,0.0,0.0,0.0,0.0,0.0,0.0,0.0,0.0,0.0,0.0,0.0,0.0,0.0,0.0,0.0,0.0,0.0,0.0,0.0,0.0,0.0,0.0,0.0,0.0,0.0,0.0,0.0,0.0,0.0,0.0,0.0,0.0,0.0,0.0,0.0,0.0,0.0,0.0,0.0,0.0,0.0,0.0,0.0,0.0,0.0,0.0,0.0,1.144,1.2515,1.3458,1.4057,1.4305,1.4191,1.3301,1.2198,1.0935,0.0,0.0,0.0,0.0,0.0,0.0,0.0,0.0,0.0,0.0,0.0,0.0,0.0,0.0,0.0,0.0,0.0,0.0,0.0,0.0,0.0,0.0,0.0,0.0,0.0,0.0,0.0,0.0,0.0,0.0,0.0,0.0,0.0,0.0,0.0,0.0,0.0,0.0,0.7955,0.9298,0.0,0.0,0.0,0.0,0.0,0.0,0.0,0.0,1.0962,0.0,0.0,0.0,0.0,0.0,0.0,0.0,0.0,0.0,0.0,0.0,0.0,0.0,0.0,0.0,0.0,0.0,0.0,0.0,0.0,0.0,0.0,0.0,0.0,0.0,0.0,0.0,0.0,0.0,0.0,0.0,0.0,0.0,0.0,0.0,0.0,0.0,0.0,0.0,0.0,0.0,0.0,0.0,0.0,0.0,0.0,0.0,0.0,0.0,0.0,0.0,0.0,0.0,0.0,0.0,0.0,1.0503,1.1634,1.285,1.4064,1.4148,1.4267,1.4439,1.3422,1.2238,1.0997,0.0,0.0,0.0,0.0,0.0,0.0,0.0,0.0,0.0,0.0,0.0,0.0,0.0,0.0,0.0,0.0,0.0,0.0,0.0,0.0,0.0,0.0,0.0,0.0,0.0,0.0,0.0,0.0,0.0,0.0,0.0,0.0,0.0,0.0,0.0,0.0,0.0,0.0,0.0,1.0778,1.1547,0.0,0.0,0.0,0.0,0.0,0.0,0.0,0.0,1.1345,0.0,0.0,0.0,0.0,0.0,0.0,0.0,0.0,0.0,0.0,0.0,0.0,0.0,0.0,0.0,0.0,0.0,0.0,0.0,0.0,0.0,0.0,0.0,0.0,0.0,0.0,0.0,0.0,0.0,0.0,0.0,0.0,0.0,0.0,0.0,0.0,0.0,0.0,0.0,0.0,0.0,0.0,0.0,0.0,0.0,0.0,0.0,0.0,0.0,0.0,0.0,0.0,0.0,0.0,0.0,1.0821,1.2169,1.3192,1.3954,1.4037,1.405,1.3938,1.2805,1.166,0.0,0.0,0.0,0.0,0.0,0.0,0.0,0.0,0.0,0.0,0.0,0.0,0.0,0.0,0.0,0.0,0.0,0.0,0.0,0.0,0.0,0.0,0.0,0.0,0.0,0.0,0.0,0.0,0.0,0.0,0.0,0.0,0.0,0.0,0.0,0.0,0.0,0.0,0.0,0.0,1.1378,1.2072,1.2003,0.0,0.0,0.0,0.0,0.0,0.0,1.1978,1.1895,0.0,0.0,0.0,0.0,0.0,0.0,0.0,0.0,0.0,0.0,0.0,0.0,0.0,0.0,0.0,0.0,0.0,0.0,0.0,0.0,0.0,0.0,0.0,0.0,0.0,0.0,0.0,0.0,0.0,0.0,0.0,0.0,0.0,0.0,0.0,0.0,0.0,0.0,0.0,0.0,0.0,0.0,0.0,0.0,0.0,0.0,0.0,0.0,0.0,0.0,0.0,0.0,0.0,0.0,0.0,1.1144,1.25,1.3393,1.3734,1.3873,1.3769,1.3279,1.2131,1.1005,0.0,0.0,0.0,0.0,0.0,0.0,0.0,0.0,0.0,0.0,0.0,0.0,0.0,0.0,0.0,0.0,0.0,0.0,0.0,0.0,0.0,0.0,0.0,0.0,0.0,0.0,0.0,0.0,0.0,0.0,0.0,0.0,0.0,0.0,0.0,0.0,0.0,0.0,0.0,0.0,0.0,1.2351,1.2697,1.2547,0.0,0.0,0.0,0.0,1.263,1.2547,0.0,0.0,0.0,0.0,0.0,0.0,0.0,0.0,0.0,0.0,0.0,0.0,0.0,0.0,0.0,0.0,0.0,0.0,0.0,0.0,0.0,0.0,0.0,0.0,0.0,0.0,0.0,0.0,0.0,0.0,0.0,0.0,0.0,0.0,0.0,0.0,0.0,0.0,0.0,0.0,0.0,0.0,0.0,0.0,0.0,0.0,0.0,0.0,0.0,0.0,0.0,0.0,0.0,0.0,0.0,0.0,1.1151,1.2426,1.3394,1.4036,1.3696,1.3396,1.3192,1.188,1.0751,0.0,0.0,0.0,0.0,0.0,0.0,0.0,0.0,0.0,0.0,0.0,0.0,0.0,0.0,0.0,0.0,0.0,0.0,0.0,0.0,0.0,0.0,0.0,0.0,0.0,0.0,0.0,0.0,0.0,0.0,0.0,0.0,0.0,0.0,0.0,0.0,0.0,0.0,0.0,0.0,0.0,1.2565,1.3129,1.3046,1.28,0.0,0.0,1.2704,1.2793,1.2882,0.0,0.0,0.0,0.0,0.0,0.0,0.0,0.0,0.0,0.0,0.0,0.0,0.0,0.0,0.0,0.0,0.0,0.0,0.0,0.0,0.0,0.0,0.0,0.0,0.0,0.0,0.0,0.0,0.0,0.0,0.0,0.0,0.0,0.0,0.0,0.0,0.0,0.0,0.0,0.0,0.0,0.0,0.0,0.0,0.0,0.0,0.0,0.0,0.0,0.0,0.0,0.0,0.0,0.0,0.0,0.9984,1.1484,1.2719,1.3587,1.3867,1.3588,1.3196,1.2724,1.1247,1.0023,0.0,0.0,0.0,0.0,0.0,0.0,0.0,0.0,0.0,0.0,0.0,0.0,0.0,0.0,0.0,0.0,0.0,0.0,0.0,0.0,0.0,0.0,0.0,0.0,0.0,0.0,0.0,0.0,0.0,0.0,0.0,0.0,0.0,0.0,0.0,0.0,0.0,0.0,0.0,0.0,0.0,0.0,1.3485,1.3583,0.0,0.0,0.0,1.3413,1.3739,0.0,0.0,0.0,0.0,0.0,0.0,0.0,0.0,0.0,0.0,0.0,0.0,0.0,0.0,0.0,0.0,0.0,0.0,0.0,0.0,0.0,0.0,0.0,0.0,0.0,0.0,0.0,0.0,0.0,0.0,0.0,0.0,0.0,0.0,0.0,0.0,0.0,0.0,0.0,0.0,0.0,0.0,0.0,0.0,0.0,0.0,0.0,0.0,0.0,0.0,0.0,0.0,0.0,0.0,0.0,0.0,0.0,1.1646,1.2907,1.3529,1.3512,1.3297,1.2791,1.2012,1.0586,0.0,0.0,0.0,0.0,0.0,0.0,0.0,0.0,0.0,0.0,0.0,0.0,0.0,0.0,0.0,0.0,0.0,0.0,0.0,0.0,0.0,0.0,0.0,0.0,0.0,0.0,0.0,0.5025,0.0,0.0,0.0,0.0,0.0,0.0,0.0,0.0,0.0,0.0,0.0,0.0,0.0,0.0,1.2508,1.3515,1.3745,1.3923,0.0,0.0,1.3892,1.4419,1.4055,1.3589,0.0,0.0,0.0,0.0,0.0,0.0,0.0,0.0,0.0,0.0,0.0,0.0,0.0,0.0,0.0,0.0,0.0,0.0,0.0,0.0,0.0,0.0,0.0,0.0,0.0,0.0,0.0,0.0,0.0,0.0,0.0,0.0,0.0,0.0,0.0,0.0,0.0,0.0,0.0,0.0,0.0,0.0,0.0,0.0,0.0,0.0,0.0,0.0,0.0,0.0,0.0,0.0,0.0,0.0,0.0,1.1556,1.2611,1.3099,1.2996,1.2644,1.2038,1.1134,0.9857,0.8933,0.0,0.0,0.0,0.0,0.0,0.0,0.0,0.0,0.0,0.0,0.0,0.0,0.0,0.0,0.0,0.0,0.0,0.0,0.0,0.0,0.0,0.0,0.0,0.0,0.0,0.0,0.0,0.0,0.0,0.0,0.0,0.0,0.0,0.0,0.0,0.0,0.0,0.0,0.0,0.0,0.0,1.1598,1.296,1.3243,1.3559,0.0,1.4076,1.4091,1.4274,1.405,1.3606,1.3235,0.0,0.0,0.0,0.0,0.0,0.0,0.0,0.0,0.0,0.0,0.0,0.0,0.0,0.0,0.0,0.0,0.0,0.0,0.0,0.0,0.0,0.0,0.0,0.0,0.0,0.0,0.0,0.0,0.0,0.0,0.0,0.0,0.0,0.0,0.0,0.0,0.0,0.0,0.0,0.0,0.0,0.0,0.0,0.0,0.0,0.0,0.0,0.0,0.0,0.0,0.0,0.0,0.0,0.9888,1.1703,1.2227,1.2503,1.2441,1.2137,1.1534,1.0573,0.9704,0.881,0.0,0.0,0.0,0.0,0.0,0.0,0.0,0.0,0.0,0.0,0.0,0.0,0.0,0.0,0.0,0.0,0.0,0.0,0.0,0.0,0.0,0.0,0.0,0.0,0.0,0.0,0.0,0.0,0.6033,0.6252,0.6152,0.0,0.0,0.0,0.0,0.0,0.0,0.0,0.0,0.0,0.0,1.1753,1.2762,1.3295,0.0,0.0,1.3751,1.3693,1.4116,1.3785,1.3368,1.3263,1.2409,0.0,0.0,0.0,0.0,0.0,0.0,0.0,0.0,0.0,0.0,0.0,0.0,0.0,0.0,0.0,0.0,0.0,0.0,0.0,0.0,0.0,0.0,0.0,0.0,0.0,0.0,0.0,0.0,0.0,0.0,0.0,0.0,0.0,0.0,0.0,0.0,0.0,0.0,0.0,0.0,0.0,0.0,0.0,0.0,0.0,0.0,0.0,0.0,0.0,0.0,0.0,0.0,0.9861,1.1633,1.1775,1.193,1.2069,1.1582,1.0969,1.0259,0.9577,0.8714,0.0,0.0,0.0,0.0,0.0,0.0,0.0,0.0,0.0,0.0,0.0,0.0,0.0,0.0,0.0,0.0,0.0,0.0,0.0,0.0,0.0,0.0,0.0,0.0,0.0,0.0,0.0,0.0,0.6188,0.6363,0.6009,0.0,0.0,0.0,0.0,0.0,0.0,0.0,0.0,0.0,0.0,1.18,1.2444,1.3036,1.3444,1.3532,1.3294,1.3326,1.3782,1.3374,1.302,1.306,0.0,0.0,0.0,0.0,0.0,0.0,0.0,0.0,0.0,0.0,0.0,0.0,0.0,0.0,0.0,0.0,0.0,0.0,0.0,0.0,0.0,0.0,0.0,0.0,0.0,0.0,0.0,0.7452,0.0,0.0,0.6665,0.0,0.0,0.0,0.0,0.0,0.0,0.0,0.0,0.0,0.0,0.0,0.0,0.0,0.0,0.0,0.0,0.0,0.0,0.0,0.0,0.0,0.0,0.9971,1.1396,1.1316,1.1484,1.1632,1.0977,1.0444,0.9971,0.9394,0.8703,0.7986,0.0,0.0,0.0,0.0,0.0,0.0,0.0,0.0,0.0,0.0,0.0,0.0,0.0,0.0,0.0,0.0,0.0,0.0,0.0,0.0,0.0,0.0,0.0,0.0,0.0,0.0,0.6311,0.623,0.6123,0.0,0.0,0.0,0.0,0.0,0.0,0.0,0.0,0.0,0.9375,1.0642,1.1598,1.199,1.2434,1.292,1.3173,1.2952,1.285,1.3101,1.2844,1.2576,0.0,0.0,0.0,0.0,0.0,0.0,0.0,0.0,0.0,0.0,0.0,0.0,0.0,0.0,0.0,0.0,0.0,0.0,0.0,0.0,0.0,0.0,0.0,0.0,0.0,0.0,0.0,0.9421,0.9186,0.0,0.0,0.0,0.0,0.0,0.0,0.0,0.0,0.0,0.0,0.0,1.5118,1.5216,0.0,0.0,0.0,0.0,0.0,0.0,0.0,0.0,0.0,0.0,0.0,0.0,0.9512,1.1013,1.0825,1.0858,1.1214,1.0722,1.0196,0.9733,0.937,0.8703,0.7736,0.0,0.0,0.0,0.0,0.0,0.0,0.0,0.0,0.0,0.0,0.0,0.0,0.0,0.0,0.0,0.0,0.0,0.0,0.0,0.0,0.0,0.0,0.0,0.0,0.0,0.6015,0.0,0.0,0.0,0.0,0.0,0.0,0.0,0.0,0.0,0.0,0.0,0.926,1.0135,1.0948,1.1643,1.1927,1.2292,1.2481,0.0,0.0,0.0,0.0,0.0,0.0,0.0,0.0,0.0,0.0,0.0,0.0,0.0,0.0,1.1955,1.1112,1.0927,1.0998,1.1392,0.0,0.0,0.0,0.0,0.0,0.0,0.0,0.0,0.0,0.0,0.0,0.0,0.0,0.0,1.1312,0.0,1.0306,0.0,0.0,0.0,0.0,0.0,0.0,0.0,0.0,1.4866,1.5725,1.6627,1.6719,1.6373,0.0,1.5251,1.3933,0.0,0.0,0.0,0.0,0.0,0.0,0.0,0.0,0.9322,1.0527,1.0423,1.0458,1.0692,1.0381,1.0058,0.9752,0.9403,0.8732,0.7774,0.7221,0.6562,0.0,0.0,0.0,0.0,0.0,0.0,0.0,0.0,0.0,0.0,0.0,0.0,0.0,0.0,0.0,0.0,0.0,0.0,0.0,0.0,0.0,0.0,0.0,0.6355,0.0,0.0,0.0,0.0,0.0,0.0,0.0,0.0,0.0,0.8587,0.9113,0.9738,1.0589,1.1153,1.1525,1.1769,0.0,0.0,0.0,0.0,0.0,0.0,0.0,1.198,1.2043,1.2569,1.3048,1.3378,1.3769,1.398,1.3725,0.0,0.0,1.2148,1.1884,1.2029,1.252,1.2684,1.2999,1.3539,1.3705,1.3879,0.0,0.0,0.0,0.0,0.0,0.0,0.0,0.0,1.3166,1.3107,0.0,1.2019,0.0,0.0,0.0,0.0,1.1581,1.1967,0.0,0.0,1.58,1.6563,1.7316,1.7712,1.7454,1.6762,1.618,1.5432,1.4424,1.233,0.0,0.0,0.0,0.0,0.0,0.0,0.9492,0.9885,1.0137,1.0206,1.0274,1.0125,1.0033,0.9923,0.9356,0.8746,0.8122,0.7721,0.7283,0.6759,0.5834,0.0,0.0,0.0,0.0,0.0,0.0,0.0,0.0,0.0,0.0,0.0,0.0,0.0,0.0,0.0,0.0,0.0,0.0,0.0,0.0,0.6409,0.0,0.0,0.0,0.0,0.0,0.0,0.0,0.0,0.0,0.0,0.9148,0.973,1.0285,1.0723,0.0,0.0,0.0,0.0,1.1091,1.1227,1.1082,1.1014,1.1499,1.1789,1.1986,1.2261,0.0,0.0,1.4327,1.4566,1.465,1.4469,1.4288,1.3945,1.3121,1.2968,1.3101,1.3532,1.3632,1.3933,1.475,1.4911,1.5072,1.7403,0.0,0.0,0.0,0.0,1.4538,1.4803,1.4849,1.5213,1.5014,1.4361,1.4097,0.0,0.0,0.0,0.0,0.0,0.0,1.5234,1.6538,1.6884,1.7488,1.8085,1.7879,1.7581,1.7228,1.6782,1.6174,1.5418,1.4057,1.2416,1.0674,0.0,0.0,0.0,0.0,0.9856,1.0133,1.0207,1.0273,1.0289,1.012,0.988,0.9738,0.9412,0.9015,0.8538,0.8278,0.7844,0.7283,0.6686,0.0,0.0,0.0,0.0,0.0,0.0,0.0,0.0,0.0,0.0,0.0,0.0,0.0,0.0,0.0,0.0,0.0,0.0,0.0,0.6452,0.6608,0.6673,0.0,0.0,0.0,0.0,0.0,0.0,0.0,0.0,0.0,0.932,0.9674,1.0058,0.0,0.0,1.0738,1.0875,1.0705,1.0591,1.0466,1.0337,0.0,1.0959,1.1404,1.1878,1.251,1.3601,1.4443,1.4802,1.5237,1.5524,1.5224,1.5127,1.4917,1.4536,1.408,1.4059,1.4475,1.4715,1.4916,1.5352,1.5456,1.5561,1.9402,1.7502,1.692,1.6413,1.6076,1.6561,1.6733,1.6669,1.6798,1.6573,1.595,1.5518,1.4898,1.4175,1.3902,0.0,0.0,0.0,1.6008,1.6895,1.7257,1.7589,1.8057,1.7943,1.7575,1.7147,1.687,1.6425,1.5649,1.475,1.3646,1.2328,0.0,0.0,0.9866,1.0073,1.009,1.0089,1.0218,1.0249,1.0202,0.9951,0.977,0.9484,0.9188,0.893,0.8604,0.8481,0.8161,0.7784,0.7297,0.6695,0.0,0.0,0.0,0.0,0.0,0.0,0.0,0.0,0.0,0.0,0.0,0.5154,0.5776,0.0,0.0,0.0,0.651,0.6656,0.7007,0.7084,0.0,0.0,0.0,0.0,0.0,0.0,0.0,0.8279,0.8475,0.8693,0.8956,0.907,0.9329,1.0056,1.0093,1.0035,1.0077,0.0,0.9708,0.9661,0.9686,0.9947,1.043,1.1053,1.1717,1.2736,1.3696,1.4503,1.4844,1.5421,1.5621,1.5518,1.5615,1.5615,1.5415,1.5117,1.4949,1.5114,1.5303,1.5498,1.5687,1.5778,1.5784,2.0651,1.9716,1.8815,1.8337,1.8201,1.8369,1.8332,1.834,1.806,1.7784,1.7332,1.6537,1.5922,1.5589,1.5215,0.0,1.5619,1.5627,1.603,1.65,1.6959,1.7241,1.7515,1.7825,1.7517,1.6733,1.6733,1.6211,1.5197,1.4635,1.4232,1.383,1.2382,1.1205,1.0448,1.0541,1.0428,0.9983,1.0203,1.0233,0.997,0.9699,0.9425,0.923,0.8783,0.8504,0.8308,0.8353,0.8245,0.813,0.7706,0.7234,0.6624,0.0,0.0,0.0,0.0,0.0,0.0,0.0,0.0,0.0,0.0,0.0,0.0,0.0,0.0,0.0,0.7648,0.0,0.7668,0.7688,0.0,0.0,0.0,0.6989,0.7225,0.7379,0.7721,0.8311,0.0,0.0,0.8359,0.8137,0.8372,0.9374,0.9345,0.921,0.9095,0.8844,0.875,0.8827,0.9086,0.9351,0.9792,1.0681,1.1694,1.2815,1.3525,1.3916,1.4415,1.4905,1.525,1.5446,1.5571,1.5767,1.5885,1.5819,1.584,1.554,1.5562,1.5555,1.5872,1.5872,1.5866,2.0941,2.038,1.9683,1.9128,1.8722,1.9059,1.892,1.8542,1.8453,1.8155,1.7638,1.7397,1.7154,1.6769,1.6404,1.6314,1.6399,1.6522,1.6605,1.6697,1.6994,1.7079,1.7079,1.705,1.6724,1.6347,1.6142,1.5797,1.533,1.4679,1.427,1.4153,1.3215,1.2298,1.1609,1.1663,1.1327,1.0747,1.0781,1.0381,0.9741,0.9248,0.8814,0.8284,0.8113,0.7853,0.7752,0.7733,0.7846,0.8103,0.7834,0.7595,0.7272,0.6417,0.0,0.0,0.0,0.0,0.0,0.0,0.0,0.0,0.0,0.6117,0.7104,0.0,0.7362,0.0,0.8091,0.808,0.8057,0.772,0.0,0.0,0.7249,0.7239,0.7793,0.7605,0.7628,0.8095,0.8073,0.7959,0.7862,0.7821,0.7877,0.8051,0.8275,0.8456,0.8497,0.8319,0.824,0.8206,0.8226,0.8479,0.9044,1.0254,1.1324,1.1923,1.2582,1.3254,1.3516,1.3846,1.4272,1.4713,1.4821,1.5035,1.5476,1.5583,1.5654,1.5728,1.5804,1.581,1.5909,1.5903,1.5909,2.0696,2.0138,1.9854,1.936,1.8862,1.9063,1.9026,1.8615,1.8268,1.7896,1.7619,1.7295,1.7141,1.6898,1.6787,1.6691,1.6704,1.6569,1.6545,1.6558,1.6527,1.6506,1.6513,1.6406,1.6121,1.5866,1.5761,1.548,1.5029,1.4588,1.4172,1.3968,1.3425,1.2702,1.2075,1.1892,1.1398,1.0582,1.0054,0.9557,0.9083,0.848,0.8045,0.7684,0.7297,0.7012,0.6999,0.6999,0.717,0.7463,0.7553,0.7532,0.7349,0.6801,0.6122,0.0,0.0,0.0,0.0,0.0,0.0,0.0,0.0,0.0,0.0,0.0,0.7761,0.8451,0.8533,0.8467,0.8311,0.8038,0.7728,0.7641,0.7311,0.7375,0.7723,0.7557,0.7508,0.7862,0.7717,0.7588,0.7586,0.741,0.7461,0.7376,0.7544,0.7712,0.7937,0.784,0.7751,0.7699,0.7714,0.8059,0.8679,0.9523,1.0355,1.0907,1.1568,1.2223,1.2441,1.298,1.3521,1.3743,1.4062,1.4385,1.4821,1.5148,1.5369,1.569,1.5785,1.5891,1.5885,1.5885,1.5885,1.9931,1.9491,1.9456,1.9119,1.8644,1.8545,1.8633,1.8611,1.7922,1.7482,1.7427,1.6832,1.6605,1.6605,1.6605,1.6504,1.6504,1.6309,1.6119,1.6119,1.6011,1.5916,1.5815,1.5815,1.5688,1.534,1.534,1.5023,1.4581,1.4265,1.3857,1.3441,1.3111,1.251,1.1903,1.1502,1.0827,0.9992,0.8882,0.8333,0.8303,0.7654,0.7211,0.7055,0.6508,0.6207,0.616,0.6275,0.641,0.661,0.6999,0.7234,0.7211,0.6966,0.6627,0.0,0.6086,0.0,0.0,0.0,0.0,0.0,0.0,0.0,0.0,0.7822,0.8076,0.8672,0.8793,0.8719,0.8519,0.8193,0.7789,0.749,0.7322,0.7377,0.7429,0.7372,0.7389,0.7589,0.7398,0.7206,0.7305,0.7114,0.7046,0.7232,0.7241,0.7312,0.7351,0.7437,0.7362,0.7254,0.7382,0.7796,0.8579,0.8809,0.9254,1.0033,1.0582,1.1017,1.135,1.2005,1.2555,1.2767,1.3083,1.3511,1.3954,1.4493,1.4934,1.5261,1.5577,1.5785,1.5885,1.5885,1.5885,1.8791,1.8207,1.8,1.7798,1.768,1.7572,1.7741,1.818,1.8011,1.7649,1.7206,1.6804,1.6676,1.6676,1.6478,1.6373,1.638,1.6057,1.5952,1.5952,1.5952,1.5747,1.5547,1.5547,1.5217,1.4492,1.4486,1.4177,1.3674,1.3319,1.3088,1.2981,1.2249,1.1635,1.1225,0.0,0.0,0.0,0.8475,0.8044,0.7729,0.7279,0.6669,0.6008,0.5838,0.0,0.5485,0.5626,0.5838,0.6201,0.6436,0.0,0.0,0.0,0.0,0.0,0.0,0.0,0.0,0.0,0.0,0.0,0.7941,0.8132,0.8413,0.8901,0.9202,0.9322,0.8985,0.8595,0.8239,0.7756,0.7397,0.7498,0.722,0.7054,0.7467,0.7237,0.713,0.7449,0.7339,0.7202,0.7221,0.7232,0.713,0.7149,0.7154,0.7257,0.7235,0.723,0.7241,0.7263,0.7268,0.749,0.8045,0.8374,0.8819,0.9375,0.9816,1.015,1.0492,1.0708,1.1139,1.1691,1.1891,1.2337,1.3212,1.3738,1.4088,1.4611,1.516,1.569,1.5897,1.5891,1.5885,1.7949,1.7243,1.7238,1.696,0.0,1.6615,1.6724,1.6821,1.7022,1.6721,1.6151,1.5893,1.5828,1.5719,1.5493,1.5441,1.5435,1.52,1.503,1.503,1.503,1.503,1.4821,1.4708,1.4432,1.3992,1.3768,1.3614,1.3187,1.2755,1.2273,1.185,1.1133,1.0523,0.9899,0.8823,0.8303,0.8226,0.7687,0.7388,0.7117,0.6673,0.6177,0.5728,0.5541,0.0,0.0,0.0,0.0,0.0,0.0,0.0,0.0,0.0,0.0,0.7777,0.7862,0.7877,0.7792,0.8066,0.8373,0.867,0.9086,0.9148,0.8808,0.9206,0.9402,0.9148,0.8706,0.8371,0.8048,0.7505,0.7265,0.7394,0.709,0.6976,0.7203,0.7214,0.7177,0.729,0.723,0.7154,0.7154,0.7154,0.7154,0.716,0.7209,0.7244,0.7239,0.7192,0.7154,0.7154,0.7154,0.7376,0.7934,0.8156,0.852,0.9126,0.9485,0.9745,1.004,1.0168,1.0502,1.0956,1.1177,1.1625,1.2297,1.2961,1.3522,1.4188,1.4746,1.5192,1.5505,1.5754,1.5885,1.6879,1.6059,1.6414,1.6059,1.5359,1.5704,1.5585,1.5327,1.5708,0.0,0.0,1.4783,1.4648,1.4632,1.4452,1.4367,1.4357,1.416,1.4076,1.4174,1.4136,1.412,1.4007,1.364,1.3516,1.3295,1.3078,1.2866,1.2545,1.1935,1.1318,1.0659,0.9969,0.9347,0.8469,0.7714,0.7385,0.7369,0.6944,0.6675,0.6646,0.6073,0.5806,0.5765,0.5453,0.523,0.5113,0.5123,0.5144,0.5194,0.5679,0.6186,0.6872,0.7451,0.7921,0.8257,0.8623,0.876,0.8637,0.8973,0.9289,0.953,0.9972,0.9953,0.9034,0.9319,0.9192,0.8674,0.8273,0.8011,0.7785,0.7409,0.71,0.7123,0.7031,0.6989,0.7018,0.7095,0.7149,0.7154,0.7154,0.7165,0.719,0.7192,0.7198,0.723,0.7312,0.7366,0.7355,0.7296,0.7241,0.7241,0.7365,0.7567,0.7897,0.8133,0.8386,0.9174,0.9418,0.9578,0.9683,0.9957,1.0185,1.0275,1.0647,1.0978,1.1442,1.2113,1.2946,1.3526,1.4086,1.4654,1.4966,1.5348,1.5628,1.4992,1.4162,1.451,1.4505,1.4396,1.4748,1.451,1.4004,1.46,1.4719,1.4356,1.4038,1.3952,1.3952,1.3917,1.3906,1.3906,1.3876,1.3861,1.3846,1.3785,1.3472,1.3236,1.3068,1.2659,1.1891,1.1896,1.1568,1.1017,1.0445,0.9998,0.9866,0.897,0.8188,0.7425,0.7202,0.6924,0.6691,0.6575,0.6366,0.6368,0.6219,0.6092,0.5885,0.5735,0.56,0.5395,0.5257,0.5209,0.5187,0.5404,0.5935,0.6756,0.7348,0.8049,0.8818,0.9048,0.9304,0.946,0.9691,0.9989,1.0362,1.0464,1.0147,0.9468,0.933,0.9052,0.8416,0.7862,0.7418,0.7354,0.7058,0.6904,0.7042,0.6975,0.7021,0.7111,0.7141,0.7154,0.7154,0.7154,0.7201,0.7282,0.7307,0.7347,0.7437,0.747,0.7494,0.75,0.7481,0.747,0.7467,0.7699,0.8043,0.8244,0.8618,0.8849,0.9344,0.9347,0.9476,0.9525,0.9535,0.9651,0.9852,0.999,1.0327,1.0786,1.1335,1.1944,1.2418,1.3107,1.367,1.4028,1.438,1.4874,1.3794,1.296,1.3195,1.3075,1.2595,1.259,1.2225,1.1856,1.238,1.2821,1.3049,1.284,1.2678,1.2669,1.257,1.2521,1.2516,1.2409,1.2355,1.2351,1.227,1.223,1.1994,1.1803,1.1492,1.0958,1.0838,1.0457,1.0044,0.9482,0.9151,0.8816,0.8094,0.7454,0.7119,0.706,0.6857,0.6619,0.6497,0.6412,0.6361,0.6301,0.6214,0.6102,0.5986,0.5866,0.5744,0.5572,0.5453,0.5388,0.5519,0.5994,0.6781,0.7465,0.8268,0.9216,0.9593,0.987,1.0145,1.0343,1.0546,1.0552,1.0464,1.0065,0.9304,0.9151,0.8777,0.7951,0.747,0.729,0.7099,0.7009,0.6948,0.7067,0.7078,0.71,0.7143,0.7154,0.7154,0.7163,0.7214,0.7274,0.7328,0.7394,0.7448,0.7516,0.7568,0.7633,0.7695,0.7706,0.766,0.7548,0.7749,0.8096,0.8329,0.8678,0.9065,0.9486,0.9507,0.9537,0.9595,0.9618,0.9612,0.9737,0.9972,1.0209,1.0439,1.0802,1.1276,1.1626,1.2216,1.2809,1.3161,1.3742,1.4472,1.259,1.1752,1.1997,1.1631,1.091,1.0668,1.0304,1.0061,1.0304,1.0785,1.139,1.1514,1.1511,1.1499,1.1371,1.1316,1.1296,1.1055,1.0988,1.0984,1.0949,1.0929,1.0929,1.0667,1.0352,1.0239,0.9858,0.955,0.9102,0.8725,0.8374,0.7823,0.7376,0.7111,0.7027,0.6997,0.6891,0.6706,0.6581,0.6494,0.6437,0.635,0.6306,0.6298,0.6187,0.6081,0.5986,0.5874,0.5768,0.5676,0.5757,0.6094,0.6886,0.7446,0.8196,0.9142,0.9653,1.0041,1.037,1.0649,1.0697,1.0453,1.0293,0.9754,0.9002,0.8752,0.836,0.7544,0.7209,0.7105,0.7105,0.7024,0.7059,0.7143,0.7154,0.7152,0.7157,0.7176,0.7195,0.7206,0.7301,0.7385,0.7426,0.75,0.7573,0.7616,0.7682,0.7774,0.7853,0.7872,0.7782,0.7784,0.7951,0.8319,0.8537,0.8902,0.9189,0.9646,0.9656,0.9693,0.9771,0.9808,0.9815,0.9798,0.9926,1.0155,1.0172,1.0415,1.0767,1.0993,1.1467,1.1968,1.232,1.2924,1.3936,1.0906,1.0061,1.0061,1.0061,0.9943,0.9579,0.9335,0.9335,0.9217,0.9098,0.9339,1.0425,1.091,1.091,1.0891,1.088,1.0876,1.0872,1.0853,1.0831,1.0595,1.0528,1.0517,1.0029,0.9715,0.9456,0.9003,0.8717,0.8341,0.7888,0.7604,0.7268,0.7265,0.7149,0.7127,0.7037,0.6972,0.695,0.6831,0.666,0.645,0.6429,0.6418,0.642,0.6309,0.6249,0.6225,0.6119,0.6048,0.6037,0.6015,0.6298,0.6777,0.7256,0.7733,0.8314,0.8808,0.9345,0.9793,1.0179,1.0358,1.0213,0.9742,0.9222,0.8549,0.8152,0.78,0.7373,0.7172,0.7125,0.7119,0.7135,0.7135,0.7146,0.7154,0.7154,0.7173,0.7255,0.732,0.732,0.7426,0.754,0.7622,0.7668,0.7722,0.779,0.7812,0.7839,0.7864,0.7872,0.7867,0.7955,0.832,0.8799,0.8914,0.9297,0.9637,0.9785,0.9795,0.9802,0.9815,0.9819,0.9819,0.9819,0.9822,0.994,0.994,1.0065,1.0304,1.0425,1.0789,1.1027,1.139,1.1877,1.2671,0.9822,0.9217,0.9217,0.9092,0.8604,0.836,0.8119,0.7875,0.7997,0.8119,0.836,0.9089,0.9576,0.9943,1.0065,1.0183,1.0186,1.0186,1.0065,0.9937,0.9878,0.9734,0.9486,0.9437,0.9126,0.8921,0.8743,0.8442,0.8011,0.7664,0.734,0.7274,0.7154,0.7154,0.7152,0.7108,0.7054,0.6986,0.6937,0.6825,0.6668,0.6581,0.6507,0.6439,0.6391,0.6366,0.6355,0.6257,0.6195,0.6189,0.6127,0.6306,0.6762,0.7047,0.7468,0.8035,0.8531,0.9088,0.9454,0.9538,0.9552,0.9622,0.9113,0.8553,0.8062,0.7705,0.744,0.729,0.7196,0.7105,0.7149,0.7154,0.7154,0.7154,0.7154,0.7182,0.7258,0.7307,0.7358,0.7434,0.7314,0.7398,0.7454,0.752,0.7575,0.7625,0.775,0.7872,0.7872,0.7872,0.7872,0.7994,0.8485,0.8854,0.8976,0.946,0.97,0.9819,0.9819,0.9819,0.9819,0.9819,0.9819,0.9819,0.9819,0.9819,0.9819,0.9822,1.0061,1.0061,1.0304,1.0668,1.091,1.1152,1.1631,0.8607,0.8241,0.8119,0.7747,0.738,0.7016,0.665,0.653,0.6773,0.7016,0.7258,0.7625,0.8113,0.8601,0.9214,0.9579,0.9579,0.9457,0.9332,0.9092,0.897,0.8726,0.8482,0.836,0.8193,0.7987,0.7823,0.7627,0.7513,0.7281,0.7177,0.7099,0.7171,0.7154,0.7154,0.7154,0.7114,0.704,0.7032,0.6972,0.6855,0.6766,0.6643,0.6505,0.6486,0.6469,0.6434,0.6358,0.6314,0.6314,0.6227,0.6316,0.6597,0.6893,0.7236,0.7726,0.8275,0.8639,0.8962,0.8911,0.8906,0.8839,0.8543,0.8072,0.7756,0.7463,0.7284,0.7246,0.7154,0.7152,0.7154,0.7154,0.7165,0.7195,0.7203,0.7255,0.7369,0.741,0.7475,0.7562,0.7433,0.7143,0.7153,0.7213,0.7263,0.7263,0.7385,0.7505,0.7627,0.7505,0.7503,0.775,0.8363,0.8732,0.8854,0.946,0.97,0.9819,0.9819,0.9819,0.9819,0.9819,0.9819,0.9819,0.9819,0.9819,0.9819,0.9822,0.9822,0.9822,1.0061,1.0304,1.0425,1.0547,1.0547,0.7141,0.6526,0.6156,0.6031,0.5906,0.5665,0.5544,0.5421,0.5544,0.5544,0.5665,0.6158,0.6526,0.6648,0.8116,0.8854,0.8851,0.8601,0.8355,0.8355,0.8116,0.7744,0.7495,0.7133,0.6764,0.6499,0.6185,0.61,0.612,0.6601,0.6767,0.6868,0.6995,0.716,0.7154,0.7154,0.7152,0.7135,0.7135,0.7089,0.6991,0.697,0.685,0.6646,0.6611,0.6562,0.6464,0.6437,0.6431,0.6429,0.6412,0.6415,0.6426,0.6631,0.6939,0.7256,0.7664,0.784,0.7978,0.8193,0.8329,0.8239,0.805,0.7777,0.7561,0.7351,0.7254,0.7157,0.7171,0.7168,0.7179,0.7184,0.7217,0.7315,0.7326,0.7383,0.7497,0.7595,0.7676,0.7589,0.7422,0.7111,0.6884,0.6896,0.6775,0.6775,0.665,0.6648,0.6775,0.665,0.6893,0.7383,0.7994,0.8604,0.8851,0.946,0.97,0.9819,0.9819,0.9819,0.9819,0.9819,0.9819,0.9819,0.9819,0.9819,0.9819,0.9819,0.9819,0.9822,0.9822,0.994,1.0061,0.994,0.994,0.5912,0.5418,0.5295,0.5172,0.4928,0.4807,0.4684,0.4436,0.4436,0.4681,0.5049,0.5051,0.5298,0.579,0.6154,0.6766,0.7503,0.75,0.7255,0.6886,0.6641,0.6274,0.5782,0.5659,0.554,0.5412,0.5265,0.5331,0.5497,0.5694,0.5854,0.5979,0.6275,0.6336,0.6391,0.6712,0.6935,0.6935,0.7046,0.7135,0.7097,0.7092,0.7013,0.6861,0.6777,0.6714,0.6673,0.6597,0.6554,0.6554,0.648,0.6437,0.6445,0.6614,0.6655,0.687,0.6978,0.7293,0.7475,0.7532,0.7618,0.774,0.7535,0.7433,0.7368,0.7268,0.7184,0.7249,0.7269,0.7296,0.7353,0.732,0.7317,0.7426,0.7453,0.7502,0.7606,0.7679,0.7608,0.7435,0.6879,0.6283,0.5916,0.5794,0.5914,0.5665,0.5908,0.6033,0.6035,0.6158,0.6526,0.7136,0.7869,0.8482,0.8854,0.946,0.9819,0.9819,0.9819,0.9819,0.9819,0.9819,0.9819,0.9819,0.9819,0.9819,0.9819,0.9819,0.9819,0.9819,0.9819,0.9819,0.9819,0.9819,0.9819,0.4438,0.4312,0.4064,0.382,0.3575,0.3575,0.3328,0.308,0.3081,0.3328,0.3696,0.3697,0.3944,0.4189,0.4066,0.4432,0.5291,0.5786,0.5786,0.5418,0.5293,0.4925,0.4435,0.4312,0.4189,0.4064,0.4189,0.441,0.449,0.4828,0.4999,0.5137,0.5338,0.5506,0.5658,0.5978,0.6193,0.6388,0.6599,0.6821,0.7043,0.7046,0.7008,0.7043,0.6959,0.6874,0.6809,0.6719,0.6676,0.6668,0.6597,0.6554,0.6564,0.6632,0.6679,0.6692,0.6793,0.6893,0.7078,0.7016,0.6966,0.7152,0.7049,0.6935,0.7046,0.7078,0.7142,0.7207,0.738,0.7442,0.7527,0.7502,0.7489,0.7562,0.7578,0.7627,0.7739,0.7637,0.7309,0.6752,0.6156,0.5546,0.4931,0.5053,0.493,0.4805,0.4926,0.4926,0.5051,0.5174,0.5788,0.6399,0.7255,0.7869,0.8482,0.9092,0.9576,0.9697,0.9819,0.9819,0.9819,0.9819,0.9819,0.9819,0.9819,0.9819,0.9819,0.9819,0.9819,0.9819,0.9819,0.9819,0.9819,0.9819,0.9819,0.2961,0.296,0.222,0.2097,0.2097,0.1849,0.1603,0.1603,0.1603,0.1726,0.1972,0.1973,0.222,0.2096,0.222,0.2097,0.2589,0.3698,0.4313,0.4192,0.3943,0.3575,0.2961,0.296,0.2714,0.2219,0.2714,0.2959,0.3075,0.3767,0.4095,0.4317,0.4375,0.4662,0.4931,0.5038,0.5342,0.5626,0.5828,0.6044,0.6601,0.6712,0.6818,0.7143,0.713,0.7032,0.6831,0.6812,0.6804,0.6801,0.6787,0.6796,0.6774,0.6793,0.6804,0.682,0.6918,0.6872,0.6562,0.6646,0.6589,0.6495,0.6386,0.65,0.6748,0.6927,0.6995,0.7273,0.7467,0.757,0.7674,0.769,0.7687,0.7703,0.7701,0.7747,0.7828,0.7622,0.6891,0.5788,0.5297,0.5053,0.4561,0.4192,0.419,0.3944,0.3575,0.3329,0.382,0.3943,0.4189,0.5174,0.6399,0.7255,0.7991,0.8604,0.9211,0.9576,0.9697,0.9819,0.9819,0.9819,0.9819,0.9819,0.9819,0.9819,0.9819,0.9819,0.9819,0.9819,0.9819,0.9819,0.9819,0.9819,0.9819,0.1605,0.1605,0.1358,0.1358,0.1358,0.1234,0.1111,0.1111,0.1111,0.1234,0.148,0.1357,0.1481,0.1603,0.148,0.1358,0.1358,0.1851,0.2221,0.2342,0.2342,0.2097,0.1728,0.1605,0.1482,0.1358,0.1481,0.1727,0.1971,0.2208,0.2436,0.2652,0.3117,0.332,0.3503,0.4041,0.446,0.4669,0.4955,0.5373,0.5819,0.6265,0.6601,0.6824,0.7043,0.7114,0.7046,0.697,0.6931,0.6929,0.6847,0.6804,0.6817,0.6883,0.6926,0.694,0.6819,0.6772,0.6664,0.647,0.6383,0.6274,0.6274,0.6425,0.6819,0.6868,0.7075,0.7429,0.7627,0.7693,0.7788,0.7818,0.7812,0.7815,0.782,0.7823,0.7736,0.7138,0.6278,0.5172,0.4558,0.382,0.3329,0.2959,0.2835,0.2588,0.2343,0.2466,0.2589,0.3204,0.3697,0.4682,0.5663,0.6644,0.7136,0.7869,0.8601,0.9089,0.9335,0.9579,0.97,0.9697,0.9697,0.9819,0.9819,0.9819,0.9819,0.9819,0.9819,0.9819,0.9819,0.9819,0.9819,0.9819,0.9819,0.0865,0.0865,0.0741,0.0618,0.0618,0.0618,0.0618,0.0618,0.0618,0.0741,0.0864,0.0741,0.0741,0.0864,0.0741,0.0617,0.0618,0.0618,0.0741,0.0987,0.1233,0.1111,0.0865,0.0618,0.0618,0.0618,0.0741,0.0987,0.1111,0.1233,0.1473,0.1583,0.1946,0.2172,0.2259,0.2821,0.3261,0.3562,0.3865,0.4395,0.5156,0.5706,0.6151,0.6712,0.7043,0.7154,0.7149,0.7084,0.7048,0.7037,0.697,0.6937,0.6942,0.7008,0.7048,0.6845,0.6777,0.6599,0.6381,0.6156,0.6049,0.5944,0.5971,0.624,0.6541,0.6822,0.7087,0.7549,0.7741,0.7793,0.7853,0.7869,0.7872,0.7747,0.7867,0.775,0.7505,0.6648,0.5665,0.4681,0.3697,0.2958,0.2466,0.2219,0.1973,0.1726,0.1727,0.1851,0.2097,0.259,0.3206,0.3944,0.4805,0.5542,0.6278,0.7136,0.7991,0.8482,0.897,0.9217,0.9339,0.9457,0.9576,0.9697,0.9819,0.9819,0.9819,0.9819,0.9819,0.9819,0.9819,0.9819,0.9819,0.9819,0.9822,0.037,0.037,0.0123,0.0,0.0,0.0,0.0,0.0,0.0,0.0,0.0,0.0123,0.0,0.0,0.0,0.0,0.0,0.0,0.0,0.0,0.0617,0.0741,0.0494,0.0247,0.0,0.0,0.0371,0.0494,0.0494,0.0741,0.0988,0.0986,0.0985,0.1104,0.1331,0.1448,0.1898,0.2438,0.2651,0.3425,0.4611,0.5164,0.5714,0.6495,0.6932,0.7154,0.7152,0.7141,0.7143,0.7152,0.713,0.7119,0.7143,0.7152,0.7033,0.6811,0.6712,0.6379,0.5933,0.5822,0.5721,0.5518,0.5572,0.5747,0.6364,0.673,0.7077,0.7608,0.7804,0.7861,0.7869,0.7872,0.7627,0.7383,0.7505,0.7383,0.6898,0.5914,0.4928,0.4067,0.3082,0.2343,0.1973,0.185,0.1726,0.1727,0.1605,0.1605,0.1852,0.2098,0.2343,0.3082,0.4067,0.4559,0.5297,0.6156,0.7013,0.7383,0.7994,0.8607,0.8976,0.9214,0.9335,0.9579,0.97,0.97,0.9819,0.9819,0.9819,0.9819,0.9819,0.9819,0.97,0.97,0.9454,-0.074,-0.0987,-0.0864,-0.0741,-0.0741,-0.0741,-0.0741,-0.0741,-0.0494,-0.037,-0.037,-0.0124,0.0,0.0,0.0,0.0,0.0,0.0,0.0,0.0,0.0124,0.0247,0.0124,0.0,0.0,0.0,0.0,0.0124,0.0124,0.0,0.0,0.0247,0.0494,0.0616,0.0736,0.0971,0.1083,0.1428,0.1883,0.2322,0.2974,0.4221,0.4874,0.538,0.6381,0.6826,0.6824,0.7046,0.7154,0.7154,0.7154,0.7154,0.7154,0.7154,0.7046,0.6715,0.6495,0.627,0.5824,0.5605,0.552,0.5467,0.5506,0.5798,0.6648,0.6703,0.714,0.7683,0.7861,0.7872,0.7869,0.7627,0.7138,0.6523,0.6523,0.6526,0.6037,0.53,0.4315,0.3577,0.2466,0.1727,0.1357,0.1111,0.0987,0.0987,0.1111,0.1359,0.1729,0.1975,0.222,0.259,0.333,0.3822,0.4438,0.5298,0.5912,0.6285,0.7021,0.7875,0.8363,0.8851,0.9095,0.9339,0.9335,0.9457,0.97,0.9819,0.9819,0.97,0.97,0.97,0.9457,0.9339,0.9089,-0.1973,-0.2095,-0.1727,-0.1605,-0.1605,-0.1481,-0.1481,-0.1358,-0.1234,-0.1111,-0.1111,-0.0987,-0.0864,-0.0864,0.0,0.0,-0.0617,-0.0617,0.0,0.0,0.0,0.0,0.0,0.0,0.0,0.0,0.0,0.0,0.0,0.0,0.0,0.0,0.0124,0.0247,0.0247,0.049,0.0607,0.0724,0.1195,0.1653,0.2324,0.348,0.4368,0.4998,0.5994,0.6656,0.6837,0.7157,0.7154,0.7154,0.7154,0.7154,0.7154,0.7154,0.7046,0.6606,0.6383,0.6163,0.5723,0.5522,0.5457,0.5514,0.5565,0.5903,0.6478,0.6654,0.6962,0.749,0.7627,0.775,0.775,0.7258,0.6523,0.5786,0.5297,0.5053,0.5177,0.4559,0.3821,0.296,0.2098,0.1234,0.0864,0.0741,0.0741,0.0865,0.1235,0.1483,0.173,0.1851,0.2097,0.2468,0.2715,0.3207,0.3701,0.4561,0.5298,0.5671,0.6037,0.6896,0.7508,0.8238,0.8604,0.8726,0.8973,0.9217,0.9457,0.9579,0.9579,0.9457,0.9457,0.9335,0.9095,0.8848,0.848,-0.3202,-0.3324,-0.2959,-0.2713,-0.2713,-0.2343,-0.2343,-0.222,-0.2219,-0.2097,-0.2096,-0.2096,-0.1973,-0.2096,-0.1973,-0.1849,-0.1603,-0.1603,-0.1111,-0.0741,-0.0494,0.0,0.0,0.0,0.0,0.0,0.0,0.0,0.0,0.0,0.0,-0.0124,0.0,0.0,0.0,0.0,0.0123,0.0364,0.0727,0.1199,0.1894,0.2946,0.3743,0.4501,0.5752,0.663,0.7022,0.7217,0.7214,0.7201,0.7171,0.7157,0.7154,0.7154,0.6839,0.641,0.6305,0.5971,0.5537,0.5492,0.5533,0.5573,0.5698,0.5906,0.629,0.6472,0.6759,0.7261,0.7388,0.7383,0.7383,0.6521,0.5786,0.5049,0.3944,0.3453,0.3699,0.3574,0.2957,0.2466,0.1481,0.0865,0.0741,0.0741,0.0988,0.0865,0.1359,0.1606,0.1853,0.1976,0.1976,0.2099,0.2346,0.2715,0.3208,0.3824,0.4562,0.5177,0.5421,0.5912,0.6526,0.7136,0.7625,0.8116,0.836,0.8848,0.9335,0.9335,0.9214,0.9214,0.9092,0.8726,0.836,0.8113,0.7867,-0.48,-0.517,-0.4679,-0.4435,-0.4312,-0.4067,-0.3822,-0.3822,-0.3451,-0.3326,-0.3203,-0.2956,-0.2834,-0.2833,-0.2956,-0.271,-0.271,-0.2466,-0.1973,-0.1357,-0.1233,-0.1233,-0.111,-0.074,-0.074,-0.0987,-0.0864,-0.0864,-0.0987,-0.0617,-0.037,-0.037,0.0,0.0,0.0,0.0,0.0,0.0123,0.0491,0.0609,0.1083,0.2037,0.2974,0.3635,0.5257,0.6415,0.6988,0.7324,0.744,0.7396,0.7274,0.7187,0.7184,0.6953,0.6656,0.6374,0.6168,0.597,0.5687,0.5598,0.5647,0.5706,0.5753,0.5933,0.6368,0.6261,0.6528,0.6898,0.7023,0.6896,0.6648,0.6035,0.5174,0.4313,0.3082,0.2221,0.2098,0.2097,0.1973,0.1603,0.1111,0.0618,0.0494,0.0494,0.0741,0.0988,0.1359,0.173,0.1853,0.1977,0.1977,0.1977,0.21,0.2469,0.2837,0.3454,0.3947,0.4562,0.4684,0.5051,0.5542,0.6033,0.6646,0.7258,0.7994,0.836,0.8726,0.897,0.8851,0.8726,0.8604,0.8116,0.7627,0.7503,0.6888,-0.6519,-0.6766,-0.6272,-0.6027,-0.6027,-0.5661,-0.554,-0.554,-0.5293,-0.5046,-0.5046,-0.4921,-0.48,-0.4798,-0.4798,-0.4676,-0.4185,-0.3449,-0.2958,-0.2589,-0.2341,-0.2219,-0.2219,-0.1973,-0.1973,-0.185,-0.1604,-0.1603,-0.148,-0.1234,-0.0987,-0.0987,-0.0617,0.0,-0.0247,-0.0247,-0.0123,0.0,0.037,0.0492,0.0611,0.1584,0.278,0.3692,0.5077,0.623,0.693,0.7282,0.7516,0.7486,0.7284,0.7098,0.7101,0.687,0.6675,0.6253,0.6156,0.594,0.5635,0.5566,0.5487,0.5538,0.5454,0.5498,0.5535,0.5544,0.5665,0.5912,0.591,0.591,0.5912,0.5174,0.4438,0.3699,0.2344,0.1481,0.1358,0.1234,0.1233,0.0987,0.0741,0.0494,0.0371,0.0371,0.0494,0.0741,0.1235,0.1606,0.173,0.1853,0.1977,0.1977,0.1977,0.2223,0.259,0.296,0.3455,0.3825,0.3947,0.4315,0.4807,0.5174,0.5542,0.6401,0.7138,0.7505,0.7872,0.8119,0.8241,0.7997,0.775,0.7261,0.6771,0.6278,0.5663,-0.8358,-0.8355,-0.7864,-0.7742,-0.762,-0.7255,-0.7133,-0.7133,-0.7011,-0.6888,-0.7011,-0.7011,-0.6766,-0.7011,-0.6886,-0.6641,-0.5906,-0.517,-0.4556,-0.4064,-0.3694,-0.3449,-0.3329,-0.3451,-0.3328,-0.259,-0.2466,-0.2342,-0.2342,-0.1973,-0.1727,-0.1603,-0.1358,-0.0988,-0.0741,-0.0617,-0.0371,-0.0124,0.0247,0.037,0.0493,0.1231,0.2445,0.3993,0.5029,0.5949,0.6665,0.7251,0.7471,0.7573,0.7223,0.7105,0.698,0.6828,0.6718,0.6133,0.602,0.5804,0.5602,0.5402,0.52,0.52,0.5013,0.4926,0.4808,0.4684,0.4558,0.4681,0.4803,0.4928,0.5051,0.4436,0.3822,0.3208,0.1975,0.1111,0.0988,0.0865,0.0617,0.0494,0.037,0.0247,0.0247,0.0247,0.0371,0.0618,0.1112,0.1483,0.1606,0.173,0.1977,0.1977,0.1977,0.1977,0.2346,0.2468,0.2962,0.3086,0.3209,0.3577,0.3822,0.4067,0.4435,0.5544,0.628,0.6648,0.7016,0.7136,0.7261,0.7141,0.6771,0.6156,0.5665,0.5176,0.4559,-1.0061,-1.0304,-0.9332,-0.8967,-0.8845,-0.8358,-0.8111,-0.8111,-0.7869,-0.7747,-0.7747,-0.775,-0.7747,-0.7747,-0.7747,-0.75,-0.7131,-0.6639,-0.6274,-0.5661,-0.517,-0.4805,-0.4681,-0.4681,-0.4681,-0.4559,-0.4067,-0.3821,-0.3698,-0.3207,-0.2713,-0.2343,-0.2097,-0.1727,-0.1357,-0.1111,-0.0741,-0.0371,-0.0124,0.0124,0.0247,0.074,0.1726,0.3309,0.4507,0.5477,0.646,0.7076,0.7572,0.7812,0.7451,0.7203,0.6919,0.6565,0.6298,0.6098,0.5755,0.5538,0.5469,0.5136,0.5035,0.4918,0.4803,0.4685,0.4439,0.4067,0.3697,0.3696,0.382,0.4066,0.4067,0.3574,0.3329,0.2837,0.1975,0.0988,0.0865,0.0618,0.0,0.0,0.0,0.0,0.0,0.0,0.0247,0.0494,0.0865,0.1235,0.1359,0.173,0.1977,0.1977,0.1977,0.1977,0.21,0.21,0.2347,0.2346,0.247,0.2716,0.2837,0.2836,0.3329,0.4559,0.5298,0.5788,0.6033,0.6276,0.6278,0.6156,0.5665,0.5051,0.4682,0.4315,0.3822,-1.1269,-1.1273,-1.0425,-0.994,-0.9822,-0.9332,-0.9089,-0.9089,-0.8967,-0.8845,-0.8845,-0.8848,-0.8845,-0.8845,-0.8845,-0.8723,-0.8355,-0.7989,-0.7622,-0.7133,-0.6646,-0.628,-0.5908,-0.5908,-0.6031,-0.6033,-0.5665,-0.5176,-0.4928,-0.4313,-0.3821,-0.3452,-0.3206,-0.2712,-0.2097,-0.1851,-0.1234,-0.0741,-0.037,-0.0124,0.0,0.0494,0.1481,0.2714,0.3943,0.5051,0.6033,0.7016,0.7505,0.7747,0.7383,0.7146,0.6747,0.6339,0.6041,0.5956,0.56,0.5373,0.5289,0.4931,0.4684,0.4684,0.4564,0.4195,0.3824,0.3329,0.2711,0.2218,0.2218,0.2465,0.2588,0.2465,0.2342,0.2097,0.1358,0.0864,0.0618,0.0247,0.0,0.0,0.0,0.0,0.0,0.0,0.0,0.0371,0.0741,0.0988,0.1235,0.1606,0.1977,0.1977,0.1977,0.1977,0.1977,0.1977,0.1977,0.1977,0.21,0.2222,0.2346,0.2468,0.2837,0.3699,0.4313,0.4803,0.4803,0.4926,0.5049,0.5049,0.4559,0.4192,0.3822,0.3454,0.3085,-1.2711,-1.2354,-1.1631,-1.1027,-1.0668,-1.0304,-1.0061,-0.994,-0.9943,-0.994,-0.994,-0.994,-0.994,-0.9819,-0.97,-0.9579,-0.9335,-0.8845,-0.8601,-0.8358,-0.7872,-0.7505,-0.7138,-0.7138,-0.7016,-0.6891,-0.7141,-0.665,-0.5788,-0.5295,-0.4928,-0.4559,-0.4313,-0.3698,-0.2959,-0.259,-0.1851,-0.1111,-0.0494,-0.0371,0.0124,0.0617,0.1358,0.2221,0.3452,0.4561,0.5663,0.6648,0.7263,0.7508,0.7388,0.7023,0.6898,0.6407,0.6039,0.5916,0.5669,0.5421,0.5298,0.4807,0.4439,0.4439,0.4073,0.3826,0.3208,0.2467,0.1356,0.0617,0.0617,0.111,0.1357,0.1356,0.148,0.1357,0.0987,0.0494,0.0494,0.0,0.0,0.0,0.0,0.0,0.0,0.0,0.0,0.0,0.0494,0.0865,0.1112,0.1483,0.1853,0.1977,0.1977,0.1977,0.1977,0.1977,0.1977,0.1977,0.1977,0.2099,0.2222,0.2346,0.2715,0.2961,0.3085,0.3453,0.3575,0.3821,0.4067,0.4069,0.3577,0.3331,0.3207,0.2961,0.2592,-1.4981,-1.4634,-1.3439,-1.2599,-1.1872,-1.139,-1.0785,-1.0304,-1.0547,-1.0543,-1.0304,-1.0547,-1.0547,-1.0304,-0.994,-0.9819,-0.9697,-0.9576,-0.9332,-0.9092,-0.8726,-0.8238,-0.7869,-0.775,-0.763,-0.7627,-0.8,-0.7627,-0.6888,-0.6401,-0.5912,-0.5421,-0.5174,-0.4684,-0.3698,-0.3207,-0.2343,-0.148,-0.0864,-0.037,0.0,0.0371,0.0987,0.1727,0.2713,0.3822,0.5049,0.6033,0.6771,0.7385,0.7385,0.7263,0.7263,0.6773,0.6405,0.6158,0.579,0.5421,0.5298,0.4807,0.4438,0.4316,0.4073,0.3579,0.2838,0.1727,0.074,0.0123,0.0123,0.0247,0.0617,0.0864,0.0988,0.0988,0.0617,0.0494,0.0,0.0,0.0,0.0,0.0,0.0,0.0,0.0,0.0,0.0,0.0371,0.0618,0.0988,0.1483,0.173,0.1977,0.1977,0.1977,0.1977,0.1977,0.1977,0.1977,0.1977,0.21,0.2099,0.2223,0.2099,0.2346,0.2346,0.2593,0.2961,0.3208,0.3331,0.3208,0.2962,0.2838,0.259,0.2345,0.2099,-1.6762,-1.5585,-1.4272,-1.3435,-1.2955,-1.2234,-1.1631,-1.139,-1.139,-1.1273,-1.1152,-1.1273,-1.1152,-1.091,-1.0668,-1.0425,-1.0183,-1.0061,-0.9943,-0.9579,-0.9214,-0.8973,-0.8726,-0.8485,-0.8363,-0.8366,-0.8488,-0.8488,-0.7872,-0.738,-0.6893,-0.6035,-0.591,-0.5297,-0.4313,-0.3946,-0.3083,-0.222,-0.148,-0.0864,-0.037,0.0123,0.0494,0.1234,0.2221,0.3329,0.4436,0.554,0.6523,0.7138,0.7385,0.7263,0.7018,0.665,0.6283,0.6037,0.5916,0.5546,0.5298,0.4807,0.4561,0.4316,0.4071,0.3331,0.2344,0.1357,0.037,-0.0494,-0.0371,-0.0247,0.0,0.0247,0.0371,0.0,0.0,0.0,0.0,0.0,0.0,0.0,0.0,0.0,0.0,0.0,0.0,0.0,0.0247,0.0618,0.1112,0.1606,0.1853,0.1977,0.1977,0.1977,0.1977,0.1977,0.1978,0.1978,0.1979,0.1978,0.1977,0.1977,0.1979,0.1979,0.21,0.2346,0.2717,0.2717,0.2717,0.2592,0.2469,0.2346,0.2345,0.2222,0.1977,-1.8058,-1.6644,-1.558,-1.4743,-1.4267,-1.3426,-1.2831,-1.259,-1.2595,-1.2475,-1.2234,-1.2234,-1.2113,-1.1756,-1.1514,-1.1027,-1.0425,-1.0304,-1.0065,-0.9822,-0.9579,-0.9339,-0.9217,-0.9095,-0.8976,-0.8979,-0.8976,-0.8854,-0.8729,-0.836,-0.7747,-0.6771,-0.6891,-0.6033,-0.5176,-0.4561,-0.3944,-0.259,-0.1973,-0.1357,-0.0864,-0.0494,0.0,0.074,0.1727,0.2714,0.3946,0.5049,0.6154,0.6771,0.7141,0.7141,0.6773,0.6528,0.6283,0.6037,0.5794,0.5546,0.5298,0.493,0.4562,0.4439,0.3947,0.3208,0.2096,0.1356,0.074,-0.037,-0.0371,-0.0371,-0.0371,-0.0124,0.0,0.0,0.0,0.0,0.0,0.0,0.0,0.0,0.0,0.0,0.0,0.0,0.0,0.0,0.0247,0.0618,0.1112,0.1606,0.1853,0.21,0.1979,0.1979,0.1978,0.1978,0.1979,0.1986,0.1987,0.1988,0.1992,0.199,0.1989,0.1986,0.1983,0.21,0.2347,0.2224,0.1977,0.21,0.2223,0.21,0.21,0.1977,0.1853,-1.8881,-1.8642,-1.7713,-1.6649,-1.5822,-1.5569,-1.4619,-1.3784,-1.4147,-1.4028,-1.3665,-1.355,-1.343,-1.296,-1.2359,-1.1631,-1.0789,-1.0425,-1.0183,-1.0061,-0.9819,-0.97,-0.9579,-0.946,-0.9217,-0.9098,-0.9217,-0.9095,-0.8973,-0.9092,-0.848,-0.7869,-0.7625,-0.6893,-0.6035,-0.5297,-0.4559,-0.3329,-0.2589,-0.1973,-0.1603,-0.1356,-0.0863,0.0,0.0863,0.1726,0.3085,0.4312,0.5297,0.6037,0.6528,0.665,0.628,0.6283,0.616,0.5916,0.5669,0.5546,0.5298,0.5054,0.481,0.4564,0.4071,0.3331,0.2466,0.1849,0.111,0.0494,0.0247,0.0,0.0,0.0,0.0,0.0,0.0,0.0,0.0,0.0,0.0,0.0,0.0,0.0,0.0,0.0,0.0,0.0,0.0,0.0617,0.1234,0.1729,0.1976,0.21,0.2104,0.2105,0.2104,0.1986,0.2003,0.2013,0.2016,0.2016,0.2017,0.2012,0.201,0.2003,0.2001,0.1988,0.198,0.1988,0.199,0.1981,0.1977,0.1977,0.1853,0.173,0.1483,-1.9352,-1.912,-1.8777,-1.8064,-1.7109,-1.6638,-1.6161,-1.58,-1.5806,-1.5682,-1.5445,-1.5445,-1.5095,-1.4624,-1.4152,-1.3075,-1.2118,-1.1635,-1.1031,-1.0668,-1.0425,-1.0304,-1.0186,-0.9943,-0.9822,-0.97,-0.97,-0.9579,-0.9457,-0.9579,-0.9335,-0.8848,-0.8236,-0.738,-0.6646,-0.6031,-0.5172,-0.4435,-0.382,-0.3449,-0.2466,-0.2096,-0.148,-0.037,0.037,0.1357,0.259,0.3574,0.4313,0.493,0.5669,0.5667,0.5665,0.579,0.5792,0.5671,0.5423,0.5421,0.5298,0.4931,0.4562,0.4562,0.4192,0.3699,0.3081,0.2834,0.2096,0.148,0.0741,0.0494,0.0371,0.0,0.0,0.0,0.0,0.0,0.0,0.0,0.0,0.0,0.0,0.0,0.0,0.0,0.0,0.0,0.0,0.0864,0.1481,0.1979,0.2354,0.2488,0.2494,0.2377,0.2379,0.2268,0.2032,0.2039,0.2046,0.2046,0.2046,0.2046,0.2042,0.2031,0.2025,0.2024,0.202,0.2011,0.2002,0.199,0.1981,0.1977,0.173,0.1359,0.0988,-2.004,-1.9822,-1.9822,-1.9113,-1.8169,-1.7701,-1.7467,-1.7226,-1.7109,-1.7103,-1.7109,-1.6985,-1.6626,-1.6042,-1.5461,-1.451,-1.3315,-1.2595,-1.1997,-1.1514,-1.1152,-1.1031,-1.091,-1.0668,-1.0304,-1.0304,-0.9943,-0.9822,-0.97,-0.9819,-0.9579,-0.9214,-0.8726,-0.7991,-0.7378,-0.6519,-0.5906,-0.5418,-0.5172,-0.4681,-0.3698,-0.3206,-0.2466,-0.1233,-0.0493,0.0617,0.1727,0.2712,0.3329,0.3944,0.4313,0.4558,0.4681,0.4928,0.5177,0.53,0.53,0.5298,0.5053,0.4807,0.4438,0.4438,0.4438,0.4067,0.382,0.3574,0.2958,0.1849,0.1357,0.0988,0.0617,0.0,0.0,0.0,0.0,0.0,0.0,0.0,0.0,0.0,0.0,0.0,0.0,0.0,0.0,0.0,0.0,0.1481,0.1976,0.2478,0.2991,0.3131,0.3151,0.291,0.2668,0.2554,0.2312,0.2072,0.2077,0.2078,0.2078,0.2078,0.2068,0.2052,0.2051,0.2061,0.2055,0.2039,0.2018,0.1996,0.1865,0.1611,0.1111,0.0741,0.0247,-2.0952,-2.0723,-2.0601,-2.0033,-1.8991,-1.8874,-1.8525,-1.8052,-1.8181,-1.8298,-1.8181,-1.7935,-1.7578,-1.6997,-1.6414,-1.5343,-1.4272,-1.3559,-1.284,-1.2359,-1.1997,-1.1631,-1.1394,-1.1152,-1.0785,-1.0304,-1.0183,-1.0061,-0.994,-1.0061,-0.9943,-0.97,-0.9211,-0.8726,-0.8233,-0.7378,-0.6768,-0.6401,-0.6031,-0.554,-0.4803,-0.4313,-0.3451,-0.2342,-0.1233,0.0,0.0986,0.1727,0.2344,0.2836,0.308,0.3326,0.3574,0.3943,0.4313,0.481,0.4933,0.4933,0.4933,0.4562,0.4439,0.4439,0.4562,0.4315,0.4067,0.3821,0.3329,0.2219,0.1726,0.1234,0.0741,0.0,0.0,0.0,0.0,0.0,0.0,0.0,0.0,0.0,0.0,0.0,0.0,0.0,0.0,0.0,0.0,0.2101,0.2607,0.3247,0.3776,0.3799,0.3827,0.3466,0.3223,0.2712,0.2468,0.2228,0.2108,0.2108,0.2109,0.2108,0.2095,0.2076,0.208,0.2093,0.2081,0.2065,0.1916,0.1645,0.1501,0.1119,0.0619,0.0,-0.0623,-2.1729,-2.1281,-2.1281,-2.0823,-2.0148,-1.9686,-1.9236,-1.8887,-1.901,-1.9017,-1.901,-1.8765,-1.8409,-1.7824,-1.7238,-1.629,-1.5219,-1.4753,-1.4038,-1.3204,-1.296,-1.2719,-1.2359,-1.1877,-1.139,-1.1273,-1.091,-1.0668,-1.0547,-1.0547,-1.0425,-1.0183,-0.9457,-0.8973,-0.8485,-0.7875,-0.763,-0.7141,-0.6893,-0.6526,-0.5667,-0.5051,-0.4189,-0.2959,-0.1726,-0.0617,0.0247,0.0987,0.1481,0.1727,0.1973,0.2218,0.2589,0.3081,0.382,0.4439,0.4687,0.4933,0.481,0.4562,0.4562,0.4685,0.4687,0.4685,0.4562,0.4562,0.3699,0.2714,0.1973,0.1357,0.0617,0.0247,0.0,0.0,0.0,0.0,0.0,0.0,0.0,0.0,0.0,0.0,0.0375,0.1004,0.1382,0.2017,0.2521,0.3029,0.3674,0.4197,0.4734,0.4626,0.4525,0.4036,0.3663,0.3279,0.2766,0.2389,0.2269,0.214,0.214,0.2134,0.2131,0.2116,0.2121,0.2124,0.2112,0.1967,0.1428,0.1156,0.0765,0.0253,-0.0253,-0.1014,-0.1783,-2.3079,-2.2523,-2.241,-2.1957,-2.1281,-2.0378,-1.97,-1.9482,-1.9366,-1.9366,-1.9366,-1.9004,-1.8648,-1.8298,-1.7837,-1.7126,-1.6053,-1.5704,-1.5348,-1.452,-1.4038,-1.3799,-1.3315,-1.2719,-1.2118,-1.1997,-1.1635,-1.1269,-1.091,-1.1031,-1.0547,-0.9943,-0.9579,-0.8973,-0.8491,-0.8247,-0.8122,-0.763,-0.7383,-0.7138,-0.6403,-0.5663,-0.4802,-0.3573,-0.2341,-0.0986,-0.037,0.0247,0.0741,0.0864,0.0987,0.1233,0.1727,0.2342,0.3203,0.3821,0.4562,0.4933,0.4931,0.4562,0.4685,0.5054,0.4933,0.4935,0.4935,0.481,0.3822,0.2836,0.2219,0.1357,0.0617,0.0123,0.0,0.0,0.0,0.0,0.0,0.0,0.0,0.0,0.0,0.0,0.0634,0.1528,0.2044,0.2822,0.3607,0.4127,0.4646,0.5306,0.5841,0.5732,0.5504,0.5147,0.4513,0.3865,0.3213,0.2557,0.2425,0.2424,0.2154,0.2146,0.2151,0.2155,0.2146,0.214,0.201,0.1733,0.1056,0.0263,-0.0524,-0.0912,-0.1294,-0.2067,-0.2977,-2.488,-2.4326,-2.4103,-2.3424,-2.241,-2.106,-2.0155,-1.9482,-1.9482,-1.9482,-1.9482,-1.9113,-1.8765,-1.8415,-1.82,-1.7614,-1.7015,-1.6661,-1.6301,-1.5822,-1.5116,-1.4753,-1.4157,-1.3559,-1.296,-1.2479,-1.2118,-1.2118,-1.1394,-1.1152,-1.0425,-0.97,-0.9339,-0.8854,-0.8613,-0.8247,-0.8119,-0.7872,-0.775,-0.7505,-0.7016,-0.6276,-0.5416,-0.431,-0.2957,-0.1726,-0.0987,-0.037,0.0123,0.0247,0.0247,0.0494,0.0864,0.1357,0.2341,0.3451,0.4439,0.5054,0.53,0.4808,0.4931,0.5298,0.5056,0.4933,0.4933,0.4933,0.3946,0.2959,0.222,0.1234,0.037,0.0247,0.0,0.0,0.0,0.0,0.0,0.0,0.0,0.0,0.0,0.0,0.0,0.1551,0.2465,0.3531,0.4329,0.5233,0.5893,0.6688,0.7103,0.6988,0.6766,0.6421,0.5644,0.4702,0.3899,0.323,0.2962,0.2828,0.2558,0.2289,0.229,0.229,0.2155,0.2019,0.1748,0.121,0.0403,-0.0401,-0.1331,-0.1988,-0.2362,-0.3262,-0.4173,-2.6209,-2.5863,-2.5331,-2.4778,-2.3991,-2.2523,-2.1402,-2.0716,-2.0493,-2.0385,-2.027,-1.9461,-1.912,-1.9004,-1.8544,-1.796,-1.7485,-1.7244,-1.6773,-1.6419,-1.5833,-1.5477,-1.4997,-1.4401,-1.3803,-1.3688,-1.3449,-1.3084,-1.2479,-1.1756,-1.0789,-1.0065,-0.9339,-0.8854,-0.8488,-0.8244,-0.8119,-0.7994,-0.7872,-0.775,-0.7385,-0.6646,-0.5786,-0.4802,-0.3574,-0.2342,-0.148,-0.074,-0.0247,0.0,0.0,0.0247,0.0617,0.1233,0.2218,0.3944,0.4807,0.5421,0.5546,0.53,0.5298,0.5546,0.5423,0.5298,0.5177,0.4933,0.4193,0.3206,0.2466,0.1604,0.0987,0.0741,0.0495,0.0372,0.0374,0.0,0.0,0.0,0.0,0.0,0.0,0.0,0.0,0.1703,0.2631,0.3854,0.4937,0.5846,0.6894,0.7566,0.7969,0.7985,0.7737,0.7247,0.6317,0.5376,0.4705,0.4034,0.3767,0.3499,0.323,0.2961,0.2558,0.2155,0.1885,0.1616,0.1346,0.0673,-0.0269,-0.1211,-0.201,-0.2807,-0.3597,-0.45,-0.5409,-2.7618,-2.7286,-2.6754,-2.61,-2.5212,-2.4103,-2.3199,-2.2523,-2.1402,-2.0945,-2.0838,-2.004,-1.9707,-1.9584,-1.8997,-1.8298,-1.7954,-1.7719,-1.7367,-1.6891,-1.6307,-1.6188,-1.5715,-1.5235,-1.5002,-1.4769,-1.453,-1.4043,-1.32,-1.1877,-1.0789,-1.0065,-0.9335,-0.8976,-0.8613,-0.8488,-0.8241,-0.8119,-0.7994,-0.775,-0.7383,-0.6893,-0.6033,-0.5172,-0.3943,-0.2835,-0.1973,-0.1111,-0.0617,-0.0247,-0.0124,0.0124,0.0494,0.111,0.2096,0.3575,0.4313,0.493,0.5179,0.5302,0.5423,0.5546,0.5546,0.5546,0.5423,0.5056,0.4315,0.3329,0.2837,0.2345,0.1727,0.1111,0.0993,0.0748,0.0628,0.0506,0.0,0.0,0.0,0.0,0.0,0.0,0.0927,0.1857,0.266,0.3746,0.4695,0.5758,0.6814,0.7882,0.8283,0.8557,0.8435,0.8053,0.7118,0.6315,0.5778,0.5242,0.4708,0.444,0.4035,0.3498,0.2961,0.2289,0.1616,0.1212,0.0808,-0.0135,-0.1077,-0.1884,-0.2959,-0.4024,-0.4819,-0.5615,-0.6544,-2.9016,-2.8688,-2.8048,-2.7178,-2.6191,-2.5542,-2.511,-2.4667,-2.2636,-2.1517,-2.1395,-2.0838,-2.05,-2.0385,-1.9686,-1.8997,-1.8648,-1.8305,-1.796,-1.7479,-1.702,-1.6667,-1.6425,-1.6177,-1.5709,-1.5477,-1.524,-1.4639,-1.3444,-1.2118,-1.0906,-0.994,-0.9579,-0.9217,-0.8976,-0.8851,-0.8607,-0.8366,-0.8119,-0.7872,-0.7627,-0.7016,-0.6278,-0.5784,-0.4555,-0.3326,-0.2466,-0.1727,-0.0864,-0.0494,-0.0247,0.0,0.0494,0.0864,0.1974,0.2837,0.3699,0.4315,0.4808,0.4931,0.5177,0.53,0.5421,0.5546,0.5548,0.5302,0.4561,0.3944,0.3575,0.3082,0.2466,0.2233,0.1996,0.1636,0.1397,0.1025,0.0647,0.0523,0.0,0.0,0.0,0.0267,0.0802,0.1605,0.2539,0.3493,0.4572,0.5512,0.6449,0.7653,0.832,0.8717,0.872,0.8454,0.8056,0.7386,0.6849,0.6313,0.5781,0.5379,0.5242,0.4303,0.3229,0.2288,0.1212,0.0673,0.0,-0.1077,-0.1884,-0.2556,-0.363,-0.5106,-0.6044,-0.6713,-0.7646,-3.0068,-2.9554,-2.8611,-2.7745,-2.7088,-2.6427,-2.6091,-2.5753,-2.4761,-2.3871,-2.3207,-2.2418,-2.1858,-2.1417,-2.0831,-2.0148,-1.9468,-1.8771,-1.8421,-1.7843,-1.7379,-1.7138,-1.6897,-1.6655,-1.6307,-1.6076,-1.572,-1.5121,-1.3928,-1.2599,-1.1511,-1.091,-1.0425,-0.9943,-0.9457,-0.9335,-0.9095,-0.8491,-0.8366,-0.8119,-0.775,-0.7505,-0.6893,-0.6156,-0.5049,-0.3943,-0.3082,-0.1973,-0.1234,-0.0617,-0.0247,0.0247,0.0741,0.0988,0.1728,0.2715,0.3085,0.3577,0.4192,0.4684,0.493,0.53,0.5546,0.5794,0.5671,0.5423,0.5053,0.4682,0.4189,0.3697,0.3463,0.3364,0.3145,0.267,0.2056,0.1557,0.1048,0.0795,0.0536,0.0403,0.0135,0.0404,0.0808,0.1481,0.2422,0.3363,0.4303,0.5108,0.578,0.6851,0.7653,0.8187,0.8587,0.8454,0.8323,0.8189,0.7519,0.7383,0.6985,0.6581,0.618,0.4704,0.3094,0.175,0.0673,0.0,-0.0942,-0.2018,-0.2825,-0.3362,-0.4301,-0.5642,-0.6844,-0.7779,-0.8845,-3.13,-3.0806,-2.9649,-2.891,-2.8262,-2.7618,-2.7187,-2.6754,-2.61,-2.5441,-2.4778,-2.3656,-2.2877,-2.2449,-2.1752,-2.0952,-2.0046,-1.9352,-1.8771,-1.8188,-1.7843,-1.7726,-1.7485,-1.725,-1.7015,-1.6667,-1.5715,-1.4878,-1.4172,-1.2964,-1.1877,-1.1756,-1.1273,-1.0668,-1.0183,-1.0061,-0.9457,-0.8735,-0.8613,-0.8366,-0.7994,-0.7508,-0.7138,-0.6401,-0.5665,-0.4559,-0.3575,-0.2466,-0.1603,-0.0864,-0.037,0.0,0.0494,0.0617,0.1235,0.1851,0.2345,0.2837,0.3575,0.4067,0.4559,0.493,0.5421,0.5546,0.5919,0.5671,0.5671,0.5176,0.4928,0.4559,0.4605,0.4518,0.4076,0.3612,0.2863,0.2362,0.1589,0.107,0.0941,0.0807,0.0808,0.0943,0.1346,0.1751,0.2558,0.3633,0.4438,0.4975,0.5646,0.6182,0.6985,0.7519,0.792,0.832,0.8323,0.8189,0.8056,0.792,0.792,0.6982,0.6182,0.4435,0.2825,0.1614,0.0269,-0.0943,-0.1885,-0.2826,-0.3363,-0.3902,-0.4973,-0.618,-0.7381,-0.8845,-0.9908,-3.2308,-3.1924,-3.0899,-3.0172,-2.9638,-2.8814,-2.8398,-2.795,-2.7196,-2.6654,-2.61,-2.488,-2.3896,-2.3006,-2.2312,-2.141,-2.0608,-2.004,-1.9229,-1.8881,-1.8532,-1.8415,-1.8305,-1.8194,-1.7719,-1.6891,-1.5822,-1.5116,-1.453,-1.3444,-1.284,-1.2724,-1.2238,-1.1756,-1.1394,-1.0789,-1.0065,-0.9098,-0.8732,-0.8366,-0.7997,-0.763,-0.7261,-0.6768,-0.6033,-0.5176,-0.4067,-0.2958,-0.1973,-0.1233,-0.0494,0.0,0.0247,0.0371,0.0741,0.1235,0.1604,0.1974,0.259,0.3329,0.3822,0.4315,0.493,0.5298,0.5548,0.5686,0.5686,0.5569,0.5444,0.5464,0.5394,0.5338,0.4905,0.4309,0.3553,0.2916,0.2138,0.1481,0.1346,0.1212,0.1346,0.1481,0.1885,0.2289,0.3097,0.4038,0.4708,0.5111,0.5646,0.6049,0.6585,0.6851,0.7118,0.7519,0.7922,0.8058,0.7922,0.8056,0.7922,0.6985,0.6048,0.4437,0.2958,0.1614,0.0269,-0.1077,-0.2154,-0.3095,-0.3768,-0.444,-0.5512,-0.6715,-0.8446,-0.9775,-1.0972,-3.2924,-3.2207,-3.1392,-3.0877,-3.0474,-2.9879,-2.9564,-2.9237,-2.8581,-2.8048,-2.7286,-2.6536,-2.545,-2.4153,-2.3464,-2.2667,-2.1858,-2.0945,-2.0385,-1.9924,-1.9448,-1.9107,-1.8881,-1.8648,-1.8181,-1.7355,-1.6414,-1.5709,-1.5121,-1.4286,-1.3808,-1.3808,-1.2964,-1.2238,-1.1635,-1.091,-1.0065,-0.9217,-0.861,-0.8366,-0.8116,-0.775,-0.7508,-0.6893,-0.6158,-0.5172,-0.4064,-0.2712,-0.185,-0.1111,-0.0494,0.0,0.0247,0.0247,0.0494,0.0741,0.0987,0.1357,0.1973,0.259,0.3083,0.3577,0.407,0.4319,0.4583,0.4745,0.4878,0.5274,0.5277,0.5665,0.5847,0.5943,0.5769,0.4746,0.3849,0.3205,0.2554,0.2154,0.1885,0.175,0.175,0.2153,0.269,0.3229,0.3901,0.4707,0.5377,0.578,0.5781,0.6049,0.6317,0.6315,0.6449,0.7118,0.7789,0.7655,0.7658,0.7925,0.7922,0.6851,0.5914,0.4707,0.3227,0.1747,0.0134,-0.1346,-0.2422,-0.3363,-0.4304,-0.5109,-0.6048,-0.7383,-0.9114,-1.0571,-1.1765]},{"header":{"parameterUnit":"m.s-1","parameterCategory":1,"la1":31.0,"la2":29.5877,"lo1":-88.7671,"lo2":-86.6584,"dy":0.0162,"dx":0.0185,"nx":115,"ny":88,"refTime":"2024-06-07T12:00:00:Z","depth":0,"parameterNumber":3,"parameterNumberName":"V-component_of_WINDS"},"data":[0.0,0.0,0.0,0.0,0.0,0.0,0.0,0.0,0.0,0.0,0.0,0.0,0.0,0.0,0.0,0.0,0.0,0.0,0.0,0.0,0.0,0.0,0.0,0.0,0.0,0.0,0.0,0.0,0.0,0.0,0.0,0.0,0.0,0.0,0.0,0.0,0.0,0.0,0.0,0.0,0.0,0.0,0.0,0.0,0.0,0.0,0.0,0.0,0.0,0.0,0.0,0.0,0.0,0.0,0.0,0.0,0.0,0.0,0.0,0.0,0.0,0.0,0.0,0.0,0.0,0.0,0.0,0.0,0.0,0.0,0.0,0.0,0.0,0.0,0.0,0.0,0.0,0.0,0.0,0.0,0.0,0.0,0.0,0.0,0.0,0.0,0.0,0.0,0.0,0.0,0.0,0.0,0.0,0.0,0.0,0.0,0.0,0.0,0.0,0.0,0.0,0.0,0.0,0.0,0.0,0.0,0.0,0.0,0.0,0.0,0.0,0.0,0.0,0.0,0.0,0.0,0.0,0.0,0.0,0.0,0.0,0.0,0.0,0.0,0.0,0.0,0.0,0.0,0.0,0.0,0.0,0.0,0.0,0.0,0.0,0.0,0.0,0.0,0.0,0.0,0.0,0.0,0.0,0.0,0.0,0.0,0.0,0.0,0.0,0.0,0.0,0.0,0.0,0.0,0.0,0.0,0.0,0.0,0.0,0.0,0.0,0.0,0.0,0.0,0.0,0.0,0.0,0.0,0.0,0.0,0.0,0.0,0.0,0.0,0.0,0.0,0.0,0.0,0.0,0.0,0.0,0.0,0.0,0.0,0.0,0.0,0.0,0.0,0.0,0.0,0.0,0.0,0.0,0.0,0.0,0.0,0.0,0.0,0.0,0.0,0.0,0.0,0.0,0.0,0.0,0.0,0.0,0.0,0.0,0.0,0.0,0.0,0.0,0.0,0.0,0.0,0.0,0.0,0.0,0.0,0.0,0.0,0.0,0.0,0.0,0.0,0.0,0.0,0.0,0.0,0.0,0.0,0.0,0.0,0.0,0.0,0.0,0.0,0.0,0.0,0.0,0.0,0.0,0.0,0.0,0.0,0.0,0.0,0.0,0.0,0.0,0.0,0.0,0.0,0.0,0.0,0.0,0.0,0.0,0.0,0.0,0.0,0.0,0.0,0.0,0.0,0.0,0.0,0.0,0.0,0.0,0.0,0.0,0.0,0.0,0.0,0.0,0.0,0.0,0.0,0.0,0.0,0.0,0.0,0.0,0.0,0.0,0.0,0.0,0.0,0.0,0.0,0.0,0.0,0.0,0.0,0.0,0.0,0.0,0.0,0.0,0.0,0.0,0.0,0.0,0.0,0.0,0.0,0.0,0.0,0.0,0.0,0.0,0.0,0.0,0.0,0.0,0.0,0.0,0.0,0.0,0.0,0.0,0.0,0.0,0.0,0.0,0.0,0.0,0.0,0.0,0.0,0.0,0.0,0.0,0.0,0.0,0.0,0.0,0.0,0.0,0.0,0.0,0.0,0.0,0.0,0.0,0.0,0.0,0.0,0.0,0.0,0.0,0.0,0.0,0.0,0.0,0.0,0.0,0.0,0.0,0.0,0.0,0.0,0.0,0.0,0.0,0.0,0.0,0.0,0.0,0.0,0.0,0.0,0.0,0.0,0.0,0.0,0.0,0.0,0.0,0.0,0.0,0.0,0.0,0.0,0.0,0.0,0.0,0.0,0.0,0.0,0.0,0.0,0.0,0.0,0.0,0.0,0.0,0.0,0.0,0.0,0.0,0.0,0.0,0.0,0.0,0.0,0.0,0.0,0.0,0.0,0.0,0.0,0.0,0.0,0.0,0.0,0.0,0.0,0.0,0.0,0.0,0.0,0.0,0.0,0.0,0.0,0.0,0.0,0.0,0.0,0.0,0.0,0.0,0.0,0.0,0.0,0.0,0.0,0.0,0.0,0.0,0.0,0.0,0.0,0.0,0.0,0.0,0.0,0.0,0.0,0.0,0.0,0.0,0.0,0.0,0.0,0.0,0.0,0.0,0.0,0.0,0.0,0.0,0.0,0.0,0.0,0.0,0.0,0.0,0.0,0.0,0.0,0.0,0.0,0.0,0.0,0.0,0.0,0.0,0.0,0.0,0.0,0.0,0.0,0.0,0.0,0.0,0.0,0.0,0.0,0.0,0.0,0.0,0.0,0.0,0.0,0.0,0.0,0.0,0.0,0.0,0.0,0.0,0.0,0.0,0.0,0.0,0.0,0.0,0.0,0.0,0.0,0.0,0.0,0.0,0.0,0.0,0.0,0.0,0.0,0.0,0.0,0.0,0.0,0.0,0.0,0.0,0.0,0.0,0.0,0.0,0.0,0.0,0.0,0.0,0.0,0.0,0.0,0.0,0.0,0.0,0.0,0.0,0.0,0.0,0.0,0.0,0.0,0.0,0.0,0.0,0.0,0.0,0.0,0.0,0.0,0.0,0.0,0.0,0.0,0.0,0.0,0.0,0.0,0.0,0.0,0.0,0.0,0.0,0.0,0.0,0.0,0.0,0.0,0.0,0.0,0.0,0.0,0.0,0.0,0.0,0.0,0.0,0.0,0.0,0.0,0.0,0.0,0.0,0.0,0.0,0.0,0.0,0.0,0.0,0.0,0.0,0.0,0.0,0.0,0.0,0.0,0.0,0.0,0.0,0.0,0.0,0.0,0.0,0.0,0.0,0.0,0.0,0.0,0.0,0.0,0.0,0.0,0.0,0.0,0.0,0.0,0.0,0.0,0.0,0.0,0.0,0.0,0.0,0.0,0.0,0.0,0.0,0.0,0.0,0.0,0.0,0.0,0.0,0.0,0.0,0.0,0.0,0.0,0.0,0.0,0.0,0.0,0.0,0.0,0.0,0.0,0.0,0.0,0.0,0.0,0.0,0.0,0.0,0.0,0.0,0.0,0.0,0.0,0.0,0.0,0.0,0.0,0.0,0.0,0.0,0.0,0.0,0.0,0.0,0.0,0.0,0.0,0.0,0.0,0.0,0.0,0.0,0.0,0.0,0.0,0.0,0.0,0.0,0.0,0.0,0.0,0.0,0.0,0.0,0.0,0.0,0.0,0.0,0.0,0.0,0.0,0.0,0.0,0.0,0.0,0.0,0.0,0.0,0.0,0.0,0.0,0.0,0.0,0.0,0.0,0.0,0.0,0.0,0.0,0.0,0.0,0.0,0.0,0.0,0.0,0.0,0.0,0.0,0.0,0.0,0.0,0.0,0.0,0.0,0.0,0.0,0.0,0.0,0.0,0.0,0.0,0.0,0.0,0.0,0.0,0.0,0.0,0.0,0.0,0.0,0.0,0.0,0.0,0.0,0.0,0.0,0.0,0.0,0.0,0.0,0.0,0.0,0.0,0.0,0.0,0.0,0.0,0.0,0.0,0.0,0.0,0.0,0.0,0.0,0.0,0.0,0.0,0.0,0.0,0.0,0.0,0.0,0.0,0.0,0.0,0.0,0.0,0.0,0.0,0.0,0.0,0.0,0.0,0.0,0.0,0.0,0.0,0.0,0.0,0.0,0.0,0.0,0.0,0.0,0.0,0.0,0.0,0.0,0.0,0.0,0.0,0.0,0.0,0.0,0.0,0.0,0.0,0.0,0.0,0.0,0.0,0.0,0.0,0.0,0.0,0.0,0.0,0.0,0.0,0.0,0.0,0.0,0.0,0.0,0.0,0.0,0.0,0.0,0.0,0.0,0.0,0.0,0.0,0.0,0.0,0.0,0.0,0.0,0.0,0.0,0.0,0.0,0.0,0.0,0.0,0.0,0.0,0.0,0.0,0.0,0.0,0.0,0.0,0.0,0.0,0.0,0.0,0.0,0.0,0.0,0.0,0.0,0.0,0.0,0.0,0.0,0.0,0.0,0.0,0.0,0.0,0.0,0.0,0.0,0.0,0.0,0.0,0.0,0.0,0.0,0.0,0.0,0.0,0.0,0.0,0.0,0.0,0.0,0.0,0.0,0.0,0.0,0.0,0.0,0.0,0.0,0.0,0.0,0.0,0.0,0.0,0.0,0.0,0.0,0.0,0.0,0.0,0.0,0.0,0.0,0.0,0.0,0.0,0.0,0.0,0.0,0.0,0.0,0.0,0.0,0.0,0.0,0.0,0.0,0.0,0.0,0.0,0.0,0.0,0.0,0.0,0.0,0.0,0.0,0.0,0.0,0.0,0.0,0.0,0.0,0.0,0.0,0.0,0.0,0.0,0.0,0.0,0.0,0.0,0.0,0.0,0.0,0.0,0.9206,0.0,0.0,0.0,0.0,0.0,0.0,0.0,0.0,0.0,0.0,0.0,0.0,0.0,0.0,0.0,0.0,0.0,0.0,0.0,0.0,0.0,0.0,0.0,0.0,0.0,0.0,0.0,0.0,0.0,0.0,0.0,0.0,0.0,0.0,0.0,0.0,0.0,0.0,0.0,0.0,0.0,0.0,0.0,0.0,0.0,0.0,0.0,0.0,0.0,0.0,0.0,0.0,0.0,0.0,0.0,0.0,0.0,0.0,0.0,0.0,0.0,0.0,0.0,0.0,0.0,0.0,0.0,0.0,0.0,0.0,0.0,0.0,0.0,0.0,0.0,0.0,0.0,0.0,0.0,0.0,0.0,0.0,0.0,0.0,0.0,0.0,0.0,0.0,0.0,0.0,0.0,0.0,0.0,0.0,0.0,0.0,0.0,0.0,0.0,0.0,0.0,0.0,0.0,0.0,0.0,0.0,0.0,0.0,0.0,0.0,0.9037,0.9448,0.9606,0.9927,1.0459,0.0,0.0,0.0,0.0,0.0,0.0,0.0,0.0,0.0,0.0,0.0,0.0,0.0,0.0,0.0,0.0,0.0,0.0,0.0,0.0,0.0,0.0,0.0,0.0,0.0,0.0,0.0,0.0,0.0,0.0,0.0,0.0,0.0,0.0,0.0,0.0,0.0,0.0,0.0,0.0,0.0,0.0,0.0,0.0,0.0,0.0,0.0,0.0,0.0,0.0,0.0,0.0,0.0,0.0,0.0,0.0,0.0,0.0,0.0,0.0,0.0,0.0,0.0,0.0,0.0,0.0,0.0,0.0,0.0,0.0,0.0,0.0,0.0,0.0,0.0,0.0,0.0,0.0,0.0,0.0,0.0,0.0,0.0,0.0,0.0,0.0,0.0,0.0,0.0,0.0,0.0,0.0,0.0,0.0,0.0,0.0,0.0,0.0,0.0,0.0,0.0,0.0,0.0,0.0,0.0,0.0,0.0,0.0,0.0,0.0,0.0,0.0,1.0426,1.0911,1.1792,0.0,0.0,0.0,0.0,0.0,0.0,0.0,0.0,0.0,0.0,0.0,0.0,0.0,0.0,0.0,0.0,0.0,0.0,0.0,0.0,0.0,0.0,0.0,0.0,0.0,0.0,0.0,0.0,0.0,0.0,0.0,0.0,0.0,0.0,0.0,0.0,0.0,0.0,0.0,0.0,0.0,0.0,0.0,0.0,0.0,0.0,0.0,0.0,0.0,0.0,0.0,0.0,0.0,0.0,0.0,0.0,0.0,0.0,0.0,0.0,0.0,0.0,0.0,0.0,0.0,0.0,0.0,0.0,0.0,0.0,0.0,0.0,0.0,0.0,0.0,0.0,0.0,0.0,0.0,0.0,0.0,0.0,0.0,0.0,0.0,0.0,0.0,0.0,0.0,0.0,0.0,0.0,0.0,0.0,0.0,0.0,0.0,0.0,0.0,0.0,0.0,0.0,0.0,0.0,0.0,0.0,0.0,0.0,0.0,0.0,1.0314,1.1165,1.13,0.0,1.2672,0.0,0.0,0.0,0.0,0.0,0.0,0.0,0.0,0.0,0.0,0.0,0.0,0.0,0.0,0.0,0.0,0.0,0.0,0.0,0.0,0.0,0.0,0.0,0.0,0.0,0.0,0.0,0.0,0.0,0.0,0.0,0.0,0.0,0.0,0.0,0.0,0.0,0.0,0.0,0.0,0.0,0.0,0.0,0.0,0.0,0.0,0.0,0.0,0.0,0.0,0.0,0.0,0.0,0.0,0.0,0.0,0.0,0.0,0.0,0.0,0.0,0.0,0.0,0.0,0.0,0.0,0.0,0.0,0.0,0.0,0.0,0.0,0.0,0.0,0.0,0.0,0.0,0.0,0.0,0.0,0.0,0.0,0.0,0.0,0.0,0.0,0.0,0.0,0.0,0.0,0.0,0.0,0.0,0.0,0.0,0.0,0.0,0.0,0.0,0.0,0.0,0.0,0.0,0.0,0.0,0.0,0.0,0.0,0.0,0.0,1.0758,1.2044,1.2665,1.3174,0.0,0.0,0.0,0.0,0.0,0.0,0.0,0.0,0.0,0.0,0.0,0.0,0.0,0.0,0.0,0.0,0.0,0.0,0.0,0.0,0.0,0.0,0.0,0.0,0.0,0.0,0.0,0.0,0.0,0.0,0.0,0.0,0.0,0.0,0.0,0.0,0.0,0.0,0.0,0.0,0.0,0.0,0.0,0.0,0.0,0.0,0.0,0.0,0.0,0.0,0.0,0.0,0.0,0.0,0.0,0.0,0.0,0.0,0.0,0.0,0.0,0.0,0.0,0.0,0.0,0.0,0.0,0.0,0.0,0.0,0.0,0.0,0.0,0.0,0.0,0.0,0.0,0.0,0.0,0.0,0.0,0.0,0.0,0.0,0.0,0.0,0.0,0.0,0.0,0.0,0.0,0.0,0.0,0.0,0.0,0.0,0.0,0.0,0.0,0.0,0.0,0.0,0.0,0.0,0.0,0.0,0.0,0.0,0.0,0.0,1.0701,0.0,1.2931,1.3655,1.3906,1.3703,0.0,0.0,0.0,0.0,0.0,0.0,0.0,0.0,0.0,0.0,0.0,0.0,0.0,0.0,0.0,0.0,0.0,0.0,0.0,0.0,0.0,0.0,0.0,0.0,0.0,0.0,0.0,0.0,0.0,0.0,0.0,0.0,0.0,0.0,0.0,0.0,0.0,0.0,0.0,0.0,0.0,0.0,0.0,0.0,0.0,0.0,0.0,0.0,0.0,0.0,0.0,0.0,0.0,0.0,0.0,0.0,0.0,0.0,0.0,0.0,0.0,0.0,0.0,0.0,0.0,0.0,0.0,0.0,0.0,0.0,0.0,0.0,0.0,0.0,0.0,0.0,0.0,0.0,0.0,0.0,0.0,0.0,0.0,0.0,0.0,0.0,0.0,0.0,0.0,0.0,0.0,0.0,0.0,0.0,0.0,0.0,0.0,0.0,0.0,0.0,0.0,0.0,0.0,0.0,0.0,0.0,0.0,0.0,0.0,1.2044,1.2952,1.3899,1.3977,1.3667,0.0,0.0,0.0,0.0,0.0,0.0,0.0,0.0,0.0,0.0,0.0,0.0,0.0,0.0,0.0,0.0,0.0,0.0,0.0,0.0,0.0,0.0,0.0,0.0,0.0,0.0,0.0,0.0,0.0,0.0,0.0,0.0,0.0,0.0,0.0,0.0,0.0,0.0,0.0,0.0,0.0,0.0,0.0,0.0,0.0,0.0,0.0,0.0,0.0,0.0,0.0,0.0,0.0,0.0,0.0,0.0,0.0,0.0,0.0,0.0,0.0,0.0,0.0,0.0,0.0,0.0,0.0,0.0,0.0,0.0,0.0,0.0,0.0,0.0,0.0,0.0,0.0,0.0,0.0,0.0,0.0,0.0,0.0,0.0,0.0,0.0,0.0,0.0,0.0,0.0,0.0,0.0,0.0,0.0,0.0,0.0,0.0,0.0,0.0,0.0,0.0,0.0,0.0,0.0,0.0,0.0,0.0,0.0,0.0,1.1365,1.2766,1.3917,1.4719,1.4321,1.3712,0.0,0.0,0.0,0.0,0.0,0.0,0.0,0.0,0.0,0.0,0.0,0.0,0.0,0.0,0.0,0.0,0.0,0.0,0.0,0.0,0.0,0.0,0.0,0.0,0.0,0.0,0.0,0.0,0.0,0.0,0.0,0.0,0.0,0.0,0.0,0.0,0.0,0.0,0.0,0.0,0.0,0.0,0.0,0.0,0.0,0.0,0.0,0.0,0.0,0.0,0.0,0.0,0.0,0.0,0.0,0.0,0.0,0.0,0.0,0.0,0.0,0.0,0.0,0.0,0.0,0.0,0.0,0.0,0.0,0.0,0.0,0.0,0.0,0.0,0.0,0.0,0.0,0.0,0.0,0.0,0.0,0.0,0.0,0.0,0.0,0.0,0.0,0.0,0.0,0.0,0.0,0.0,0.0,0.0,0.0,0.0,0.0,0.0,0.0,0.0,0.0,0.0,0.0,0.0,0.0,0.0,0.0,0.0,0.0,1.2581,0.0,1.4926,0.0,1.4741,1.3882,0.0,0.0,0.0,0.0,0.0,0.0,0.0,0.0,0.0,0.0,0.0,0.0,0.0,0.0,0.0,0.0,0.0,0.0,0.0,0.0,0.0,0.0,0.0,0.0,0.0,0.0,0.0,0.0,0.0,0.0,0.0,0.0,0.0,0.0,0.0,0.0,0.0,0.0,0.0,0.0,0.0,0.0,0.0,0.0,0.0,0.0,0.0,0.0,0.0,0.0,0.0,0.0,0.0,0.0,0.0,0.0,0.0,0.0,0.0,0.0,0.0,0.0,0.0,0.0,0.0,0.0,0.0,0.0,0.0,0.0,0.0,0.0,0.0,0.0,0.0,0.0,0.0,0.0,0.0,0.0,0.0,0.0,0.0,0.0,0.0,0.0,0.0,0.0,0.0,0.0,0.0,0.0,0.0,0.0,0.0,0.0,0.0,0.0,0.0,0.0,0.0,0.0,0.0,0.0,0.0,0.0,0.0,0.0,1.2589,1.5002,1.5944,1.6063,1.538,1.5345,1.4185,0.0,0.0,0.0,0.0,0.0,0.0,0.0,0.0,0.0,0.0,0.0,0.0,0.0,0.0,0.0,0.0,0.0,0.0,0.0,0.0,0.0,0.0,0.0,0.0,0.0,0.0,0.0,0.0,0.0,0.0,0.0,0.0,0.0,0.0,0.0,0.0,0.0,0.0,0.0,0.0,0.0,0.0,0.0,0.0,0.0,0.0,0.0,0.0,0.0,0.0,0.0,0.0,0.0,0.0,0.0,0.0,0.0,0.0,0.0,0.0,0.0,0.0,0.0,0.0,0.0,0.0,0.0,0.0,0.0,0.0,0.0,0.0,0.0,0.0,0.0,0.0,0.0,0.0,0.0,0.0,0.0,0.0,0.0,0.0,0.0,0.0,0.0,0.0,0.0,0.0,0.0,0.0,0.0,0.0,0.0,0.0,0.0,0.0,0.0,0.0,0.0,0.0,0.0,0.0,0.0,0.0,0.0,0.0,0.0,1.671,1.7061,1.7397,1.7664,1.6629,1.522,0.0,0.0,0.0,0.0,0.0,0.0,0.0,0.0,0.0,0.0,0.0,0.0,0.0,0.0,0.0,0.0,0.0,0.0,0.0,0.0,0.0,0.0,0.0,0.0,0.0,0.0,0.0,0.0,0.0,0.0,0.0,0.0,0.0,0.0,0.0,0.0,0.0,0.0,0.0,0.0,0.0,0.0,0.0,0.0,0.0,0.0,0.0,0.0,0.0,0.0,0.0,0.0,0.0,0.0,0.0,0.0,0.0,0.0,0.0,0.0,0.0,0.0,0.0,0.0,0.0,0.0,0.0,0.0,0.0,0.0,0.0,0.0,0.0,0.0,0.0,0.0,0.0,0.0,0.0,0.0,0.0,0.0,0.0,0.0,0.0,0.0,0.0,0.0,0.0,0.0,0.0,0.0,0.0,0.0,0.0,0.0,0.0,0.0,0.0,0.0,0.0,0.0,0.0,0.0,0.0,0.0,0.0,0.0,0.0,1.9601,1.9483,1.9448,1.9643,1.8431,1.6736,1.4631,0.0,0.0,0.0,0.0,0.0,0.0,0.0,0.0,0.0,0.0,0.0,0.0,0.0,0.0,0.0,0.0,0.0,0.0,0.0,0.0,0.0,0.0,0.0,0.0,0.0,0.0,0.0,0.0,0.0,0.0,0.0,0.0,0.0,0.0,0.0,0.0,0.0,0.0,0.0,0.0,0.0,0.0,0.0,0.0,0.0,0.0,0.0,0.0,0.0,0.0,0.0,0.0,0.0,0.0,0.0,0.0,0.0,0.0,0.0,0.0,0.0,0.0,0.0,0.0,0.0,0.0,0.0,0.0,0.0,0.0,0.0,0.0,0.0,0.0,0.0,0.0,0.0,0.0,0.0,0.0,0.0,0.0,0.0,0.0,0.0,0.0,0.0,0.0,0.0,0.0,0.0,0.0,0.0,0.0,0.0,0.0,0.0,0.0,0.0,0.0,0.0,0.0,0.0,0.0,0.0,0.0,0.0,0.0,2.3483,2.2941,2.2232,2.1411,2.0608,1.8699,0.0,0.0,0.0,0.0,0.0,0.0,0.0,0.0,0.0,0.0,0.0,0.0,0.0,0.0,0.0,0.0,0.0,0.0,0.0,0.0,0.0,0.0,0.0,0.0,0.0,0.0,0.0,0.0,0.0,0.0,0.0,0.0,0.0,0.0,0.0,0.0,0.0,0.0,0.0,0.0,0.0,0.0,0.0,0.0,0.0,0.0,0.0,0.0,0.0,0.0,0.0,0.0,0.0,0.0,0.0,0.0,0.0,0.0,0.0,0.0,0.0,0.0,0.0,0.0,0.0,0.0,0.0,0.0,0.0,0.0,0.0,0.0,0.0,0.0,0.0,0.0,0.0,0.0,0.0,0.0,0.0,0.0,0.0,0.0,0.0,0.0,0.0,0.0,0.0,0.0,0.0,0.0,0.0,0.0,0.0,0.0,0.0,0.0,0.0,0.0,0.0,0.0,0.0,0.0,0.0,0.0,0.0,0.0,0.0,2.5027,2.6132,2.6015,2.4605,2.3285,2.1087,0.0,0.0,0.0,0.0,0.0,0.0,0.0,0.0,0.0,0.0,0.0,0.0,0.0,0.0,0.0,0.0,0.0,0.0,0.0,0.0,0.0,0.0,0.0,0.0,0.0,0.0,0.0,0.0,0.0,0.0,0.0,0.0,0.0,0.0,0.0,0.0,0.0,0.0,0.0,0.0,0.0,0.0,0.0,0.0,0.0,0.0,0.0,0.0,0.0,0.0,0.0,0.0,0.0,0.0,0.0,0.0,0.0,0.0,0.0,0.0,0.0,0.0,0.0,0.0,0.0,0.0,0.0,0.0,0.0,0.0,0.0,0.0,0.0,0.0,0.0,0.0,0.0,0.0,0.0,0.0,0.0,0.0,0.0,0.0,0.0,0.0,0.0,0.0,0.0,0.0,0.0,0.0,0.0,0.0,0.0,0.0,0.0,0.0,0.0,0.0,0.0,0.0,0.0,0.0,0.0,0.0,0.0,0.0,2.375,2.7246,2.8869,2.9244,2.8298,2.5818,2.3035,0.0,0.0,0.0,0.0,0.0,0.0,0.0,0.0,0.0,0.0,0.0,0.0,0.0,0.0,0.0,0.0,0.0,0.0,0.0,0.0,0.0,0.0,0.0,0.0,0.0,0.0,0.0,0.0,0.0,0.0,0.0,0.0,0.0,0.0,0.0,0.0,0.0,0.0,0.0,0.0,0.0,0.0,0.0,0.0,0.0,0.0,0.0,0.0,0.0,0.0,0.0,0.0,0.0,0.0,0.0,0.0,0.0,0.0,0.0,0.0,0.0,0.0,0.0,0.0,0.0,0.0,0.0,0.0,0.0,0.0,0.0,0.0,0.0,0.0,0.0,0.0,0.0,0.0,0.0,0.0,0.0,0.0,0.0,0.0,0.0,0.0,0.0,0.0,0.0,0.0,0.0,0.0,0.0,0.0,0.0,0.0,0.0,0.0,0.0,0.0,0.0,0.0,0.0,0.0,0.0,0.0,0.0,0.0,2.5519,2.9315,3.0903,3.1689,3.1599,2.8201,2.4736,0.0,0.0,0.0,0.0,0.0,0.0,0.0,0.0,0.0,0.0,0.0,0.0,0.0,0.0,0.0,0.0,0.0,0.0,0.0,0.0,0.0,0.0,0.0,0.0,0.0,0.0,0.0,0.0,0.0,0.0,0.0,0.0,0.0,0.0,0.0,0.0,0.0,0.0,0.0,0.0,0.0,0.0,0.0,0.0,0.0,0.0,0.0,0.0,0.0,0.0,0.0,0.0,0.0,0.0,0.0,0.0,0.0,0.0,0.0,0.0,0.0,0.0,0.0,0.0,0.0,0.0,0.0,0.0,0.0,0.0,0.0,0.0,0.0,0.0,0.0,0.0,0.0,0.0,0.0,0.0,0.0,0.0,0.0,0.0,0.0,0.0,0.0,0.0,0.0,0.0,0.0,0.0,0.0,0.0,0.0,0.0,0.0,0.0,0.0,0.0,0.0,0.0,0.0,0.0,0.0,0.0,0.0,0.0,2.6623,2.9351,3.0903,3.1706,3.1689,2.9783,2.6956,0.0,0.0,0.0,0.0,0.0,0.0,0.0,0.0,0.0,0.0,0.0,0.0,0.0,0.0,0.0,0.0,0.0,0.0,0.0,0.0,0.0,0.0,0.0,0.0,0.0,0.0,0.0,0.0,0.0,0.0,0.0,0.0,0.0,0.0,0.0,0.0,0.0,0.0,0.0,0.0,0.0,0.0,0.0,0.0,0.0,0.0,0.0,0.0,1.6277,0.0,0.0,0.0,0.0,0.0,0.0,0.0,0.0,0.0,0.0,0.0,0.0,0.0,0.0,0.0,0.0,0.0,0.0,0.0,0.0,0.0,0.0,0.0,0.0,0.0,0.0,0.0,0.0,0.0,0.0,0.0,0.0,0.0,0.0,0.0,0.0,0.0,0.0,0.0,0.0,0.0,0.0,0.0,0.0,0.0,0.0,0.0,0.0,0.0,0.0,0.0,0.0,0.0,0.0,0.0,0.0,0.0,0.0,0.0,2.7567,2.9962,3.1517,3.2322,3.2312,3.0948,2.846,0.0,0.0,0.0,0.0,0.0,0.0,0.0,0.0,0.0,0.0,0.0,0.0,0.0,0.0,0.0,0.0,0.0,0.0,0.0,0.0,0.0,0.0,0.0,0.0,0.0,0.0,0.0,0.0,0.0,0.0,0.0,0.0,0.0,0.0,0.0,0.0,0.0,0.0,0.0,0.0,0.0,0.0,0.0,0.0,0.0,0.0,0.0,0.0,0.0,0.0,0.0,0.0,0.0,0.0,0.0,0.0,0.0,0.0,0.0,0.0,0.0,0.0,0.0,0.0,0.0,0.0,0.0,0.0,0.0,0.0,0.0,0.0,0.0,0.0,0.0,0.0,0.0,0.0,0.0,0.0,0.0,0.0,0.0,0.0,0.0,0.0,0.0,0.0,0.0,0.0,0.0,0.0,0.0,0.0,0.0,0.0,0.0,0.0,0.0,0.0,0.0,0.0,0.0,0.0,0.0,0.0,0.0,2.5544,2.8443,3.0951,3.233,3.3096,3.3229,3.1719,2.9449,2.6399,0.0,0.0,0.0,0.0,0.0,0.0,0.0,0.0,0.0,0.0,0.0,0.0,0.0,0.0,0.0,0.0,0.0,0.0,0.0,0.0,0.0,0.0,0.0,0.0,0.0,0.0,0.0,0.0,0.0,0.0,0.0,0.0,0.0,0.0,0.0,0.0,0.0,0.0,1.399,1.5944,0.0,0.0,0.0,0.0,0.0,0.0,0.0,0.0,2.0295,0.0,0.0,0.0,0.0,0.0,0.0,0.0,0.0,0.0,0.0,0.0,0.0,0.0,0.0,0.0,0.0,0.0,0.0,0.0,0.0,0.0,0.0,0.0,0.0,0.0,0.0,0.0,0.0,0.0,0.0,0.0,0.0,0.0,0.0,0.0,0.0,0.0,0.0,0.0,0.0,0.0,0.0,0.0,0.0,0.0,0.0,0.0,0.0,0.0,0.0,0.0,0.0,0.0,0.0,0.0,0.0,2.3181,2.644,2.9554,3.254,3.2929,3.3409,3.4015,3.2007,2.9728,2.7218,0.0,0.0,0.0,0.0,0.0,0.0,0.0,0.0,0.0,0.0,0.0,0.0,0.0,0.0,0.0,0.0,0.0,0.0,0.0,0.0,0.0,0.0,0.0,0.0,0.0,0.0,0.0,0.0,0.0,0.0,0.0,0.0,0.0,0.0,0.0,0.0,0.0,0.0,0.0,1.9148,2.0306,0.0,0.0,0.0,0.0,0.0,0.0,0.0,0.0,2.2146,0.0,0.0,0.0,0.0,0.0,0.0,0.0,0.0,0.0,0.0,0.0,0.0,0.0,0.0,0.0,0.0,0.0,0.0,0.0,0.0,0.0,0.0,0.0,0.0,0.0,0.0,0.0,0.0,0.0,0.0,0.0,0.0,0.0,0.0,0.0,0.0,0.0,0.0,0.0,0.0,0.0,0.0,0.0,0.0,0.0,0.0,0.0,0.0,0.0,0.0,0.0,0.0,0.0,0.0,0.0,2.4023,2.7656,3.0704,3.3075,3.4099,3.4558,3.4498,3.23,2.9792,0.0,0.0,0.0,0.0,0.0,0.0,0.0,0.0,0.0,0.0,0.0,0.0,0.0,0.0,0.0,0.0,0.0,0.0,0.0,0.0,0.0,0.0,0.0,0.0,0.0,0.0,0.0,0.0,0.0,0.0,0.0,0.0,0.0,0.0,0.0,0.0,0.0,0.0,0.0,0.0,2.0847,2.2004,2.2108,0.0,0.0,0.0,0.0,0.0,0.0,2.4559,2.4121,0.0,0.0,0.0,0.0,0.0,0.0,0.0,0.0,0.0,0.0,0.0,0.0,0.0,0.0,0.0,0.0,0.0,0.0,0.0,0.0,0.0,0.0,0.0,0.0,0.0,0.0,0.0,0.0,0.0,0.0,0.0,0.0,0.0,0.0,0.0,0.0,0.0,0.0,0.0,0.0,0.0,0.0,0.0,0.0,0.0,0.0,0.0,0.0,0.0,0.0,0.0,0.0,0.0,0.0,0.0,2.4884,2.8748,3.1743,3.378,3.5218,3.5636,3.5049,3.2664,2.9831,0.0,0.0,0.0,0.0,0.0,0.0,0.0,0.0,0.0,0.0,0.0,0.0,0.0,0.0,0.0,0.0,0.0,0.0,0.0,0.0,0.0,0.0,0.0,0.0,0.0,0.0,0.0,0.0,0.0,0.0,0.0,0.0,0.0,0.0,0.0,0.0,0.0,0.0,0.0,0.0,0.0,2.3229,2.4261,2.4493,0.0,0.0,0.0,0.0,2.678,2.6453,0.0,0.0,0.0,0.0,0.0,0.0,0.0,0.0,0.0,0.0,0.0,0.0,0.0,0.0,0.0,0.0,0.0,0.0,0.0,0.0,0.0,0.0,0.0,0.0,0.0,0.0,0.0,0.0,0.0,0.0,0.0,0.0,0.0,0.0,0.0,0.0,0.0,0.0,0.0,0.0,0.0,0.0,0.0,0.0,0.0,0.0,0.0,0.0,0.0,0.0,0.0,0.0,0.0,0.0,0.0,0.0,2.5799,2.9098,3.2336,3.5405,3.5914,3.6069,3.5999,3.3088,2.9945,0.0,0.0,0.0,0.0,0.0,0.0,0.0,0.0,0.0,0.0,0.0,0.0,0.0,0.0,0.0,0.0,0.0,0.0,0.0,0.0,0.0,0.0,0.0,0.0,0.0,0.0,0.0,0.0,0.0,0.0,0.0,0.0,0.0,0.0,0.0,0.0,0.0,0.0,0.0,0.0,0.0,2.4396,2.5906,2.6166,2.6244,0.0,0.0,2.7715,2.7911,2.7784,0.0,0.0,0.0,0.0,0.0,0.0,0.0,0.0,0.0,0.0,0.0,0.0,0.0,0.0,0.0,0.0,0.0,0.0,0.0,0.0,0.0,0.0,0.0,0.0,0.0,0.0,0.0,0.0,0.0,0.0,0.0,0.0,0.0,0.0,0.0,0.0,0.0,0.0,0.0,0.0,0.0,0.0,0.0,0.0,0.0,0.0,0.0,0.0,0.0,0.0,0.0,0.0,0.0,0.0,0.0,2.2557,2.657,3.0332,3.3418,3.5891,3.7081,3.7264,3.6436,3.3371,3.0176,0.0,0.0,0.0,0.0,0.0,0.0,0.0,0.0,0.0,0.0,0.0,0.0,0.0,0.0,0.0,0.0,0.0,0.0,0.0,0.0,0.0,0.0,0.0,0.0,0.0,0.0,0.0,0.0,0.0,0.0,0.0,0.0,0.0,0.0,0.0,0.0,0.0,0.0,0.0,0.0,0.0,0.0,2.7648,2.8317,0.0,0.0,0.0,2.9775,3.0677,0.0,0.0,0.0,0.0,0.0,0.0,0.0,0.0,0.0,0.0,0.0,0.0,0.0,0.0,0.0,0.0,0.0,0.0,0.0,0.0,0.0,0.0,0.0,0.0,0.0,0.0,0.0,0.0,0.0,0.0,0.0,0.0,0.0,0.0,0.0,0.0,0.0,0.0,0.0,0.0,0.0,0.0,0.0,0.0,0.0,0.0,0.0,0.0,0.0,0.0,0.0,0.0,0.0,0.0,0.0,0.0,0.0,2.7435,3.1353,3.4345,3.638,3.8077,3.8229,3.6697,3.3832,0.0,0.0,0.0,0.0,0.0,0.0,0.0,0.0,0.0,0.0,0.0,0.0,0.0,0.0,0.0,0.0,0.0,0.0,0.0,0.0,0.0,0.0,0.0,0.0,0.0,0.0,0.0,1.0716,0.0,0.0,0.0,0.0,0.0,0.0,0.0,0.0,0.0,0.0,0.0,0.0,0.0,0.0,2.7289,2.9148,2.9988,3.0551,0.0,0.0,3.1571,3.2769,3.1755,3.0701,0.0,0.0,0.0,0.0,0.0,0.0,0.0,0.0,0.0,0.0,0.0,0.0,0.0,0.0,0.0,0.0,0.0,0.0,0.0,0.0,0.0,0.0,0.0,0.0,0.0,0.0,0.0,0.0,0.0,0.0,0.0,0.0,0.0,0.0,0.0,0.0,0.0,0.0,0.0,0.0,0.0,0.0,0.0,0.0,0.0,0.0,0.0,0.0,0.0,0.0,0.0,0.0,0.0,0.0,0.0,2.8424,3.181,3.4804,3.7478,3.8628,3.8473,3.6994,3.4661,3.1411,0.0,0.0,0.0,0.0,0.0,0.0,0.0,0.0,0.0,0.0,0.0,0.0,0.0,0.0,0.0,0.0,0.0,0.0,0.0,0.0,0.0,0.0,0.0,0.0,0.0,0.0,0.0,0.0,0.0,0.0,0.0,0.0,0.0,0.0,0.0,0.0,0.0,0.0,0.0,0.0,0.0,2.7158,3.0166,3.0639,3.1184,0.0,3.296,3.2996,3.3024,3.2312,3.1291,2.9726,0.0,0.0,0.0,0.0,0.0,0.0,0.0,0.0,0.0,0.0,0.0,0.0,0.0,0.0,0.0,0.0,0.0,0.0,0.0,0.0,0.0,0.0,0.0,0.0,0.0,0.0,0.0,0.0,0.0,0.0,0.0,0.0,0.0,0.0,0.0,0.0,0.0,0.0,0.0,0.0,0.0,0.0,0.0,0.0,0.0,0.0,0.0,0.0,0.0,0.0,0.0,0.0,0.0,2.4021,2.9334,3.2273,3.5064,3.7728,3.879,3.8627,3.7178,3.5292,3.2317,0.0,0.0,0.0,0.0,0.0,0.0,0.0,0.0,0.0,0.0,0.0,0.0,0.0,0.0,0.0,0.0,0.0,0.0,0.0,0.0,0.0,0.0,0.0,0.0,0.0,0.0,0.0,0.0,1.5718,1.6721,1.6903,0.0,0.0,0.0,0.0,0.0,0.0,0.0,0.0,0.0,0.0,3.0028,3.2192,3.3325,0.0,0.0,3.4467,3.4322,3.472,3.3695,3.2473,3.1247,2.9233,0.0,0.0,0.0,0.0,0.0,0.0,0.0,0.0,0.0,0.0,0.0,0.0,0.0,0.0,0.0,0.0,0.0,0.0,0.0,0.0,0.0,0.0,0.0,0.0,0.0,0.0,0.0,0.0,0.0,0.0,0.0,0.0,0.0,0.0,0.0,0.0,0.0,0.0,0.0,0.0,0.0,0.0,0.0,0.0,0.0,0.0,0.0,0.0,0.0,0.0,0.0,0.0,2.4874,3.0305,3.3022,3.5655,3.8279,3.9102,3.8893,3.763,3.6054,3.3393,0.0,0.0,0.0,0.0,0.0,0.0,0.0,0.0,0.0,0.0,0.0,0.0,0.0,0.0,0.0,0.0,0.0,0.0,0.0,0.0,0.0,0.0,0.0,0.0,0.0,0.0,0.0,0.0,1.7119,1.7969,1.7451,0.0,0.0,0.0,0.0,0.0,0.0,0.0,0.0,0.0,0.0,3.2203,3.3506,3.5099,3.6197,3.6435,3.5795,3.5407,3.5903,3.4615,3.3265,3.2325,0.0,0.0,0.0,0.0,0.0,0.0,0.0,0.0,0.0,0.0,0.0,0.0,0.0,0.0,0.0,0.0,0.0,0.0,0.0,0.0,0.0,0.0,0.0,0.0,0.0,0.0,0.0,1.3444,0.0,0.0,1.2405,0.0,0.0,0.0,0.0,0.0,0.0,0.0,0.0,0.0,0.0,0.0,0.0,0.0,0.0,0.0,0.0,0.0,0.0,0.0,0.0,0.0,0.0,2.6319,3.1311,3.4068,3.6702,3.927,3.958,3.932,3.8556,3.699,3.4586,3.1161,0.0,0.0,0.0,0.0,0.0,0.0,0.0,0.0,0.0,0.0,0.0,0.0,0.0,0.0,0.0,0.0,0.0,0.0,0.0,0.0,0.0,0.0,0.0,0.0,0.0,0.0,1.7822,1.8222,1.83,0.0,0.0,0.0,0.0,0.0,0.0,0.0,0.0,0.0,2.7818,3.0688,3.2981,3.3858,3.5358,3.674,3.7458,3.6832,3.6288,3.624,3.4816,3.3415,0.0,0.0,0.0,0.0,0.0,0.0,0.0,0.0,0.0,0.0,0.0,0.0,0.0,0.0,0.0,0.0,0.0,0.0,0.0,0.0,0.0,0.0,0.0,0.0,0.0,0.0,0.0,1.7907,1.7369,0.0,0.0,0.0,0.0,0.0,0.0,0.0,0.0,0.0,0.0,0.0,2.6318,2.6622,0.0,0.0,0.0,0.0,0.0,0.0,0.0,0.0,0.0,0.0,0.0,0.0,2.6862,3.2212,3.4596,3.6953,3.9432,3.967,3.9425,3.8677,3.758,3.4908,3.0459,0.0,0.0,0.0,0.0,0.0,0.0,0.0,0.0,0.0,0.0,0.0,0.0,0.0,0.0,0.0,0.0,0.0,0.0,0.0,0.0,0.0,0.0,0.0,0.0,0.0,1.7594,0.0,0.0,0.0,0.0,0.0,0.0,0.0,0.0,0.0,0.0,0.0,2.8289,3.0962,3.3202,3.505,3.6437,3.7551,3.8414,0.0,0.0,0.0,0.0,0.0,0.0,0.0,0.0,0.0,0.0,0.0,0.0,0.0,0.0,3.1144,2.8391,2.7918,2.81,2.8554,0.0,0.0,0.0,0.0,0.0,0.0,0.0,0.0,0.0,0.0,0.0,0.0,0.0,0.0,2.2688,0.0,2.0898,0.0,0.0,0.0,0.0,0.0,0.0,0.0,0.0,2.8107,2.942,3.0465,3.0793,3.0314,0.0,2.8987,2.7052,0.0,0.0,0.0,0.0,0.0,0.0,0.0,0.0,2.8063,3.2887,3.5188,3.7393,3.9557,3.9781,3.9602,3.9115,3.7713,3.5022,3.0892,2.8695,2.584,0.0,0.0,0.0,0.0,0.0,0.0,0.0,0.0,0.0,0.0,0.0,0.0,0.0,0.0,0.0,0.0,0.0,0.0,0.0,0.0,0.0,0.0,0.0,1.9416,0.0,0.0,0.0,0.0,0.0,0.0,0.0,0.0,0.0,2.7028,2.8685,3.0884,3.3585,3.5373,3.6833,3.7902,0.0,0.0,0.0,0.0,0.0,0.0,0.0,3.7426,3.679,3.7294,3.7626,3.7261,3.7576,3.7894,3.7966,0.0,0.0,3.2928,3.2214,3.2389,3.283,3.283,3.2791,3.2889,3.2883,3.2895,0.0,0.0,0.0,0.0,0.0,0.0,0.0,0.0,2.7759,2.7635,0.0,2.5341,0.0,0.0,0.0,0.0,2.4554,2.5517,0.0,0.0,3.169,3.2683,3.3263,3.4025,3.4071,3.3436,3.2809,3.2174,3.1288,2.6144,0.0,0.0,0.0,0.0,0.0,0.0,2.9876,3.3371,3.5942,3.809,3.9728,3.9867,3.987,3.9797,3.7523,3.5078,3.2577,3.0966,2.8941,2.6374,2.3183,0.0,0.0,0.0,0.0,0.0,0.0,0.0,0.0,0.0,0.0,0.0,0.0,0.0,0.0,0.0,0.0,0.0,0.0,0.0,0.0,1.9871,0.0,0.0,0.0,0.0,0.0,0.0,0.0,0.0,0.0,0.0,2.9922,3.1827,3.3904,3.5628,0.0,0.0,0.0,0.0,3.9994,4.0828,4.0301,4.0056,4.0773,4.012,3.9511,3.9488,0.0,0.0,4.1317,4.142,4.1369,4.1433,4.1496,4.0498,3.7311,3.6619,3.6489,3.6435,3.6461,3.6535,3.6971,3.7138,3.7305,3.379,0.0,0.0,0.0,0.0,3.0826,3.1565,3.1845,3.2623,3.2199,3.0973,3.0579,0.0,0.0,0.0,0.0,0.0,0.0,3.2484,3.4286,3.6003,3.7079,3.7703,3.8125,3.7919,3.7157,3.7039,3.6328,3.5039,3.3117,3.0161,2.6253,0.0,0.0,0.0,0.0,3.2238,3.5049,3.7118,3.8678,3.9785,3.9848,3.9627,3.9058,3.775,3.6159,3.4245,3.3202,3.1459,2.8941,2.6816,0.0,0.0,0.0,0.0,0.0,0.0,0.0,0.0,0.0,0.0,0.0,0.0,0.0,0.0,0.0,0.0,0.0,0.0,0.0,2.0779,2.1446,2.1998,0.0,0.0,0.0,0.0,0.0,0.0,0.0,0.0,0.0,3.5718,3.5482,3.5964,0.0,0.0,3.9727,4.0944,4.1392,4.1703,4.1977,4.1848,0.0,4.2759,4.2561,4.2472,4.2921,4.3469,4.4122,4.4888,4.4887,4.4767,4.485,4.4883,4.4582,4.3762,4.2082,4.112,4.1451,4.1553,4.1544,4.1614,4.1617,4.162,3.9343,3.6488,3.5078,3.4606,3.4871,3.6131,3.6718,3.679,3.729,3.6791,3.5615,3.5059,3.3859,3.2215,3.1972,0.0,0.0,0.0,3.6166,3.7288,3.8988,3.9973,4.0321,4.0778,4.0661,3.991,3.9985,3.9409,3.8251,3.7685,3.6017,3.3195,0.0,0.0,3.0823,3.2191,3.4064,3.6381,3.7804,3.8927,3.9807,3.9911,3.9553,3.8759,3.7906,3.6843,3.5496,3.4661,3.3352,3.1514,2.9542,2.6854,0.0,0.0,0.0,0.0,0.0,0.0,0.0,0.0,0.0,0.0,0.0,1.5184,1.7139,0.0,0.0,0.0,2.0966,2.1942,2.3468,2.3914,0.0,0.0,0.0,0.0,0.0,0.0,0.0,3.29,3.4964,3.7281,3.9986,3.968,3.9619,4.071,4.0862,4.1399,4.2794,0.0,4.334,4.4031,4.4145,4.4407,4.5179,4.5171,4.5306,4.5923,4.6237,4.6706,4.7439,4.746,4.7374,4.7408,4.7355,4.7355,4.7441,4.6182,4.5004,4.4846,4.4761,4.4694,4.4607,4.4554,4.4573,4.3296,4.3515,4.1286,4.0237,4.017,4.1016,4.1417,4.1435,4.1536,4.1145,4.0341,3.896,3.7969,3.7176,3.6507,0.0,3.7248,3.8197,3.8939,3.959,4.1197,4.1883,4.1769,4.2508,4.2551,4.1941,4.1941,4.1685,4.1192,4.0483,4.0191,4.0166,3.5707,3.3488,3.3649,3.4479,3.5777,3.7583,3.8414,3.9214,3.9987,4.0013,3.9637,3.882,3.8042,3.7204,3.6348,3.5475,3.4678,3.3862,3.1493,2.9014,2.6569,0.0,0.0,0.0,0.0,0.0,0.0,0.0,0.0,0.0,0.0,0.0,0.0,0.0,0.0,0.0,2.5213,0.0,2.6308,2.7033,0.0,0.0,0.0,3.0579,3.0684,3.3633,3.5938,3.6728,0.0,0.0,4.3004,4.3901,4.4095,4.3174,4.304,4.3329,4.4211,4.4461,4.5017,4.6494,4.6742,4.7009,4.7597,4.7686,4.7789,4.8249,4.8359,4.8532,4.9059,4.9137,4.9113,4.899,4.9012,4.8887,4.889,4.8686,4.8391,4.6783,4.6509,4.649,4.6424,4.6424,4.6406,4.7033,4.7151,4.609,4.4522,4.2803,4.3573,4.4037,4.4219,4.4277,4.383,4.3113,4.279,4.2193,4.1506,4.1379,4.1414,4.1632,4.2486,4.2978,4.3215,4.4272,4.4783,4.4783,4.5003,4.473,4.4015,4.405,4.3697,4.2993,4.2332,4.2038,4.1995,4.0372,3.9005,3.7972,3.8752,3.9502,4.0108,4.0948,4.1253,4.0967,4.046,3.9757,3.8973,3.8171,3.7347,3.647,3.5615,3.503,3.4751,3.2949,3.1037,2.9166,2.5736,0.0,0.0,0.0,0.0,0.0,0.0,0.0,0.0,0.0,2.0819,2.3235,0.0,2.5258,0.0,2.8218,2.9135,2.9809,3.012,0.0,0.0,3.3742,3.4802,3.6661,3.8235,3.9704,4.1165,4.2522,4.4013,4.5755,4.6119,4.6446,4.6852,4.6337,4.6185,4.6992,4.7182,4.7335,4.7757,4.7873,4.8086,4.8798,4.9296,4.9542,4.9663,4.954,4.9466,4.9577,4.9506,4.9365,4.9276,4.9244,4.9179,4.9083,4.9049,4.8903,4.8407,4.828,4.8298,4.8245,4.8227,4.8245,4.9055,4.9223,4.8833,4.7916,4.6685,4.6308,4.6217,4.6364,4.6081,4.5724,4.5308,4.5056,4.4655,4.4309,4.4309,4.4346,4.4382,4.4912,4.515,4.5187,4.5718,4.5974,4.5993,4.601,4.5842,4.5434,4.545,4.5278,4.4916,4.4239,4.3943,4.3967,4.3237,4.2539,4.1766,4.1473,4.145,4.1665,4.1876,4.1812,4.1398,4.0329,3.9541,3.9076,3.7539,3.65,3.6006,3.4791,3.4098,3.4015,3.2714,3.1374,3.0032,2.7532,2.4782,0.0,0.0,0.0,0.0,0.0,0.0,0.0,0.0,0.0,0.0,0.0,2.7987,2.9964,3.1299,3.2449,3.3335,3.3804,3.4857,3.6733,3.8054,3.9314,4.0679,4.2319,4.3695,4.4586,4.5503,4.6593,4.7899,4.8144,4.8472,4.9354,4.9013,4.869,4.8733,4.8808,4.8941,4.9305,4.9401,4.9485,4.9856,5.0159,5.0333,5.0236,5.0108,4.9952,4.9898,4.9741,4.9596,4.9555,4.9446,4.9352,4.9244,4.9164,4.9116,4.9015,4.8943,4.8909,4.889,4.889,4.889,5.0275,5.0447,5.0356,5.0464,5.0538,4.8948,4.8225,4.817,4.7618,4.7386,4.7239,4.6563,4.625,4.625,4.625,4.6286,4.6286,4.6376,4.6484,4.6484,4.65,4.6554,4.6588,4.6588,4.6548,4.652,4.652,4.6583,4.66,4.5942,4.5679,4.5742,4.4983,4.4729,4.4813,4.3303,4.2631,4.2854,4.224,4.1894,4.1741,4.0315,3.9384,3.9016,3.6911,3.5655,3.5386,3.3857,3.2976,3.2857,3.1897,3.1023,3.0326,2.8738,2.683,0.0,2.4409,0.0,0.0,0.0,0.0,0.0,0.0,0.0,0.0,2.9448,3.0673,3.294,3.4623,3.597,3.69,3.7734,3.8716,3.9928,4.2063,4.35,4.3808,4.5896,4.7317,4.7246,4.8067,4.8945,4.9621,4.9827,5.0132,5.0658,5.0716,5.043,4.993,4.976,5.0008,5.0813,5.0913,5.0653,5.0586,5.0606,5.0546,5.0438,5.0325,5.0212,5.0158,5.0005,4.989,4.9816,4.9693,4.9558,4.9476,4.9321,4.923,4.915,4.903,4.8943,4.889,4.889,4.889,5.1628,5.1775,5.1185,5.0966,5.0986,5.0672,5.0448,5.0291,5.0165,4.9838,4.927,4.8458,4.8089,4.8089,4.8198,4.8234,4.8253,4.834,4.8375,4.8375,4.8375,4.8463,4.8568,4.8568,4.8263,4.7772,4.7753,4.7479,4.6915,4.6834,4.6798,4.6807,4.6116,4.5811,4.5873,0.0,0.0,0.0,4.4115,4.3401,4.2744,4.1813,4.0391,3.8479,3.7932,0.0,3.5635,3.4545,3.3975,3.3871,3.2354,0.0,0.0,0.0,0.0,0.0,0.0,0.0,0.0,0.0,0.0,0.0,3.1555,3.1728,3.1675,3.4112,3.6232,3.739,3.8537,3.9585,4.0498,4.0852,4.195,4.4212,4.4951,4.5827,4.7147,4.8427,4.9173,4.9106,4.9853,5.0445,5.0581,5.0658,5.0732,5.0867,5.0906,5.0832,5.0677,5.0639,5.0716,5.0871,5.0909,5.0877,5.0793,5.072,5.0664,5.0584,5.05,5.0454,5.0444,5.0378,5.0245,5.0139,5.0012,4.9944,4.974,4.9537,4.9539,4.9327,4.9202,4.9015,4.8927,4.8909,4.889,5.2876,5.307,5.2661,5.2587,0.0,5.2696,5.2641,5.2549,5.1621,5.1083,5.0836,5.0405,5.02,5.0235,4.9896,4.9728,4.9709,4.9332,4.916,4.916,4.916,4.916,4.9244,4.9257,4.9115,4.8795,4.8818,4.8679,4.8371,4.8022,4.7886,4.7972,4.7281,4.698,4.7076,4.6474,4.5915,4.5493,4.4735,4.4152,4.3701,4.2131,4.0725,3.9509,3.8214,0.0,0.0,0.0,0.0,0.0,0.0,0.0,0.0,0.0,0.0,3.1193,3.1535,3.1591,3.125,3.2349,3.3581,3.4775,3.6443,3.6689,3.5002,3.762,3.9542,4.0022,4.096,4.2086,4.3421,4.3676,4.4608,4.6684,4.7442,4.811,4.8926,4.9753,5.0271,5.0275,5.0639,5.0906,5.0906,5.0906,5.0906,5.0945,5.1293,5.1544,5.1505,5.1177,5.0906,5.0906,5.0906,5.0874,5.081,5.0775,5.0913,5.1105,5.1179,5.1329,5.165,5.1705,5.1618,5.1544,5.1476,5.1377,5.122,5.1036,5.091,5.0729,5.059,5.0478,5.0322,4.9589,4.889,5.3944,5.4214,5.4108,5.4214,5.4458,5.4318,5.4352,5.4345,5.2607,0.0,0.0,5.1982,5.1939,5.1882,5.1243,5.0942,5.0905,5.0209,4.9908,4.984,4.9709,4.9652,4.9664,4.9604,4.9577,4.9617,4.9674,4.975,4.9852,4.9238,4.9023,4.909,4.8458,4.8084,4.8029,4.7364,4.6626,4.5877,4.5113,4.466,4.4467,4.2537,4.1313,4.1023,3.8798,3.7212,3.6381,3.5334,3.4422,3.3743,3.3487,3.3377,3.3402,3.3958,3.3971,3.3429,3.4586,3.5135,3.4643,3.5988,3.7258,3.8224,4.0369,4.0675,3.8365,4.0364,4.1894,4.2164,4.306,4.4301,4.5907,4.6127,4.6808,4.8385,4.9247,4.9726,4.9939,5.048,5.0867,5.0906,5.0906,5.0983,5.1157,5.1177,5.1215,5.1447,5.2028,5.2414,5.2337,5.1912,5.1525,5.1525,5.1586,5.1399,5.131,5.1352,5.1489,5.2029,5.2085,5.2314,5.289,5.3078,5.3015,5.2858,5.2924,5.2777,5.2698,5.2467,5.2409,5.2303,5.2114,5.1957,5.1767,5.0594,4.9567,5.4519,5.4761,5.4629,5.461,5.468,5.4565,5.4629,5.464,5.3553,5.3075,5.3113,5.239,5.2069,5.2069,5.1937,5.19,5.19,5.1786,5.173,5.1673,5.1002,5.0722,5.0723,5.0081,4.9843,5.0012,5.0031,5.0108,5.0212,5.0214,5.0265,5.0172,4.9606,4.8929,4.824,4.7484,4.7032,4.6868,4.6056,4.5297,4.4606,4.4253,4.3343,4.1874,4.081,3.9843,3.9004,3.7406,3.6485,3.6331,3.5628,3.5464,3.6012,3.6116,3.6306,3.673,3.6975,3.7315,3.794,3.8869,4.0063,4.156,4.2762,4.2677,4.1011,4.2524,4.4,4.4862,4.5755,4.6838,4.7777,4.794,4.8357,4.9324,4.9629,4.9958,5.0596,5.0809,5.0906,5.0906,5.0906,5.1235,5.1815,5.1989,5.2279,5.2917,5.3149,5.3323,5.3362,5.3227,5.3149,5.313,5.3097,5.3026,5.2798,5.2916,5.2878,5.2991,5.301,5.3067,5.3336,5.3393,5.3373,5.3157,5.3251,5.3127,5.3015,5.2761,5.2786,5.2737,5.257,5.2386,5.2352,5.1851,5.1448,5.4814,5.5038,5.4962,5.499,5.5102,5.5083,5.5145,5.5186,5.471,5.4448,5.4354,5.4002,5.384,5.3802,5.3384,5.3175,5.3156,5.2699,5.2471,5.2452,5.211,5.1939,5.1954,5.1637,5.1307,5.1004,5.099,5.083,5.0495,5.0544,5.0605,5.0645,5.0389,4.9876,4.9096,4.869,4.8029,4.7096,4.6225,4.5626,4.5258,4.4833,4.4214,4.3421,4.2589,4.1738,4.0868,3.9649,3.8798,3.8334,3.7486,3.7315,3.7973,3.8402,3.8897,3.9526,3.9958,4.0333,4.0688,4.1484,4.2299,4.3122,4.4007,4.4481,4.4247,4.4977,4.5688,4.6275,4.7166,4.8063,4.8961,4.9092,4.9436,5.0287,5.0364,5.0519,5.0828,5.0906,5.0906,5.0964,5.1331,5.1757,5.2144,5.2608,5.2995,5.3478,5.3846,5.431,5.4755,5.4832,5.4503,5.371,5.3445,5.3374,5.3338,5.3282,5.3455,5.3799,5.3914,5.4087,5.4414,5.4549,5.4511,5.4528,5.4466,5.4422,5.4338,5.4307,5.4211,5.4117,5.3987,5.3869,5.3784,5.3618,5.3082,5.5083,5.5288,5.5255,5.5314,5.548,5.5527,5.5596,5.564,5.5596,5.5485,5.5364,5.5358,5.5339,5.5282,5.467,5.4402,5.4306,5.3738,5.3413,5.3393,5.3221,5.3126,5.3126,5.302,5.2644,5.2069,5.1924,5.1525,5.0971,5.0779,5.072,5.0827,5.0874,5.0596,4.9997,4.9784,4.903,4.7715,4.6825,4.6206,4.58,4.5181,4.4871,4.4813,4.402,4.3266,4.2589,4.1796,4.1042,4.0384,3.9702,3.9592,4.0077,4.0672,4.1204,4.1665,4.2231,4.2642,4.2784,4.3521,4.4132,4.4391,4.503,4.5889,4.6858,4.7223,4.7413,4.7629,4.8234,4.8999,4.9769,4.9977,5.0229,5.0828,5.0906,5.0887,5.0925,5.1061,5.1196,5.1273,5.195,5.255,5.284,5.3362,5.3884,5.4194,5.4658,5.5316,5.5877,5.6012,5.5374,5.4525,5.4008,5.4051,5.3898,5.3918,5.4187,5.4703,5.4761,5.4972,5.5415,5.5626,5.5665,5.5568,5.5585,5.5465,5.5561,5.5516,5.5389,5.5265,5.5129,5.5122,5.5004,5.4886,5.4375,5.5461,5.564,5.564,5.564,5.5682,5.5745,5.5787,5.5787,5.5826,5.5865,5.5806,5.5573,5.548,5.548,5.5384,5.5327,5.5308,5.5289,5.5193,5.5078,5.4507,5.4162,5.4104,5.3462,5.3063,5.2951,5.2396,5.2088,5.1932,5.1252,5.088,5.0909,5.089,5.0867,5.0712,5.0074,4.961,4.9455,4.8604,4.7386,4.5896,4.5742,4.5664,4.5684,4.4891,4.4465,4.4291,4.3537,4.3034,4.2957,4.2802,4.2781,4.2787,4.2787,4.2763,4.2774,4.2814,4.304,4.3721,4.4535,4.5316,4.6069,4.633,4.6895,4.7875,4.8717,4.9249,4.9335,4.9463,4.9904,5.0654,5.077,5.077,5.0848,5.0906,5.0906,5.1041,5.1621,5.2086,5.2086,5.284,5.3652,5.4233,5.4561,5.4948,5.5432,5.5586,5.578,5.5954,5.6012,5.5973,5.5724,5.5671,5.5557,5.5499,5.5555,5.5359,5.5491,5.5549,5.5588,5.5665,5.5684,5.5684,5.5684,5.5703,5.5662,5.5662,5.566,5.5596,5.5573,5.5504,5.5437,5.5364,5.5281,5.4884,5.5703,5.5826,5.5826,5.5827,5.5904,5.5941,5.5996,5.6031,5.6014,5.5996,5.5941,5.5808,5.5726,5.5682,5.566,5.5618,5.5638,5.5638,5.566,5.5643,5.5316,5.5203,5.5206,5.4918,5.4535,5.4034,5.3687,5.33,5.2814,5.2056,5.1412,5.0948,5.0906,5.0906,5.0887,5.0577,5.019,4.9707,4.9359,4.8566,4.7444,4.6825,4.6303,4.5819,4.5471,4.5297,4.522,4.4523,4.4078,4.404,4.3595,4.349,4.3936,4.3871,4.4039,4.4435,4.4403,4.4671,4.5453,4.5854,4.643,4.7293,4.7433,4.7895,4.8831,4.9343,4.9779,5.0275,5.0407,5.0558,5.0867,5.0906,5.0906,5.0906,5.0906,5.1099,5.1641,5.1989,5.2356,5.2898,5.3743,5.4362,5.4768,5.5252,5.5659,5.6026,5.6029,5.6012,5.6012,5.6012,5.6012,5.5995,5.5942,5.5905,5.5885,5.5785,5.5724,5.5684,5.5684,5.5684,5.5684,5.5684,5.5684,5.5684,5.5684,5.5684,5.5684,5.5703,5.564,5.564,5.5596,5.5527,5.548,5.5432,5.5314,5.5923,5.5979,5.5996,5.601,5.6059,5.6126,5.619,5.6223,5.6175,5.6126,5.6075,5.6026,5.5958,5.5885,5.5807,5.5745,5.5745,5.5766,5.5767,5.5827,5.5847,5.5885,5.5923,5.5941,5.565,5.5088,5.4796,5.4271,5.3459,5.2643,5.1889,5.1328,5.1022,5.0906,5.0906,5.0906,5.0616,5.0094,5.0035,4.961,4.8778,4.814,4.727,4.6283,4.6148,4.6032,4.578,4.5239,4.4929,4.4929,4.4311,4.4239,4.481,4.4785,4.5047,4.556,4.5762,4.6052,4.6647,4.6935,4.7473,4.8279,4.8452,4.8889,4.9671,4.9934,5.0236,5.0755,5.0906,5.0887,5.0906,5.0906,5.0983,5.1196,5.1254,5.1621,5.2434,5.2724,5.3188,5.3807,5.4614,5.5184,5.5262,5.5726,5.6114,5.6114,5.6098,5.6062,5.6046,5.6062,5.6043,5.6029,5.596,5.5924,5.5905,5.5785,5.5724,5.5684,5.5684,5.5684,5.5684,5.5684,5.5684,5.5684,5.5684,5.5684,5.5684,5.5703,5.5703,5.5703,5.564,5.5596,5.5573,5.5551,5.5551,5.613,5.6185,5.6207,5.6201,5.6194,5.6258,5.629,5.6302,5.629,5.629,5.6258,5.6226,5.6185,5.617,5.5977,5.5905,5.5885,5.5885,5.5902,5.5902,5.5977,5.599,5.5985,5.6071,5.6097,5.5952,5.5359,5.4602,5.3715,5.2812,5.2279,5.2167,5.1401,5.0945,5.0906,5.0906,5.0887,5.077,5.077,5.0442,4.9745,4.9591,4.874,4.7289,4.7038,4.6689,4.5993,4.58,4.5761,4.5742,4.5626,4.5645,4.5722,4.5733,4.5746,4.5816,4.6422,4.6848,4.7043,4.768,4.8469,4.9237,4.9427,4.9806,5.059,5.07,5.0813,5.0925,5.1022,5.1003,5.108,5.1119,5.1351,5.2047,5.2124,5.2531,5.3343,5.4039,5.4619,5.4868,5.5443,5.5897,5.6063,5.616,5.6194,5.6194,5.619,5.617,5.6194,5.619,5.6141,5.6078,5.5995,5.5904,5.5885,5.5785,5.5724,5.5684,5.5684,5.5684,5.5684,5.5684,5.5684,5.5684,5.5684,5.5684,5.5684,5.5684,5.5684,5.5703,5.5703,5.5662,5.564,5.5662,5.5662,5.6253,5.6263,5.6275,5.6286,5.6328,5.6358,5.6368,5.6369,5.6369,5.6329,5.6297,5.6317,5.6314,5.6265,5.6187,5.6117,5.6043,5.6024,5.6056,5.6083,5.6112,5.6154,5.6188,5.62,5.6251,5.6205,5.5964,5.5369,5.4587,5.4174,5.345,5.2473,5.2045,5.1605,5.1125,5.0986,5.0956,5.0956,5.0941,5.077,5.05,5.0461,4.99,4.8817,4.8217,4.7773,4.7482,4.6941,4.6631,4.6631,4.6109,4.58,4.5858,4.6327,4.6617,4.6665,4.7399,4.8083,4.8569,4.8935,4.9495,5.0287,5.0417,5.0491,5.0816,5.0909,5.1119,5.1583,5.1718,5.1912,5.2318,5.2086,5.2066,5.284,5.3033,5.3382,5.4116,5.4639,5.5004,5.554,5.6024,5.6232,5.6291,5.6304,5.6272,5.6258,5.6214,5.622,5.6239,5.6226,5.6185,5.6091,5.5993,5.5923,5.5905,5.5785,5.5684,5.5684,5.5684,5.5684,5.5684,5.5684,5.5684,5.5684,5.5684,5.5684,5.5684,5.5684,5.5684,5.5684,5.5684,5.5684,5.5684,5.5684,5.5684,5.6388,5.6359,5.6357,5.6394,5.643,5.643,5.6425,5.642,5.6439,5.6425,5.6383,5.6402,5.6405,5.6368,5.6377,5.631,5.6236,5.6226,5.6226,5.6263,5.6255,5.6289,5.6349,5.6359,5.6368,5.6357,5.6368,5.6038,5.5502,5.518,5.44,5.3347,5.3013,5.2387,5.1664,5.147,5.1366,5.1106,5.0981,5.0952,5.0921,5.0941,5.067,5.0113,4.9513,4.8914,4.845,4.7811,4.7502,4.7444,4.6941,4.6631,4.6709,4.7192,4.7521,4.7618,4.8333,4.9049,4.9575,4.9919,5.036,5.0887,5.096,5.0956,5.0941,5.1173,5.1637,5.2102,5.2511,5.2956,5.3556,5.3382,5.3285,5.3807,5.3923,5.4271,5.5064,5.5216,5.5517,5.6001,5.6207,5.6309,5.6367,5.6336,5.6347,5.6338,5.6308,5.6308,5.6317,5.6306,5.6246,5.616,5.6056,5.5993,5.5923,5.5827,5.5726,5.5705,5.5684,5.5684,5.5684,5.5684,5.5684,5.5684,5.5684,5.5684,5.5684,5.5684,5.5684,5.5684,5.5684,5.5684,5.5684,5.5684,5.5684,5.6504,5.6485,5.6499,5.6504,5.6504,5.6493,5.6501,5.6501,5.652,5.6497,5.6469,5.6489,5.6499,5.6484,5.6499,5.6504,5.6464,5.6422,5.6378,5.6407,5.6386,5.643,5.6504,5.6485,5.6497,5.648,5.6497,5.6465,5.6322,5.5615,5.5102,5.485,5.4081,5.3292,5.2405,5.2317,5.1913,5.1372,5.1153,5.1069,5.1,5.0986,5.0932,5.0828,5.0732,5.0035,4.8604,4.8469,4.8411,4.8392,4.8295,4.8353,4.8198,4.8333,4.8411,4.8527,4.9223,4.9683,4.9843,5.0482,5.0903,5.1053,5.1087,5.1092,5.1257,5.1745,5.2249,5.2585,5.313,5.3865,5.46,5.4716,5.4697,5.4813,5.4793,5.5122,5.5702,5.6007,5.6121,5.6246,5.6294,5.6336,5.6378,5.6407,5.6387,5.6405,5.643,5.6445,5.6394,5.6386,5.6368,5.6306,5.616,5.6056,5.5975,5.5904,5.5788,5.5726,5.5705,5.5684,5.5684,5.5684,5.5684,5.5684,5.5684,5.5684,5.5684,5.5684,5.5684,5.5684,5.5684,5.5684,5.5684,5.5684,5.5684,5.6559,5.6559,5.6566,5.6566,5.6566,5.6568,5.6571,5.6551,5.6571,5.6549,5.6504,5.6546,5.6543,5.652,5.6523,5.6566,5.6566,5.6532,5.6519,5.6475,5.6475,5.6504,5.6556,5.6579,5.6582,5.6566,5.6563,5.6536,5.645,5.6187,5.5787,5.521,5.4892,5.4273,5.344,5.2814,5.2291,5.2057,5.1461,5.1125,5.1076,5.1023,5.1,5.0971,5.0921,5.0616,5.0132,4.9591,4.932,4.9301,4.872,4.8411,4.8508,4.8972,4.9281,4.9378,5.0104,5.0584,5.0618,5.086,5.1067,5.1101,5.1101,5.1397,5.1799,5.2167,5.2849,5.3707,5.4271,5.4735,5.5412,5.5625,5.5586,5.5606,5.5644,5.5664,5.5932,5.611,5.6193,5.6286,5.6339,5.6394,5.6445,5.6465,5.6452,5.6444,5.6494,5.6489,5.6464,5.6432,5.6402,5.6349,5.6239,5.6132,5.6091,5.5993,5.5885,5.5808,5.5787,5.5745,5.5724,5.5705,5.5705,5.5684,5.5684,5.5684,5.5684,5.5684,5.5684,5.5684,5.5684,5.5684,5.5684,5.5684,5.5684,5.6614,5.6614,5.6616,5.6618,5.6618,5.6618,5.6618,5.6618,5.6618,5.6577,5.6556,5.6577,5.6577,5.6556,5.6577,5.6598,5.6618,5.6618,5.6577,5.6534,5.6529,5.6551,5.6614,5.6618,5.6618,5.6618,5.6616,5.6573,5.6551,5.651,5.625,5.5817,5.5728,5.5289,5.4465,5.3832,5.3318,5.2594,5.2005,5.1532,5.1206,5.1069,5.1017,5.0986,5.0921,5.0906,5.0867,5.0403,5.0152,5.0074,4.9591,4.9359,4.9397,4.9861,5.0152,5.0298,5.0622,5.0981,5.1048,5.1056,5.1108,5.1179,5.1412,5.1754,5.2327,5.2705,5.3832,5.4578,5.5084,5.5451,5.5877,5.5993,5.6012,5.601,5.5973,5.6029,5.6062,5.617,5.6258,5.6329,5.6402,5.6446,5.647,5.648,5.6489,5.6497,5.6516,5.6552,5.6523,5.6484,5.6452,5.6405,5.6338,5.6271,5.6193,5.6091,5.5975,5.5923,5.5847,5.5826,5.5806,5.5766,5.5726,5.5705,5.5684,5.5684,5.5684,5.5684,5.5684,5.5684,5.5684,5.5684,5.5684,5.5684,5.5703,5.66,5.66,5.6601,5.6621,5.6621,5.6621,5.6621,5.6621,5.6621,5.6582,5.6601,5.6601,5.6621,5.6601,5.6621,5.6621,5.6621,5.6601,5.6601,5.6601,5.6598,5.6597,5.6619,5.662,5.6621,5.6621,5.662,5.6599,5.6599,5.6597,5.6612,5.6495,5.6437,5.62,5.5433,5.5293,5.4361,5.3167,5.2785,5.2251,5.1415,5.1284,5.1146,5.1053,5.0937,5.0906,5.0887,5.0809,5.0828,5.0887,5.0732,5.0654,5.0828,5.0887,5.0844,5.0874,5.0986,5.1029,5.1082,5.1095,5.1205,5.1423,5.1928,5.2479,5.2782,5.3839,5.468,5.5004,5.5528,5.5935,5.5993,5.6012,5.6046,5.6078,5.6062,5.6078,5.618,5.6272,5.6328,5.6396,5.6459,5.6494,5.6508,5.6513,5.6497,5.6516,5.6559,5.6579,5.6571,5.6543,5.6494,5.6459,5.6396,5.6359,5.6294,5.6207,5.6106,5.6078,5.5995,5.5923,5.5885,5.5807,5.5787,5.5745,5.5724,5.5724,5.5684,5.5684,5.5684,5.5684,5.5684,5.5684,5.5724,5.5724,5.5747,5.6558,5.6534,5.6575,5.6616,5.6616,5.6616,5.6616,5.6616,5.6599,5.66,5.66,5.6621,5.6601,5.6601,5.6601,5.6621,5.6601,5.6601,5.6621,5.6621,5.6621,5.662,5.6621,5.6621,5.6621,5.6621,5.6621,5.6621,5.6621,5.6621,5.6621,5.662,5.6599,5.65,5.6226,5.5616,5.5126,5.4551,5.3912,5.3172,5.2376,5.2173,5.1802,5.1183,5.1048,5.099,5.0971,5.0941,5.0906,5.0906,5.0906,5.0906,5.0906,5.0906,5.0941,5.1005,5.1053,5.1062,5.1114,5.1178,5.1443,5.2018,5.2387,5.2945,5.4144,5.459,5.5165,5.5545,5.5935,5.6012,5.5993,5.6046,5.611,5.6165,5.6165,5.6185,5.6259,5.6333,5.6398,5.6469,5.6489,5.6516,5.6546,5.6571,5.6554,5.6573,5.6591,5.6605,5.6595,5.6547,5.6499,5.6503,5.6464,5.6433,5.6388,5.6314,5.6253,5.6251,5.6164,5.6031,5.596,5.5885,5.5846,5.5806,5.5787,5.5766,5.5724,5.5684,5.5684,5.5724,5.5724,5.5724,5.5766,5.5806,5.5808,5.6489,5.6465,5.6536,5.6559,5.6559,5.6543,5.6543,5.6566,5.6549,5.6571,5.6551,5.6554,5.6556,5.6556,5.6543,5.6562,5.6559,5.6559,5.6562,5.6621,5.6621,5.6621,5.6621,5.6621,5.6621,5.6621,5.6621,5.6621,5.6621,5.6621,5.6621,5.6621,5.6621,5.662,5.6562,5.615,5.5622,5.5269,5.4752,5.4096,5.323,5.3089,5.2573,5.1908,5.1606,5.1426,5.1068,5.0925,5.0906,5.0906,5.0906,5.0906,5.0906,5.0906,5.0941,5.1039,5.1067,5.1114,5.1224,5.1462,5.1921,5.2465,5.295,5.3896,5.4735,5.5186,5.5699,5.5946,5.6046,5.6029,5.6029,5.6075,5.6165,5.6226,5.6294,5.6336,5.6345,5.6359,5.6414,5.6485,5.6543,5.6568,5.6595,5.6597,5.6616,5.6614,5.6607,5.6621,5.6614,5.6552,5.6523,5.6528,5.6517,5.6471,5.6461,5.6378,5.6314,5.6317,5.6259,5.616,5.6082,5.5959,5.5904,5.5885,5.5866,5.5826,5.5766,5.5745,5.5745,5.5766,5.5766,5.5787,5.5846,5.5866,5.5903,5.6393,5.6367,5.6465,5.6478,5.6478,5.6494,5.6494,5.6499,5.648,5.6504,5.6484,5.6484,5.6489,5.6484,5.6489,5.6493,5.6501,5.6501,5.6551,5.6577,5.658,5.6582,5.6582,5.6601,5.6601,5.6601,5.6601,5.6601,5.6601,5.6601,5.6621,5.6621,5.6621,5.6621,5.6601,5.6523,5.6152,5.5643,5.5503,5.4967,5.4225,5.3962,5.3522,5.2777,5.2518,5.2119,5.1595,5.1351,5.1331,5.1235,5.1022,5.0925,5.0906,5.0906,5.1087,5.128,5.1353,5.1412,5.1598,5.2251,5.264,5.3028,5.4213,5.5035,5.5209,5.5719,5.6059,5.6094,5.6117,5.6078,5.6078,5.6146,5.6226,5.6297,5.6405,5.6457,5.6441,5.641,5.6426,5.6489,5.6563,5.6614,5.6616,5.6616,5.6612,5.6614,5.6605,5.6618,5.661,5.6586,5.6586,5.6582,5.6553,5.6517,5.6491,5.6453,5.6398,5.6345,5.6302,5.6253,5.6185,5.6091,5.6026,5.5977,5.5941,5.5866,5.5787,5.5787,5.5807,5.5807,5.5827,5.5885,5.5941,5.5958,5.5973,5.628,5.6267,5.631,5.6349,5.6359,5.6396,5.6433,5.6433,5.6418,5.6406,5.6413,5.6407,5.6433,5.6413,5.6407,5.6419,5.6419,5.647,5.6508,5.6527,5.6529,5.6529,5.6532,5.6558,5.6558,5.6554,5.6595,5.6575,5.6554,5.6579,5.66,5.66,5.6601,5.6621,5.6621,5.6601,5.6543,5.6328,5.6287,5.5817,5.5165,5.4903,5.447,5.3666,5.3374,5.3208,5.3077,5.2953,5.2937,5.2627,5.1757,5.1138,5.1119,5.1091,5.1426,5.1915,5.2117,5.2395,5.2996,5.3261,5.3727,5.4291,5.4737,5.5288,5.5888,5.6038,5.6204,5.618,5.6184,5.616,5.617,5.6239,5.6306,5.6378,5.6459,5.6519,5.6543,5.6523,5.6489,5.652,5.6551,5.6618,5.6619,5.6619,5.6616,5.6612,5.6605,5.6614,5.661,5.6606,5.6606,5.6606,5.6602,5.6548,5.6491,5.6476,5.6444,5.6398,5.6368,5.6317,5.6271,5.622,5.6151,5.6075,5.5995,5.5941,5.5885,5.5847,5.5885,5.5885,5.5904,5.5977,5.6046,5.6043,5.6102,5.6126,5.6117,5.6135,5.6162,5.6162,5.6219,5.6251,5.6251,5.6255,5.6258,5.6258,5.625,5.628,5.626,5.626,5.6271,5.6309,5.6398,5.6446,5.6464,5.6455,5.648,5.648,5.6508,5.6508,5.6513,5.654,5.652,5.6523,5.6549,5.6554,5.6554,5.6579,5.6601,5.662,5.662,5.6601,5.6582,5.66,5.6345,5.5993,5.5837,5.536,5.4504,5.3961,5.3643,5.3538,5.3511,5.3478,5.3265,5.2663,5.2156,5.2175,5.2186,5.2468,5.2834,5.3003,5.3165,5.3611,5.4089,5.449,5.4995,5.5376,5.5824,5.6193,5.629,5.6258,5.6253,5.6233,5.6233,5.6253,5.6306,5.6388,5.6441,5.6514,5.6543,5.6585,5.6568,5.6529,5.6554,5.6577,5.6599,5.662,5.662,5.6619,5.6616,5.6607,5.6618,5.6614,5.661,5.6606,5.6606,5.6606,5.6577,5.6503,5.6485,5.6496,5.6472,5.6444,5.6398,5.6358,5.6306,5.6271,5.6179,5.611,5.6062,5.6012,5.5996,5.5979,5.6014,5.6029,5.6094,5.6156,5.6193,5.6239,5.5922,5.5902,5.5954,5.5971,5.5988,5.6056,5.6071,5.6071,5.6087,5.6102,5.6087,5.6087,5.6117,5.6087,5.6083,5.6112,5.6194,5.6267,5.632,5.6357,5.6363,5.6398,5.6445,5.6418,5.6425,5.6484,5.6489,5.6475,5.6475,5.6489,5.6516,5.6501,5.6566,5.6593,5.6597,5.6598,5.662,5.6621,5.6601,5.6581,5.6502,5.6432,5.6001,5.5364,5.473,5.4324,5.428,5.4165,5.4017,5.3884,5.3952,5.3968,5.3925,5.3669,5.3742,5.3831,5.3883,5.4084,5.4439,5.4852,5.5264,5.5264,5.5889,5.6308,5.6377,5.6368,5.6339,5.6329,5.6319,5.6328,5.6317,5.6369,5.6433,5.6491,5.6547,5.6591,5.6612,5.6614,5.6598,5.6599,5.66,5.6601,5.662,5.662,5.662,5.6618,5.661,5.6621,5.6618,5.6614,5.6606,5.6606,5.6606,5.6606,5.6553,5.6528,5.6524,5.6517,5.651,5.6469,5.6433,5.6396,5.6349,5.629,5.6213,5.617,5.6126,5.6091,5.6094,5.613,5.6156,5.6207,5.6258,5.6325,5.6359,5.564,5.5596,5.5767,5.5827,5.5847,5.5922,5.5938,5.5938,5.5993,5.601,5.601,5.6029,5.601,5.601,5.601,5.6024,5.6052,5.6093,5.6154,5.6219,5.6267,5.6338,5.6329,5.6329,5.6329,5.6359,5.6396,5.6414,5.6422,5.6471,5.6478,5.6494,5.6504,5.6516,5.6546,5.6551,5.6597,5.662,5.6621,5.6621,5.6601,5.6558,5.6497,5.6113,5.5716,5.561,5.5622,5.5626,5.5639,5.5586,5.5656,5.5649,5.535,5.4449,5.4225,5.4582,5.4757,5.4995,5.5532,5.5897,5.6142,5.6211,5.6319,5.6388,5.6407,5.6396,5.6402,5.6383,5.6394,5.6377,5.6396,5.641,5.6445,5.6491,5.6547,5.6612,5.6614,5.6618,5.6621,5.6621,5.6621,5.6621,5.6621,5.6621,5.662,5.6619,5.6614,5.6607,5.6605,5.6614,5.6606,5.6606,5.6606,5.6606,5.6602,5.6602,5.6592,5.6572,5.6567,5.6536,5.6491,5.6472,5.6445,5.6359,5.6314,5.6246,5.622,5.6174,5.6193,5.6207,5.6258,5.6317,5.6349,5.6398,5.6433,5.5389,5.5408,5.5573,5.5662,5.5703,5.5767,5.5808,5.5808,5.5827,5.5847,5.5847,5.5866,5.5847,5.5847,5.5847,5.5866,5.5902,5.5956,5.6007,5.6071,5.6151,5.6213,5.6214,5.6214,5.6201,5.622,5.6258,5.6325,5.6328,5.6378,5.6414,5.6437,5.6452,5.6458,5.6504,5.6532,5.6568,5.6597,5.66,5.6621,5.6621,5.6619,5.6563,5.6497,5.6386,5.6317,5.622,5.6126,5.6062,5.601,5.6078,5.6168,5.5962,5.5636,5.5158,5.5502,5.5617,5.5796,5.6216,5.6367,5.6368,5.6368,5.6417,5.6446,5.6453,5.6445,5.6439,5.646,5.646,5.645,5.6444,5.645,5.6475,5.6504,5.6566,5.6595,5.6618,5.662,5.6621,5.6621,5.6621,5.6621,5.6621,5.6621,5.6621,5.662,5.6616,5.6612,5.6607,5.6618,5.6606,5.6606,5.6606,5.6606,5.6606,5.6606,5.6606,5.6606,5.6602,5.6558,5.6553,5.6528,5.6491,5.6441,5.6378,5.6319,5.6319,5.6308,5.6297,5.6297,5.6359,5.6407,5.6433,5.6476,5.6498,5.5056,5.5157,5.5314,5.5437,5.5527,5.5596,5.564,5.5662,5.5682,5.5662,5.5662,5.5662,5.5662,5.5684,5.5724,5.5745,5.5787,5.5847,5.5885,5.5922,5.6012,5.6062,5.611,5.611,5.6126,5.6121,5.613,5.619,5.6246,5.6275,5.6328,5.6359,5.6378,5.6422,5.6465,5.6503,5.6532,5.6551,5.658,5.662,5.6621,5.6598,5.6566,5.6519,5.6437,5.6378,5.6239,5.617,5.6114,5.6082,5.6117,5.6184,5.618,5.6238,5.6278,5.6291,5.6297,5.6302,5.6314,5.6358,5.6407,5.6407,5.6474,5.6492,5.6491,5.6509,5.6507,5.652,5.652,5.6512,5.6527,5.6507,5.6523,5.6527,5.6573,5.6619,5.6619,5.6621,5.6621,5.6621,5.6621,5.6621,5.6621,5.6621,5.6621,5.6621,5.6619,5.6614,5.661,5.6621,5.661,5.6606,5.6606,5.6606,5.6606,5.6606,5.6606,5.6606,5.6606,5.6582,5.6558,5.6553,5.6517,5.6504,5.6498,5.6457,5.643,5.6414,5.6396,5.6416,5.6469,5.6484,5.6471,5.6504,5.6542,5.4482,5.4616,5.4922,5.5121,5.5262,5.5364,5.5485,5.5596,5.5551,5.5531,5.5596,5.5551,5.5551,5.5596,5.5662,5.5684,5.5705,5.5726,5.5767,5.5827,5.5885,5.5959,5.5993,5.6029,5.6065,5.6046,5.6033,5.6046,5.6102,5.6179,5.6253,5.6302,5.6306,5.6368,5.6422,5.6471,5.6494,5.6523,5.6575,5.66,5.6621,5.662,5.6573,5.6516,5.6478,5.6433,5.6297,5.622,5.6156,5.6098,5.6098,5.6114,5.6114,5.6175,5.6218,5.6226,5.6265,5.6302,5.6314,5.6358,5.6388,5.6417,5.6474,5.6488,5.6511,5.6536,5.6558,5.6601,5.6601,5.6581,5.6579,5.6595,5.6593,5.6593,5.6598,5.6619,5.6621,5.6621,5.6621,5.6621,5.6621,5.6621,5.6621,5.6621,5.6621,5.6621,5.662,5.6618,5.6612,5.6621,5.6614,5.6606,5.6606,5.6606,5.6606,5.6606,5.6626,5.6626,5.6626,5.6602,5.6582,5.6577,5.6582,5.6572,5.6572,5.6562,5.6504,5.6491,5.6484,5.6491,5.6524,5.6511,5.6484,5.6533,5.6582,5.3981,5.4352,5.4692,5.4903,5.5019,5.5183,5.5314,5.5364,5.5364,5.5408,5.5432,5.5408,5.5432,5.548,5.5527,5.5573,5.5618,5.564,5.5682,5.5745,5.5807,5.5866,5.5885,5.5942,5.596,5.598,5.5961,5.5961,5.6012,5.6059,5.6141,5.6239,5.6233,5.6294,5.6378,5.6425,5.6478,5.6499,5.6523,5.6556,5.66,5.6601,5.658,5.6549,5.6519,5.6445,5.6369,5.6251,5.6165,5.611,5.6098,5.6114,5.6145,5.619,5.6232,5.6259,5.6291,5.6309,5.6314,5.6358,5.6378,5.6417,5.6455,5.6484,5.6514,5.6527,5.6561,5.6619,5.662,5.662,5.6621,5.662,5.662,5.6621,5.6621,5.6621,5.6621,5.6621,5.6621,5.6621,5.6621,5.6621,5.6621,5.6621,5.6621,5.6621,5.662,5.6618,5.661,5.6618,5.661,5.6606,5.6606,5.6606,5.6606,5.6606,5.6645,5.6645,5.6665,5.6645,5.6606,5.6606,5.6684,5.6665,5.6602,5.6572,5.6556,5.6556,5.6556,5.6542,5.6548,5.6553,5.6533,5.6558,5.6606,5.3582,5.4017,5.4334,5.4546,5.4673,5.4866,5.5028,5.5083,5.5102,5.513,5.5183,5.5183,5.521,5.5307,5.5358,5.5437,5.5573,5.5596,5.566,5.5703,5.5745,5.5806,5.5826,5.5846,5.5885,5.5904,5.5885,5.5905,5.5904,5.5941,5.601,5.6156,5.6121,5.622,5.6325,5.6378,5.6405,5.6503,5.6489,5.6527,5.6556,5.658,5.6582,5.6558,5.6536,5.6497,5.6425,5.6297,5.6187,5.6156,5.613,5.613,5.6175,5.6204,5.6232,5.6259,5.6304,5.6309,5.6314,5.6347,5.6398,5.6407,5.6444,5.6491,5.6484,5.6488,5.6518,5.66,5.662,5.662,5.662,5.6621,5.6621,5.6621,5.6621,5.6621,5.6621,5.6621,5.6621,5.6621,5.6621,5.6621,5.6621,5.6621,5.6621,5.6621,5.662,5.6618,5.661,5.6598,5.661,5.6602,5.6665,5.6665,5.6645,5.6645,5.6665,5.6879,5.6899,5.6938,5.7055,5.6977,5.6957,5.686,5.6782,5.6602,5.6592,5.6597,5.6606,5.6602,5.6577,5.6602,5.6602,5.6606,5.661,5.3318,5.3381,5.3717,5.4036,5.4284,5.4296,5.456,5.4776,5.4704,5.4735,5.4806,5.4855,5.4884,5.5038,5.5176,5.5314,5.5504,5.5573,5.5618,5.564,5.5684,5.5724,5.5745,5.5785,5.5826,5.5865,5.5826,5.5846,5.5866,5.5827,5.5903,5.5993,5.6026,5.6141,5.6239,5.6294,5.6359,5.6445,5.6464,5.6489,5.6501,5.6507,5.6536,5.6582,5.6536,5.6497,5.6498,5.6359,5.6294,5.6259,5.6204,5.619,5.6213,5.6232,5.6246,5.6291,5.6297,5.6309,5.6314,5.6356,5.6397,5.6417,5.6455,5.6484,5.647,5.6493,5.6532,5.658,5.6601,5.6621,5.6621,5.6621,5.6621,5.6621,5.6621,5.6621,5.6621,5.6621,5.6621,5.6621,5.6621,5.6621,5.6621,5.6621,5.6621,5.6621,5.6601,5.6598,5.6568,5.6575,5.6586,5.6602,5.6699,5.6719,5.6699,5.6879,5.7367,5.7641,5.7738,5.7738,5.7758,5.7621,5.7562,5.7348,5.7289,5.6938,5.6704,5.6918,5.6977,5.6723,5.6606,5.6606,5.661,5.6614,5.6621,5.317,5.3254,5.3396,5.36,5.3851,5.3999,5.4123,5.4209,5.4228,5.4243,5.4311,5.4311,5.443,5.4578,5.4723,5.499,5.5229,5.5333,5.5456,5.5527,5.5573,5.5596,5.5638,5.5682,5.5703,5.5724,5.5724,5.5745,5.5766,5.5745,5.5787,5.5866,5.594,5.6059,5.6151,5.6201,5.6286,5.6349,5.6394,5.6398,5.6489,5.6484,5.6504,5.6542,5.6581,5.6527,5.6503,5.641,5.6378,5.6347,5.6297,5.6278,5.6258,5.6265,5.6285,5.6317,5.6321,5.6302,5.6314,5.6367,5.6398,5.6398,5.6407,5.6441,5.6439,5.6433,5.6484,5.6523,5.6577,5.6599,5.662,5.6621,5.6621,5.6621,5.6621,5.6621,5.6621,5.6621,5.6621,5.6621,5.6621,5.6621,5.6621,5.6621,5.6621,5.6601,5.6601,5.6575,5.6563,5.6665,5.6748,5.6977,5.7113,5.7314,5.7353,5.7729,5.8187,5.8402,5.8597,5.8597,5.8597,5.8577,5.848,5.8168,5.7992,5.7972,5.7836,5.7582,5.7328,5.6977,5.6743,5.6606,5.6614,5.6605,5.6593,5.2893,5.3017,5.3017,5.3235,5.3524,5.368,5.3757,5.3814,5.3851,5.3833,5.3851,5.387,5.3961,5.4158,5.4368,5.4629,5.4933,5.5102,5.5255,5.5358,5.5432,5.5456,5.548,5.5527,5.5596,5.5596,5.5682,5.5703,5.5724,5.5684,5.5745,5.5807,5.5885,5.5975,5.604,5.6126,5.6194,5.6263,5.6286,5.6329,5.6422,5.6452,5.647,5.651,5.6541,5.6539,5.6516,5.6458,5.6445,5.6405,5.6378,5.6339,5.6329,5.6328,5.6345,5.6333,5.6333,5.6314,5.6336,5.6358,5.6388,5.6388,5.6388,5.6396,5.6394,5.641,5.6446,5.6493,5.6546,5.6593,5.6598,5.6621,5.6621,5.6621,5.6621,5.6621,5.6621,5.6621,5.6621,5.6621,5.6621,5.6621,5.664,5.664,5.6719,5.666,5.6562,5.6563,5.6586,5.6762,5.707,5.7356,5.7707,5.7954,5.82,5.8499,5.8841,5.9339,5.9475,5.9495,5.9495,5.9495,5.9222,5.8773,5.8734,5.9026,5.8851,5.8402,5.7777,5.7153,5.6962,5.6793,5.6591,5.6597,5.6581,5.2518,5.2608,5.2635,5.2875,5.3258,5.33,5.3422,5.3563,5.3561,5.3521,5.3561,5.3602,5.37,5.3907,5.4108,5.4401,5.4692,5.4893,5.5066,5.5176,5.5255,5.5314,5.5383,5.5432,5.5485,5.5596,5.5618,5.564,5.5662,5.564,5.5682,5.5724,5.5788,5.5885,5.5921,5.604,5.6136,5.6179,5.6201,5.6251,5.6319,5.6378,5.6418,5.6475,5.651,5.6504,5.6515,5.6516,5.6514,5.6472,5.642,5.6406,5.641,5.6386,5.6378,5.6397,5.6386,5.6386,5.6386,5.6398,5.6407,5.6407,5.6398,5.6398,5.6396,5.6414,5.6445,5.648,5.6497,5.6549,5.6577,5.6621,5.6621,5.6621,5.6621,5.6621,5.6621,5.6621,5.6621,5.6621,5.6621,5.6621,5.664,5.6699,5.6797,5.6758,5.6582,5.6621,5.6854,5.7173,5.7611,5.7961,5.839,5.8765,5.9033,5.9156,5.9499,6.0037,6.0373,6.0373,6.0393,6.0373,6.0002,5.9436,5.9553,5.9944,5.9592,5.9124,5.8543,5.7984,5.7304,5.7001,5.6774,5.6816,5.7086,5.2137,5.2343,5.2343,5.2527,5.2831,5.3005,5.3212,5.3336,5.3314,5.3332,5.3314,5.3359,5.3462,5.366,5.3851,5.4125,5.4416,5.4584,5.4773,5.5,5.5038,5.5094,5.5176,5.5281,5.5364,5.5408,5.548,5.5527,5.5551,5.5551,5.5573,5.5618,5.5766,5.5866,5.5942,5.6031,5.6065,5.613,5.6141,5.6185,5.6278,5.6317,5.6368,5.6465,5.6477,5.652,5.6562,5.6554,5.6563,5.6536,5.6489,5.646,5.6464,5.6439,5.6394,5.6407,5.6407,5.6386,5.6397,5.6398,5.6398,5.6388,5.6407,5.6388,5.6398,5.6398,5.6441,5.6497,5.6489,5.6527,5.6579,5.6601,5.6621,5.6621,5.6621,5.6621,5.6621,5.6621,5.6621,5.6621,5.6621,5.7109,5.7323,5.7491,5.7561,5.7758,5.7738,5.7792,5.7989,5.8189,5.852,5.8783,5.9143,5.959,5.9888,6.0067,6.0327,6.0812,6.1149,6.1271,6.1271,6.1115,6.1017,6.0607,6.0725,6.0822,6.0471,6.0085,5.9494,5.8875,5.8471,5.8066,5.7949,5.8096,5.8371,5.1533,5.1799,5.1848,5.2042,5.2343,5.2743,5.3042,5.3164,5.3206,5.3206,5.3206,5.3295,5.34,5.3521,5.3697,5.3907,5.4196,5.4318,5.442,5.4667,5.4773,5.4833,5.4933,5.5094,5.5229,5.5255,5.5333,5.5389,5.548,5.5456,5.5551,5.5682,5.5745,5.5866,5.5981,5.6017,5.6016,5.6065,5.6078,5.611,5.6199,5.6239,5.6299,5.6391,5.6455,5.6515,5.6561,5.6601,5.6616,5.6595,5.6573,5.6529,5.6516,5.6475,5.6413,5.6414,5.6398,5.6386,5.6367,5.6398,5.6388,5.6356,5.6386,5.6406,5.6406,5.6397,5.6433,5.6472,5.648,5.6527,5.6579,5.6601,5.6621,5.6621,5.666,5.668,5.6758,5.6758,5.7148,5.709,5.7383,5.7812,5.8141,5.8339,5.8519,5.876,5.8972,5.9016,5.9036,5.9157,5.9303,5.9529,5.9904,6.0347,6.0731,6.101,6.1302,6.1646,6.171,6.1691,6.1681,6.1447,6.1603,6.1701,6.1447,6.1291,6.1393,6.1089,6.0498,6.0234,6.0095,5.97,5.9283,5.9202,5.9281,5.0731,5.0999,5.1105,5.1398,5.1848,5.2454,5.285,5.3164,5.3164,5.3164,5.3164,5.3235,5.3359,5.3481,5.3616,5.3811,5.3963,5.4073,5.4163,5.4284,5.4505,5.4584,5.4742,5.4893,5.5038,5.5149,5.5229,5.5229,5.5383,5.5432,5.5573,5.5724,5.5806,5.5905,5.5962,5.6017,5.5996,5.6012,5.6029,5.6062,5.6126,5.6174,5.6244,5.6339,5.6426,5.6497,5.6534,5.6561,5.6601,5.6601,5.6601,5.6599,5.6575,5.6527,5.6455,5.6418,5.6407,5.6356,5.6333,5.6377,5.6367,5.6314,5.6375,5.6386,5.6386,5.6386,5.6425,5.6465,5.6499,5.6549,5.6581,5.6601,5.6621,5.668,5.6758,5.6836,5.6953,5.7265,5.7793,5.8125,5.8535,5.8887,5.9043,5.9237,5.9421,5.9876,6.002,5.981,5.9828,5.9862,6.0011,6.0162,6.0561,6.1089,6.1421,6.1461,6.1537,6.1634,6.1667,6.1673,6.1685,6.1696,6.1715,6.1715,6.1701,6.1666,6.1616,6.1629,6.1542,6.1327,6.1001,6.0729,6.011,5.9755,5.9678,5.008,5.0215,5.053,5.0803,5.1158,5.1799,5.2315,5.259,5.2698,5.2761,5.2806,5.3109,5.3254,5.3295,5.3477,5.3676,5.3813,5.387,5.4018,5.4127,5.4321,5.4424,5.4538,5.4698,5.4852,5.4901,5.496,5.5028,5.5149,5.5307,5.5504,5.566,5.5806,5.5905,5.5961,5.5998,5.5996,5.5995,5.6012,5.6029,5.6098,5.6151,5.6226,5.6299,5.641,5.6475,5.6504,5.6558,5.6601,5.6621,5.6621,5.662,5.6598,5.6529,5.646,5.6405,5.6358,5.6302,5.6309,5.6333,5.6314,5.6309,5.6321,5.6314,5.6345,5.6386,5.6426,5.6452,5.6489,5.654,5.6554,5.6577,5.6716,5.6874,5.7069,5.7383,5.7598,5.8183,5.8711,5.914,5.957,5.9746,5.9902,6.0015,6.0255,6.0835,6.1031,6.0715,6.0507,6.0525,6.0532,6.0648,6.0818,6.1233,6.1394,6.1445,6.15,6.1547,6.1584,6.1619,6.1634,6.1648,6.1685,6.1701,6.1709,6.1717,6.1704,6.1715,6.1698,6.1668,6.1412,6.1225,6.0988,6.0556,6.0305,4.9316,4.9479,4.9791,5.0137,5.0567,5.1105,5.15,5.1799,5.2315,5.2499,5.2563,5.2893,5.306,5.3085,5.3277,5.3521,5.3658,5.3736,5.3851,5.3981,5.4181,5.4217,5.4356,5.4472,5.4557,5.4641,5.4705,5.4791,5.4981,5.5281,5.5504,5.566,5.5787,5.5885,5.5962,5.5961,5.5979,5.5996,5.5995,5.6029,5.6078,5.6141,5.622,5.6286,5.6386,5.6452,5.6489,5.6551,5.6598,5.6601,5.6621,5.6621,5.6599,5.6532,5.6484,5.643,5.6378,5.6347,5.6364,5.6353,5.6321,5.6309,5.6309,5.6309,5.6321,5.6375,5.6398,5.6445,5.6491,5.6533,5.6536,5.6591,5.6866,5.7124,5.7555,5.8005,5.8574,5.9199,5.9668,6.0117,6.039,6.0566,6.0696,6.0772,6.0918,6.1253,6.1363,6.1194,6.0988,6.0898,6.0865,6.0886,6.0982,6.1171,6.1287,6.1375,6.1408,6.1456,6.1539,6.1559,6.1567,6.16,6.1648,6.1676,6.1717,6.1707,6.1713,6.1699,6.1709,6.167,6.1609,6.1392,6.1236,6.111,6.0978,4.853,4.8702,4.9073,4.9538,5.0045,5.0401,5.064,5.0857,5.175,5.2268,5.2297,5.2563,5.2717,5.2761,5.3005,5.3277,5.34,5.3539,5.3676,5.3794,5.3982,5.4092,5.4146,5.4179,5.4337,5.4424,5.4491,5.4635,5.4941,5.5229,5.5461,5.5662,5.5745,5.5826,5.5885,5.5885,5.5923,5.598,5.5996,5.6012,5.6046,5.6126,5.6193,5.6207,5.63,5.6406,5.6489,5.6536,5.6575,5.6599,5.662,5.6621,5.658,5.6556,5.6528,5.6491,5.6441,5.6398,5.6377,5.6367,5.6345,5.6333,5.6302,5.6309,5.6329,5.6353,5.6378,5.6405,5.643,5.6459,5.6489,5.6831,5.7172,5.7672,5.8206,5.8721,5.9332,5.9959,6.0566,6.0918,6.1055,6.123,6.1245,6.1287,6.1217,6.1522,6.1529,6.1452,6.1361,6.1223,6.1136,6.106,6.108,6.1117,6.1191,6.1255,6.1298,6.1356,6.1447,6.1484,6.1456,6.1529,6.1615,6.1657,6.1707,6.1715,6.1699,6.169,6.167,6.1627,6.1553,6.1448,6.1363,6.1294,6.1164,4.7886,4.8227,4.8815,4.929,4.9632,4.9965,5.0119,5.0272,5.0768,5.1192,5.1518,5.1866,5.2126,5.2351,5.2545,5.2831,5.3127,5.3378,5.3499,5.3716,5.3888,5.3944,5.4,5.4055,5.4181,5.4271,5.4375,5.4524,5.4841,5.5121,5.5339,5.548,5.5573,5.5682,5.5766,5.5787,5.5846,5.5981,5.598,5.5996,5.6029,5.6062,5.6141,5.6207,5.6297,5.6386,5.6459,5.6508,5.6549,5.6598,5.6601,5.662,5.6616,5.6593,5.6556,5.6517,5.6498,5.6469,5.6407,5.6368,5.6347,5.6333,5.6309,5.6304,5.6317,5.6321,5.6336,5.6349,5.6368,5.6402,5.6613,5.7049,5.7609,5.8239,5.887,5.9472,6.0049,6.0717,6.1384,6.1542,6.1679,6.1717,6.1713,6.1701,6.1652,6.1607,6.1529,6.1468,6.1428,6.1318,6.1223,6.1154,6.1099,6.1117,6.1155,6.1173,6.1239,6.1236,6.1302,6.1327,6.1369,6.148,6.1602,6.1674,6.1715,6.1699,6.1692,6.1647,6.1615,6.1588,6.151,6.1401,6.1259,6.1148,6.1003,4.7066,4.7437,4.8146,4.8593,4.8951,4.9316,4.9555,4.9791,5.0137,5.0474,5.0803,5.1314,5.1687,5.1938,5.2191,5.2518,5.2912,5.317,5.3378,5.3579,5.3716,5.3754,5.3813,5.3888,5.3963,5.4092,5.4356,5.4571,5.4799,5.5057,5.5281,5.5307,5.5408,5.5527,5.5618,5.564,5.5766,5.5943,5.5962,5.598,5.5995,5.6082,5.611,5.6179,5.6258,5.6359,5.643,5.647,5.652,5.6556,5.66,5.6601,5.6619,5.6598,5.6588,5.6552,5.6533,5.6491,5.643,5.6396,5.6359,5.6347,5.6302,5.6309,5.6311,5.6317,5.6317,5.6325,5.6328,5.6359,5.6923,5.74,5.8295,5.905,5.9599,6.0129,6.0682,6.128,6.1594,6.1635,6.1713,6.1711,6.1704,6.1713,6.1666,6.1612,6.1539,6.1498,6.144,6.1389,6.1302,6.1239,6.1189,6.1136,6.1155,6.1173,6.1191,6.1189,6.1189,6.1283,6.1389,6.15,6.1615,6.1639,6.1679,6.1711,6.169,6.1634,6.1607,6.1595,6.1479,6.1369,6.1217,6.1003,6.0839,4.6356,4.6668,4.7354,4.782,4.8129,4.8673,4.894,4.9152,4.9573,4.9866,5.0137,5.0731,5.1245,5.1672,5.1933,5.2333,5.2654,5.2893,5.3193,5.3318,5.344,5.3481,5.3539,5.3598,5.3736,5.3981,5.4284,5.4505,5.4705,5.4941,5.5066,5.5113,5.5203,5.5307,5.5383,5.5504,5.566,5.5865,5.5924,5.598,5.6014,5.6065,5.6094,5.6136,5.622,5.6325,5.6396,5.6446,5.6489,5.6529,5.658,5.6601,5.662,5.662,5.6616,5.6588,5.654,5.6528,5.6484,5.6445,5.6433,5.6398,5.6347,5.6314,5.6329,5.6472,5.6472,5.6543,5.6535,5.6749,5.7325,5.8095,5.9035,5.9747,6.0247,6.0711,6.1232,6.1681,6.1704,6.1707,6.1704,6.1701,6.169,6.1696,6.166,6.1606,6.1539,6.1507,6.144,6.1421,6.1366,6.1318,6.1287,6.1239,6.1208,6.121,6.1208,6.1191,6.1208,6.1302,6.1402,6.152,6.1589,6.1619,6.164,6.169,6.1681,6.1621,6.1603,6.1559,6.1452,6.1313,6.1059,6.086,6.0676,4.5945,4.6426,4.6981,4.7321,4.7605,4.8049,4.8244,4.842,4.8765,4.9073,4.9479,4.9907,5.0492,5.1211,5.1487,5.1822,5.2126,5.2499,5.2761,5.2937,5.3072,5.3217,5.3318,5.34,5.3561,5.3813,5.4108,5.4337,5.4524,5.4749,5.4871,5.4871,5.5057,5.5203,5.5333,5.548,5.566,5.5826,5.5943,5.598,5.5977,5.6029,5.6082,5.6141,5.6226,5.6286,5.6357,5.6458,5.6513,5.6551,5.658,5.6601,5.662,5.662,5.6619,5.6616,5.6573,5.6546,5.6508,5.6484,5.6478,5.6469,5.6435,5.6456,5.6651,5.7108,5.7195,5.7395,5.7434,5.7515,5.8066,5.9018,5.9918,6.0302,6.0757,6.1146,6.1588,6.1681,6.1709,6.1694,6.1694,6.1661,6.1621,6.1615,6.1576,6.1519,6.1464,6.1428,6.1447,6.1421,6.1394,6.1375,6.1361,6.1287,6.1225,6.1242,6.1261,6.1227,6.1208,6.1318,6.1415,6.1519,6.1576,6.1596,6.164,6.1684,6.1652,6.1607,6.1549,6.1487,6.1402,6.1236,6.0983,6.0727,6.0527]}]]